GFSSW_sfc_dewp_000.txt.gz
Dewpoint
54 54 54 53 53 54 55 56 56 56 56 56 57 56 56 58 59 57 53 54 61 65 65 52 52 50 51 44 43 40 34 29 26 27 28 31 32 35 36 32 32 42 40 45 49
52 53 53 53 53 54 55 55 55 55 55 55 56 55 56 57 55 52 55 57 62 66 59 48 48 48 44 41 40 37 35 34 32 30 33 32 34 34 35 34 33 43 52 53 53
51 52 52 53 53 53 54 54 54 54 55 55 55 55 56 56 48 46 57 58 59 64 62 54 47 45 43 43 41 38 35 37 36 37 37 34 33 34 33 33 33 33 48 52 52
51 52 52 52 53 53 53 53 54 54 54 54 54 54 56 53 36 43 56 58 61 61 61 55 46 44 43 42 43 39 39 37 39 39 36 33 34 33 32 33 35 35 40 53 52
52 52 51 51 52 52 53 53 53 53 53 53 53 55 53 46 43 45 54 56 55 61 59 51 44 44 42 42 42 40 40 40 40 39 34 33 33 34 32 32 34 35 48 52 53
52 52 52 52 52 51 52 52 53 54 53 53 54 56 50 41 44 45 46 50 56 59 59 51 45 45 43 43 41 40 37 35 34 34 34 33 33 33 32 32 31 35 43 50 52
51 52 52 52 52 52 52 51 52 53 53 53 54 52 48 41 44 44 44 52 57 59 56 51 48 45 44 43 41 37 35 35 33 33 33 33 29 28 30 30 30 32 33 38 46
52 52 52 52 52 52 52 52 52 53 53 53 55 51 42 46 47 46 48 49 55 59 56 53 53 48 46 42 34 32 32 30 32 34 34 30 29 31 31 30 30 30 30 30 32
52 52 52 52 52 52 52 52 52 53 54 55 51 47 40 54 48 45 46 48 54 57 58 55 51 46 43 38 32 32 29 28 29 31 31 29 28 30 31 28 29 29 27 31 34
53 54 55 54 54 53 53 53 53 54 52 51 50 44 45 45 49 47 48 48 53 54 55 54 52 44 37 33 32 29 29 28 26 26 31 28 28 29 30 25 26 26 30 33 35
53 54 54 55 55 54 53 52 46 44 49 42 43 42 43 47 49 48 51 49 54 53 48 51 47 43 43 35 32 30 27 26 26 28 29 28 28 28 28 26 27 29 32 34 36
53 53 53 54 55 55 53 49 46 45 41 44 43 44 49 47 43 48 53 50 49 46 48 48 44 45 42 37 31 29 27 26 27 30 27 26 25 28 22 27 31 32 34 36 38
53 53 54 54 54 54 51 50 53 50 39 42 45 40 45 47 46 48 53 51 46 44 46 43 44 45 38 32 31 30 27 27 29 30 29 29 28 22 27 30 33 34 35 36 38
54 55 55 54 51 53 51 53 54 53 37 37 41 43 48 49 47 52 53 50 46 42 44 42 39 41 38 32 29 27 29 30 30 28 25 28 23 22 26 29 32 33 34 35 37
55 55 55 55 53 50 53 55 55 50 27 39 42 51 50 46 48 48 53 50 44 43 41 40 35 37 32 31 30 28 32 30 29 27 27 25 24 23 27 28 31 33 33 34 36
55 55 55 54 54 55 55 55 52 38 28 38 45 45 41 46 45 47 49 49 47 40 37 34 33 33 32 31 31 32 28 29 28 26 24 25 25 23 26 27 30 33 33 34 37
55 55 54 55 51 56 55 51 37 34 40 39 40 42 40 41 43 45 44 44 41 35 34 34 24 23 29 25 25 27 27 25 24 24 24 25 23 24 25 29 30 32 33 34 37
55 55 54 51 56 55 52 45 35 38 38 42 41 40 39 40 40 42 42 38 37 30 29 30 23 22 22 26 25 25 27 26 23 24 25 23 21 21 25 30 32 34 35 34 37
54 52 51 52 55 54 48 40 38 39 40 40 39 39 40 41 38 38 38 33 33 33 27 26 26 27 27 23 27 25 26 29 27 28 24 25 26 24 31 33 34 35 34 34 36
49 47 49 52 53 52 47 41 43 43 40 41 37 39 38 35 34 34 35 38 41 38 39 31 25 29 28 26 24 27 27 25 26 23 21 22 22 23 28 32 34 34 34 35 35
47 44 50 51 52 50 42 43 45 42 44 44 40 39 35 35 33 35 37 40 42 40 39 34 30 32 28 28 27 25 23 22 25 25 21 20 21 25 25 29 33 34 35 35 35
46 38 51 51 43 43 43 45 46 46 48 45 38 36 38 41 36 38 39 40 42 41 38 39 33 30 31 31 30 28 26 24 22 21 23 21 21 25 27 26 29 33 35 36 37
42 43 51 50 40 39 41 42 45 45 44 43 44 43 41 40 38 39 39 43 42 41 38 38 35 31 31 32 33 32 29 26 27 27 25 22 23 27 31 28 33 35 35 35 38
42 36 40 41 41 39 38 38 40 44 42 41 40 42 41 38 39 38 38 41 41 40 44 39 32 31 29 29 32 31 33 30 26 25 23 25 24 26 28 30 32 34 36 36 38
39 35 39 34 34 35 35 37 36 36 39 40 38 38 38 36 36 36 38 37 38 41 36 32 28 28 28 27 27 29 30 32 30 28 23 24 25 25 27 26 28 30 35 37 34
38 36 37 36 35 34 35 33 34 34 36 37 36 34 35 34 34 35 37 36 35 35 35 33 28 25 20 22 23 22 22 23 25 29 29 28 26 27 29 30 37 35 35 35 31
43 41 34 36 32 32 33 32 33 35 34 34 35 31 29 30 30 31 35 35 35 34 32 29 24 20 15 25 25 23 25 24 21 22 21 18 21 28 29 33 35 36 35 33 32

GFSSW_sfc_dewp_003.txt.gz
Dewpoint
53 54 54 54 54 54 55 55 56 57 58 57 57 57 57 58 58 54 52 53 55 63 66 57 56 51 51 48 43 39 34 31 29 26 25 31 33 34 35 33 33 42 43 47 49
52 53 53 54 54 54 54 55 56 56 56 56 56 57 57 58 53 51 53 57 59 63 60 50 49 48 46 44 40 38 35 35 33 28 30 35 35 33 34 33 33 36 51 53 54
51 52 52 53 53 54 54 54 55 55 56 56 56 56 57 55 47 44 55 58 58 59 60 55 48 47 44 42 39 38 35 37 36 33 37 37 34 34 33 32 33 33 35 52 53
52 52 52 52 52 53 54 54 54 54 55 55 55 55 56 52 36 43 54 57 58 54 56 58 52 44 43 42 43 38 39 38 39 40 39 36 34 33 32 33 34 35 36 52 52
52 52 52 52 51 52 53 54 54 54 54 54 55 55 52 46 43 45 53 54 52 53 55 56 45 44 42 42 42 40 41 41 41 41 39 37 34 33 33 33 34 33 38 49 52
52 51 52 52 52 52 52 53 54 54 54 54 55 55 50 40 44 45 45 49 51 52 58 57 46 45 43 42 42 42 41 40 36 35 34 34 34 33 33 33 32 31 33 43 52
51 51 52 52 52 52 52 52 53 53 54 54 54 52 47 41 43 46 43 46 51 53 57 57 50 45 44 43 44 39 36 35 35 36 34 33 32 30 31 30 30 29 30 34 40
52 52 52 52 52 52 53 52 52 53 54 54 54 50 42 46 47 46 45 48 52 55 59 56 50 46 45 43 34 32 33 31 33 33 33 32 30 32 33 33 29 30 28 31 35
52 53 54 55 53 53 53 53 52 52 53 54 50 47 41 49 46 45 45 47 48 53 58 56 50 46 45 40 35 33 29 29 29 31 31 30 29 31 31 28 27 28 31 35 37
51 53 54 55 56 55 53 53 52 51 51 50 49 43 44 41 46 45 45 46 52 51 54 54 50 45 41 40 38 31 30 29 28 28 31 29 29 30 30 25 25 28 33 35 37
53 53 53 54 56 56 53 50 45 44 46 42 43 42 41 44 47 44 44 45 50 49 48 51 46 43 43 41 38 33 29 27 27 27 27 28 28 29 29 26 26 30 33 35 37
53 52 53 54 55 55 52 45 44 45 41 44 43 43 45 47 44 44 46 44 47 43 47 48 43 44 44 39 33 31 29 29 28 30 27 27 27 28 24 25 28 31 34 36 37
54 54 55 55 55 54 48 46 53 52 41 40 43 43 43 46 42 45 46 46 43 42 45 42 42 47 44 42 35 31 29 29 27 30 29 28 28 28 26 30 32 33 35 37 38
55 54 55 55 51 52 49 53 54 53 34 35 41 42 43 44 42 50 48 47 43 40 44 44 43 46 43 38 40 38 31 31 29 28 26 30 24 25 24 29 31 33 34 36 38
55 55 55 54 53 49 52 53 54 50 19 37 40 49 45 41 45 47 53 52 41 40 45 41 41 43 44 40 33 36 30 29 30 27 26 25 24 25 25 27 30 31 32 35 38
55 56 55 54 54 54 55 54 50 36 28 37 41 40 41 43 44 49 49 51 43 42 38 36 42 43 41 38 31 32 28 28 29 26 24 25 24 24 24 25 29 31 31 35 38
54 55 55 55 50 56 55 50 36 32 36 37 36 39 39 40 43 45 45 45 39 37 37 31 31 31 29 26 30 28 27 26 24 24 24 25 25 25 25 26 29 31 31 34 38
54 54 54 52 56 55 52 42 32 36 37 40 40 39 36 40 42 45 43 41 40 36 34 30 29 23 23 27 26 27 28 26 22 23 23 24 22 23 27 28 30 32 32 34 37
54 51 51 53 56 54 46 34 37 38 40 39 39 36 39 40 41 42 41 39 36 35 31 28 27 26 25 24 27 24 26 29 27 26 25 25 25 25 31 31 32 32 32 33 36
50 47 49 52 55 52 44 40 41 41 40 39 35 39 36 37 38 39 38 39 35 32 32 28 23 29 26 26 23 26 27 25 27 24 21 22 22 24 28 30 32 32 32 33 36
46 44 51 54 54 48 42 42 41 41 42 39 37 39 35 35 37 37 37 39 40 38 38 30 27 30 27 26 25 22 21 23 26 25 21 20 21 24 25 31 32 33 32 33 35
45 39 51 52 45 45 43 46 41 41 48 46 41 36 34 33 33 36 37 38 41 40 38 38 30 27 28 33 29 27 23 22 22 21 22 21 21 25 27 31 33 33 34 35 36
41 46 51 50 41 41 46 45 46 46 45 43 37 37 40 35 36 38 39 42 42 40 38 37 33 30 29 32 33 31 28 24 26 26 23 20 21 26 28 26 29 32 35 35 37
42 37 44 47 42 41 39 43 43 46 42 41 41 41 39 37 38 37 38 40 41 40 44 39 32 29 26 29 32 30 30 27 26 24 23 23 24 25 27 29 31 33 35 35 38
40 35 38 35 36 37 36 39 41 40 42 41 41 41 38 36 35 37 38 37 38 40 36 30 28 28 27 27 30 31 31 28 25 24 22 22 25 24 26 27 26 28 33 37 37
38 37 37 36 35 34 35 33 34 34 39 40 40 39 39 35 35 36 36 36 36 35 33 31 27 24 19 23 22 21 23 31 30 29 27 28 25 27 28 30 34 36 35 36 33
42 42 35 36 32 31 32 33 33 33 33 37 36 34 35 31 29 33 34 33 34 33 30 25 23 18 16 24 24 20 23 22 20 21 21 16 20 28 31 34 35 36 35 36 32

GFSSW_sfc_dewp_006.txt.gz
Dewpoint
53 53 54 54 55 55 55 55 56 58 58 58 58 58 58 58 57 53 51 53 54 60 64 58 56 52 50 48 42 38 34 32 31 26 26 30 34 36 35 34 34 36 41 44 51
53 52 53 53 53 54 55 55 55 56 57 58 57 57 58 57 52 51 53 56 57 59 58 54 52 49 45 46 40 37 35 35 34 28 28 34 36 36 33 32 32 33 44 51 53
52 52 52 53 53 53 54 54 55 55 56 57 57 57 57 54 47 44 55 58 57 56 57 59 52 48 45 42 39 38 36 37 36 34 34 38 38 37 33 32 32 32 33 44 52
52 52 52 52 53 53 53 54 54 55 55 55 56 57 56 51 36 46 54 55 57 53 54 58 54 45 44 42 41 38 38 37 39 40 39 39 37 35 34 33 34 34 35 39 49
51 52 52 52 52 52 52 53 53 54 54 55 55 55 52 46 42 43 51 50 51 52 52 55 48 44 43 42 42 41 41 41 41 41 41 40 36 34 33 34 34 34 33 35 46
52 52 52 52 53 52 52 52 53 54 54 55 55 55 48 41 43 44 44 44 50 51 51 55 50 45 43 42 42 42 42 41 41 39 36 34 35 34 33 34 32 31 31 31 40
53 52 52 52 52 52 53 52 52 53 54 54 55 52 47 41 43 46 46 42 46 51 49 55 56 45 44 43 43 42 40 38 36 36 36 35 33 32 33 32 31 30 30 31 33
53 53 53 53 52 52 52 53 52 53 53 53 54 49 41 46 45 44 45 46 48 52 51 57 57 47 45 42 35 35 33 33 35 33 33 32 26 30 33 34 31 29 30 35 39
52 52 52 54 54 54 53 53 53 52 52 53 49 46 40 47 45 45 44 44 50 51 54 57 54 47 45 40 34 32 31 30 31 31 32 31 29 28 31 28 28 27 34 36 38
53 52 51 53 54 55 54 52 52 50 50 49 48 42 42 41 45 45 46 44 48 50 49 54 51 46 44 40 37 34 31 30 29 30 30 29 29 30 30 29 27 27 34 37 38
54 54 52 53 53 56 55 51 44 42 45 41 40 40 41 42 46 45 44 42 46 47 45 50 46 43 42 43 39 36 31 32 29 28 27 27 28 28 29 28 26 29 34 36 38
55 54 53 53 55 56 52 45 41 44 38 42 44 41 42 47 43 43 43 43 45 36 44 48 42 44 43 43 40 32 30 29 31 31 27 28 27 28 29 26 26 30 34 36 38
55 54 54 55 55 54 49 44 52 47 40 40 42 42 42 44 42 42 43 43 42 33 42 41 44 44 43 39 37 33 32 33 32 30 30 28 27 28 26 29 31 33 35 37 38
55 54 54 55 52 52 48 51 53 49 35 36 38 41 44 44 40 44 43 43 42 33 41 44 45 44 42 42 41 39 34 33 30 29 26 28 24 27 24 28 31 33 36 37 39
55 54 55 55 52 50 51 52 52 49 21 35 38 44 44 40 41 44 43 43 41 38 42 42 44 44 42 41 42 40 35 33 32 28 25 28 24 25 24 27 30 32 34 36 39
55 55 55 54 54 53 54 52 49 35 23 34 40 38 39 39 41 44 44 49 44 39 41 39 43 45 45 43 40 37 32 30 29 26 24 26 25 24 24 25 29 31 32 36 39
55 55 54 55 50 55 53 48 34 28 35 35 35 37 37 37 39 41 40 41 38 36 36 33 42 38 41 34 33 34 30 29 25 25 24 26 24 25 26 25 28 31 32 35 39
55 54 54 53 56 54 50 39 30 35 32 38 37 36 34 37 39 38 40 40 42 34 35 34 34 31 29 38 36 33 31 26 23 23 23 25 23 23 27 31 29 32 32 36 38
54 50 51 53 55 52 42 33 34 35 37 38 36 32 35 37 40 40 40 39 40 34 32 34 32 26 26 27 36 27 28 29 27 25 25 26 24 26 30 30 31 31 32 35 37
49 46 48 53 55 49 40 35 39 41 39 37 32 35 36 36 38 38 39 41 40 36 33 30 23 28 25 24 24 27 29 26 27 24 22 23 22 24 24 29 31 31 32 34 37
47 43 51 54 54 46 37 36 42 41 40 37 37 35 36 35 39 37 38 40 39 34 32 28 26 28 26 25 23 23 24 25 27 26 22 20 21 24 24 27 31 31 32 34 37
44 40 53 53 44 45 40 45 42 42 47 44 40 38 36 36 37 38 38 37 39 40 35 33 29 25 26 32 28 24 23 24 25 22 22 21 22 25 27 28 32 32 34 34 36
41 47 52 52 42 42 45 43 43 43 44 44 37 38 35 35 37 39 42 41 42 39 37 35 31 29 30 32 33 30 26 24 25 25 22 20 22 26 26 30 32 33 34 34 35
44 40 47 48 46 42 43 41 43 47 45 42 39 39 37 37 38 38 39 40 41 40 44 39 32 28 27 28 30 30 28 26 25 24 23 23 24 29 27 28 31 34 35 35 36
40 37 41 38 40 39 40 43 42 41 43 41 40 37 37 35 36 37 37 37 37 42 36 34 29 29 25 30 31 30 30 27 25 25 24 25 24 27 27 28 28 30 32 35 37
39 37 38 36 35 35 36 36 36 36 38 40 40 39 37 36 36 36 36 36 35 35 33 32 28 24 20 23 22 25 29 28 27 26 25 27 26 27 30 33 35 34 34 36 36
41 42 36 35 32 32 34 34 34 35 37 37 38 38 33 33 32 35 33 33 35 32 30 26 24 23 21 23 22 18 21 30 28 27 28 26 26 27 33 34 35 36 35 35 35

GFSSW_sfc_dewp_009.txt.gz
Dewpoint
52 52 53 53 54 55 55 55 56 57 58 59 60 59 59 59 58 54 51 52 53 57 58 58 57 56 50 49 42 39 36 34 33 29 32 29 35 37 36 35 34 34 40 43 52
53 53 52 52 52 53 54 55 55 55 56 57 57 58 58 58 53 51 53 56 57 57 54 57 54 51 47 47 42 39 38 36 36 32 30 31 37 37 36 35 34 34 38 49 52
52 52 52 52 53 53 53 54 55 55 55 56 57 57 58 54 47 46 55 59 58 56 53 56 58 50 46 44 41 39 37 38 37 36 33 35 39 39 35 37 34 34 35 36 47
51 51 52 52 52 53 53 53 54 55 55 55 56 56 56 48 37 43 53 55 57 54 52 53 56 48 46 43 41 38 38 38 39 40 40 39 39 39 36 37 37 37 36 36 36
52 51 52 52 53 52 52 52 53 54 54 55 55 56 52 47 43 44 49 49 47 52 50 51 52 46 46 44 42 39 40 41 40 41 41 41 40 39 36 36 36 35 36 34 34
52 52 52 52 52 53 53 52 52 53 54 54 54 55 48 41 43 44 44 44 43 50 51 51 52 46 45 43 43 43 42 41 42 41 39 37 39 36 39 36 34 33 33 32 33
53 53 53 53 52 52 52 52 52 52 53 54 54 51 47 42 44 46 46 45 43 47 49 51 54 45 45 43 44 43 41 40 39 39 38 38 35 34 37 34 33 32 30 36 40
53 53 54 53 53 53 52 52 53 53 52 53 53 49 42 47 46 45 44 44 44 47 51 51 54 51 45 42 39 40 37 39 39 34 34 34 33 32 32 33 33 29 34 39 41
53 53 52 51 53 54 55 53 53 53 52 51 49 47 40 47 46 44 43 42 45 51 51 50 51 51 46 39 35 35 37 35 37 35 36 33 31 32 31 31 30 28 35 38 39
54 55 54 52 52 53 55 54 52 51 50 49 47 42 43 41 44 45 45 43 45 50 49 49 50 48 45 42 37 32 34 32 32 32 32 30 30 30 30 31 31 28 35 38 39
55 55 55 53 52 54 54 53 45 44 45 40 40 39 41 41 45 45 44 42 42 48 41 45 45 43 42 43 39 34 33 33 34 31 29 29 28 30 31 30 31 30 36 37 39
55 55 55 54 54 54 54 45 41 41 37 42 42 41 42 45 42 43 43 38 41 40 40 42 42 44 44 43 38 34 33 32 33 31 29 31 30 30 31 31 29 30 36 37 39
54 55 53 53 54 54 51 47 49 47 38 40 40 42 43 42 40 42 41 40 42 36 37 38 42 44 43 43 41 36 35 33 34 33 31 29 29 29 29 29 31 33 37 37 38
55 55 54 54 53 52 49 52 51 48 34 36 37 39 43 44 39 43 42 40 41 35 35 42 44 43 43 41 41 39 35 36 33 34 32 29 26 28 28 27 31 34 37 38 39
55 55 54 54 51 49 50 52 51 46 23 36 37 43 44 38 40 42 43 41 39 33 38 41 46 42 42 41 41 40 40 38 35 31 26 26 26 26 25 25 30 33 37 38 40
55 55 55 53 53 53 53 52 49 33 23 35 39 39 39 40 39 42 40 44 45 35 37 43 46 45 43 42 42 34 35 35 31 27 25 26 26 26 25 24 29 32 35 38 39
55 55 53 53 49 54 53 47 32 27 35 34 35 38 34 36 38 38 37 37 37 33 31 40 43 46 47 37 37 35 38 34 30 26 26 26 25 26 27 26 30 32 33 38 40
55 55 53 52 54 53 50 39 28 34 31 36 36 36 33 35 38 37 35 34 40 36 30 36 37 37 44 40 37 39 38 32 25 24 24 26 25 24 27 31 30 33 34 38 39
55 50 50 51 54 52 42 31 31 35 34 35 34 32 35 35 38 37 35 33 38 38 29 33 34 34 34 35 39 35 37 32 27 26 26 27 27 28 30 30 30 32 35 38 39
49 47 48 52 54 47 36 34 36 38 38 35 28 32 30 33 35 33 35 38 40 40 36 35 26 29 24 30 26 35 33 33 28 25 23 25 23 26 25 27 31 31 34 37 39
48 43 51 54 50 43 34 35 38 44 38 32 34 32 31 33 36 35 35 41 42 38 33 28 27 28 25 26 25 29 33 29 29 27 24 20 22 25 25 26 31 31 34 36 38
42 42 53 51 42 41 38 39 42 40 41 39 38 38 35 35 34 38 37 39 43 38 30 29 28 25 25 31 28 27 28 28 26 23 23 22 24 25 27 29 31 32 33 36 38
41 46 53 51 38 38 41 42 44 42 42 42 38 38 37 37 37 39 39 41 41 38 34 33 30 28 29 31 33 27 24 26 26 25 22 22 24 27 30 33 33 33 33 35 37
43 43 46 47 46 43 42 41 41 46 45 45 37 37 36 37 39 39 41 41 42 39 44 38 31 30 28 28 30 29 26 25 26 24 23 22 23 25 29 31 33 34 35 35 36
42 38 44 40 42 43 44 42 41 41 45 44 40 36 36 36 37 38 41 38 39 43 37 34 30 28 25 30 30 29 29 25 25 25 24 25 24 25 27 29 31 31 32 35 36
39 36 38 37 36 43 42 42 41 41 41 40 38 36 37 37 37 37 37 37 36 35 35 34 29 25 22 26 28 29 30 27 26 26 26 25 25 27 30 31 34 34 34 35 37
41 41 37 37 33 37 38 40 41 41 42 37 38 35 37 34 34 37 37 36 37 33 31 33 26 25 23 24 22 22 24 29 28 28 26 25 28 28 33 34 34 35 35 36 37

GFSSW_sfc_dewp_012.txt.gz
Dewpoint
52 53 52 52 53 53 54 55 55 56 58 59 60 59 60 60 59 54 49 48 49 54 56 54 56 56 55 50 45 41 36 33 34 33 33 30 34 38 38 37 33 34 36 39 47
52 52 52 52 52 52 53 54 54 55 55 56 57 58 59 59 53 50 53 57 57 57 49 53 53 54 51 48 46 41 38 35 36 35 34 34 37 39 39 36 34 32 35 36 38
52 52 51 52 52 52 53 53 54 55 55 55 57 57 58 56 49 46 54 58 59 56 50 51 57 54 50 47 45 42 38 37 37 37 36 37 38 40 39 38 35 33 32 35 36
52 51 51 51 52 52 52 52 53 55 55 55 56 56 58 50 38 48 55 54 57 54 51 47 53 52 49 46 44 40 40 39 39 39 40 39 39 39 41 41 41 39 39 37 35
53 52 51 52 51 52 52 52 52 54 54 55 55 56 53 47 42 48 49 47 46 51 50 46 50 49 48 46 43 42 39 40 40 40 40 41 41 40 41 41 41 40 39 36 34
53 53 52 52 52 52 52 52 53 52 54 55 55 56 48 40 43 44 45 44 42 48 50 46 49 47 46 45 44 42 42 41 40 41 41 41 40 40 39 40 39 38 37 35 35
54 53 54 53 53 53 52 52 52 52 53 54 54 51 46 41 42 43 44 41 42 43 47 47 48 51 46 45 46 43 41 42 41 41 41 41 39 38 39 34 32 32 33 36 40
54 54 54 54 53 53 52 52 53 53 52 53 53 49 42 44 44 44 43 42 44 41 46 47 48 52 50 45 45 43 43 39 39 40 41 38 35 35 34 31 31 30 32 38 40
54 55 54 53 52 53 54 55 53 54 53 52 49 46 39 45 43 43 43 40 44 42 42 45 48 49 49 42 41 42 37 38 37 40 39 36 34 32 31 31 30 30 33 36 39
54 55 55 55 53 52 53 54 55 52 50 48 47 43 41 38 41 41 42 41 38 44 43 46 45 47 48 43 37 36 36 35 36 35 34 34 34 32 32 32 31 30 33 36 37
55 55 55 55 54 52 52 52 45 44 45 38 37 35 38 41 44 42 42 40 40 42 40 43 41 39 43 44 37 33 33 35 35 35 33 35 35 32 34 34 32 31 33 36 37
55 55 55 55 54 54 53 46 43 43 40 42 41 39 42 42 40 40 43 37 38 35 40 38 38 41 45 42 37 37 35 34 34 33 32 35 36 36 34 32 32 31 33 36 38
54 55 55 54 53 53 52 50 51 49 39 39 40 40 40 40 38 39 41 36 34 32 36 36 36 40 46 42 38 37 34 32 33 35 36 33 33 33 29 29 30 29 35 36 37
55 55 55 54 51 52 50 51 50 48 33 35 39 38 41 42 38 39 41 35 36 32 38 34 37 41 45 40 39 37 37 37 37 38 34 34 30 31 29 29 30 32 35 36 38
56 56 55 54 51 48 51 50 50 46 24 35 37 39 39 36 36 38 42 36 34 37 39 35 33 42 41 42 39 36 40 38 39 37 35 35 30 29 27 26 29 33 35 37 39
56 55 55 53 52 51 52 50 47 32 23 35 38 38 37 37 33 40 40 38 41 37 38 32 44 40 43 42 41 39 37 37 35 33 31 31 29 27 26 24 27 33 36 38 39
56 55 53 50 46 54 51 46 32 28 34 35 36 38 34 33 33 38 37 36 36 35 35 34 42 45 44 43 39 38 38 36 34 33 29 26 27 27 27 26 29 32 36 37 39
56 55 53 50 52 54 48 38 29 32 34 37 37 36 32 33 34 38 33 30 38 38 30 33 36 45 44 41 39 38 36 30 26 27 26 26 26 25 27 29 28 31 36 38 39
56 53 51 51 53 51 42 32 31 35 36 36 34 32 30 32 35 36 30 29 37 37 30 34 36 43 43 40 39 40 38 33 27 27 25 26 27 28 28 29 30 31 36 39 39
49 46 46 49 53 49 37 35 35 38 37 37 27 29 28 30 35 31 28 28 33 37 37 34 33 37 36 42 36 40 39 33 30 26 23 24 26 25 25 26 29 31 35 38 39
48 44 49 52 51 41 34 36 38 39 38 33 27 28 27 29 34 29 29 34 34 35 39 35 32 31 33 38 38 38 39 38 32 28 24 21 23 25 26 27 28 30 34 38 39
47 42 52 50 40 39 36 38 41 40 41 35 32 28 26 30 33 35 29 36 33 37 36 34 29 33 31 31 34 37 35 35 32 27 26 24 23 25 27 29 29 31 35 37 39
41 46 50 48 37 37 39 39 39 41 39 33 34 32 30 31 33 35 36 36 38 39 36 32 29 28 32 32 29 35 34 36 32 27 27 25 25 26 31 32 32 32 34 37 38
43 42 46 47 46 41 39 39 39 43 38 40 37 38 34 32 34 33 38 40 42 40 43 37 31 27 26 28 30 31 32 35 35 30 27 25 26 25 29 32 33 33 34 35 38
43 42 43 39 40 41 42 41 40 40 43 44 39 37 33 33 36 38 39 40 41 43 39 36 30 30 29 30 30 29 31 29 30 32 28 28 27 27 27 32 33 33 33 34 36
39 40 40 41 42 42 41 41 40 42 42 41 41 37 35 34 35 37 39 38 38 39 37 35 32 27 26 30 29 28 29 30 31 31 29 28 28 28 28 31 31 32 33 35 35
44 43 40 38 36 41 41 41 42 43 43 43 40 37 36 37 37 40 40 39 38 36 35 35 31 28 26 25 27 27 28 28 28 28 27 27 29 29 30 30 31 34 35 35 36

GFSSW_sfc_dewp_015.txt.gz
Dewpoint
53 53 53 52 52 53 54 54 55 56 58 58 59 60 60 60 59 54 48 48 49 54 55 50 49 54 53 51 48 44 37 34 33 32 32 33 32 33 37 36 34 33 34 37 40
53 53 52 52 52 53 53 53 54 54 55 56 57 58 59 59 53 51 53 56 56 57 48 46 45 47 51 49 46 42 37 34 33 33 33 33 35 37 38 36 35 34 33 36 36
53 53 53 52 52 52 53 52 53 55 55 55 56 57 58 56 49 47 55 58 58 57 50 46 49 53 48 48 45 43 38 36 35 35 36 35 36 37 38 38 37 34 35 36 37
53 53 52 52 53 53 52 52 52 53 55 55 55 56 58 50 36 48 55 54 57 55 51 45 44 48 47 47 44 41 39 38 38 37 38 37 37 37 38 39 39 41 41 40 38
53 53 53 52 53 53 53 52 51 52 53 55 55 56 53 47 43 49 50 46 47 52 49 45 40 43 43 43 46 42 39 38 39 38 38 39 38 37 38 40 40 40 40 40 39
54 54 53 53 53 53 53 53 52 51 51 54 55 56 48 40 42 42 45 45 42 45 47 46 41 40 40 41 42 43 41 40 38 39 39 38 38 38 38 40 38 38 38 37 38
53 54 54 54 54 54 53 53 52 51 51 52 54 51 45 40 40 41 41 40 41 40 44 46 43 42 43 41 41 42 40 40 39 39 38 39 38 37 38 38 36 29 29 32 36
53 54 56 54 54 54 53 53 52 53 52 52 53 49 44 43 43 42 41 40 40 40 41 44 46 43 48 48 42 40 43 40 39 38 38 39 36 35 35 34 30 29 29 35 38
54 54 56 55 55 54 54 54 54 53 52 52 47 46 39 45 42 41 41 38 38 40 40 41 45 44 46 46 42 41 38 38 40 37 36 38 36 34 34 31 30 29 29 34 37
56 55 56 56 55 54 53 53 54 53 51 48 44 42 39 38 39 40 41 40 37 38 38 39 43 42 43 44 37 37 37 35 37 35 38 36 35 35 35 32 32 30 28 33 36
57 56 56 56 56 54 52 51 46 43 47 40 38 36 36 38 40 41 39 39 38 36 36 37 39 36 38 40 38 35 36 34 34 34 35 35 34 34 33 33 33 32 29 33 36
57 56 56 56 55 54 52 47 43 44 40 43 39 39 37 41 38 40 40 37 35 33 34 35 36 37 35 39 42 42 35 33 33 34 34 33 33 33 34 35 35 31 30 33 37
56 56 55 55 54 52 49 48 49 47 40 40 42 40 38 41 36 37 39 37 31 31 31 33 35 38 33 38 41 39 36 31 31 34 34 34 34 35 36 36 33 31 31 34 36
56 55 55 54 50 48 49 51 52 50 33 36 39 40 40 42 39 38 39 36 32 29 30 33 34 36 34 37 41 40 37 33 33 35 32 35 27 29 30 29 30 29 31 35 36
56 56 56 54 50 49 50 50 50 47 26 35 39 41 41 40 35 34 36 38 32 30 36 35 35 36 36 39 43 41 37 35 37 36 37 36 33 29 30 28 29 30 33 36 37
57 56 55 52 50 49 50 50 47 32 25 35 37 37 37 40 35 35 35 37 34 32 37 33 33 37 37 42 43 44 37 38 37 35 31 31 31 26 28 27 27 30 34 36 37
57 56 54 46 44 52 50 46 32 28 34 35 36 38 38 36 36 35 34 35 34 32 33 34 35 39 42 44 46 45 39 35 33 34 26 29 29 28 25 26 27 31 34 36 38
56 56 54 47 50 51 47 37 28 31 32 38 37 37 35 33 31 29 33 33 33 34 34 31 31 37 40 43 40 41 38 28 24 25 25 27 26 26 27 28 29 32 35 37 38
56 55 53 51 53 51 42 31 32 33 37 37 37 35 35 31 29 31 32 33 31 33 34 33 33 39 43 45 41 39 36 33 29 27 25 27 28 27 27 29 28 31 35 37 38
52 49 48 51 53 49 38 34 36 39 39 38 32 30 26 27 30 31 35 33 29 31 36 36 34 39 43 44 43 40 39 32 30 25 23 24 24 25 26 27 28 29 35 37 38
49 44 47 52 52 42 33 35 38 39 39 37 33 27 25 29 31 31 28 28 28 28 37 39 35 35 41 41 39 41 39 36 31 28 24 22 23 27 25 26 28 30 34 37 38
47 40 52 52 40 39 35 37 40 39 40 39 38 26 24 26 31 29 27 25 27 31 37 41 39 35 34 35 39 39 39 35 30 27 27 25 23 25 27 29 29 30 34 37 39
43 45 51 48 36 36 38 38 39 39 39 38 30 29 26 28 28 33 31 29 35 30 37 38 33 35 35 34 37 38 36 36 34 32 28 24 24 26 30 31 30 31 33 37 39
43 42 44 46 44 39 37 37 37 40 39 37 33 29 27 29 29 30 33 33 37 32 43 40 32 30 27 29 36 37 38 35 33 30 28 27 26 25 29 31 32 32 34 37 38
44 41 41 38 40 40 40 39 39 40 40 38 38 31 29 27 28 32 33 34 36 38 36 37 31 29 27 29 32 33 34 35 34 33 29 28 27 27 28 30 32 33 34 36 37
42 36 44 43 40 40 40 38 38 39 37 41 39 35 32 28 28 33 33 36 35 39 38 37 32 30 29 30 29 29 30 32 33 33 32 30 30 30 29 29 31 32 33 34 36
46 44 40 38 38 40 40 38 39 41 42 42 42 37 35 32 32 37 38 37 37 37 37 36 35 30 26 27 30 28 29 29 30 31 30 28 31 32 29 30 31 32 33 33 34

GFSSW_sfc_dewp_018.txt.gz
Dewpoint
53 53 54 54 53 53 54 55 55 56 57 59 59 60 60 60 59 55 50 50 52 55 56 48 47 47 53 52 51 48 41 37 36 35 34 34 33 34 36 36 36 35 33 39 43
53 53 53 53 53 53 54 54 54 55 55 56 57 58 59 59 54 52 55 56 56 55 50 44 43 43 46 50 50 45 41 38 36 35 33 34 35 36 37 37 35 36 36 36 37
53 53 53 53 53 53 53 54 53 54 55 55 55 57 59 57 50 48 57 59 59 57 53 48 45 46 47 48 47 45 42 40 36 35 35 36 36 36 36 37 38 37 39 41 40
54 53 53 52 53 53 53 53 53 54 55 55 55 56 59 52 40 49 54 54 55 54 52 49 43 44 47 45 45 43 43 41 41 39 38 37 38 37 37 38 40 40 41 41 40
54 54 53 53 53 53 53 53 52 52 54 55 55 56 52 46 43 50 50 49 49 51 50 47 43 40 42 42 44 44 44 41 39 39 38 38 38 38 38 38 39 40 40 41 40
54 54 54 53 53 53 53 53 53 53 52 54 55 56 50 41 41 44 47 45 43 44 48 48 44 41 38 39 40 43 44 44 42 38 38 38 38 38 38 38 38 39 39 38 39
54 54 56 54 54 54 53 53 52 53 53 53 54 51 46 40 40 40 41 42 42 40 39 44 44 43 40 38 41 40 40 42 42 40 38 38 37 37 39 39 37 37 36 32 36
55 55 55 56 55 55 53 53 53 53 53 53 53 49 42 44 45 43 40 40 40 39 40 40 44 44 42 46 44 43 40 39 41 41 39 38 35 38 38 37 36 35 29 35 38
56 56 56 56 56 56 54 53 54 55 53 52 48 46 38 46 42 41 41 38 38 38 39 38 41 44 42 41 40 41 37 37 39 41 39 37 35 38 38 36 34 32 29 34 38
58 57 56 56 56 56 53 52 52 54 53 48 44 41 40 37 40 41 41 41 38 38 38 39 39 41 42 39 32 35 38 37 39 40 39 38 35 37 37 34 31 31 30 34 38
58 57 56 56 56 55 52 51 46 45 47 41 40 36 36 39 39 39 40 39 38 37 34 36 36 35 37 38 37 35 35 37 36 38 37 36 35 36 36 35 35 34 32 33 37
57 57 56 56 56 55 52 46 45 46 40 45 43 40 39 40 36 38 39 37 37 34 34 34 33 34 34 36 37 37 37 37 38 37 36 35 35 35 34 34 34 34 33 33 38
57 57 56 56 54 53 50 47 50 47 41 42 43 41 40 39 38 37 38 37 34 33 32 31 32 34 32 32 34 33 38 38 39 38 35 34 33 33 33 33 34 36 35 35 37
57 57 56 55 50 48 46 49 51 50 34 36 40 41 41 42 40 41 39 37 34 31 30 31 31 30 32 31 32 32 36 39 40 40 35 33 28 31 32 34 35 35 31 36 37
57 57 55 53 50 47 50 51 51 47 24 36 39 42 42 40 39 38 40 40 34 31 30 32 31 31 33 34 36 35 39 40 41 41 39 37 32 32 31 33 33 30 30 36 37
57 56 55 53 51 50 51 50 47 33 24 34 38 38 39 40 39 40 37 40 38 34 32 31 35 34 33 35 36 37 38 42 42 40 35 34 33 30 29 29 29 30 33 36 36
57 56 54 50 45 51 50 46 32 27 33 35 35 37 34 37 38 38 37 33 32 31 30 32 36 36 37 36 36 37 37 33 34 34 29 30 30 30 25 27 29 30 34 36 38
56 56 55 49 52 50 47 37 26 28 32 38 37 37 35 37 37 37 36 32 32 33 30 28 25 35 36 35 37 37 36 33 28 28 26 28 28 29 28 28 31 33 35 37 38
56 55 53 51 52 50 42 30 30 34 37 36 37 34 35 34 32 32 32 33 34 32 31 32 31 37 33 35 41 38 33 39 33 24 26 27 28 26 28 28 30 33 36 37 38
53 51 50 52 52 47 38 34 35 38 39 38 34 34 29 30 31 29 27 30 29 32 34 33 31 37 38 40 41 43 41 37 34 25 25 27 26 26 27 28 28 33 35 37 38
49 45 48 53 51 43 33 34 37 39 39 37 36 35 29 27 33 27 28 29 31 30 36 36 34 36 40 39 37 39 40 40 35 30 27 24 24 28 27 29 29 31 35 37 38
48 41 52 53 41 40 36 37 39 39 40 39 39 37 33 27 29 27 27 28 32 30 34 36 35 33 35 39 40 40 39 37 30 29 30 27 24 27 28 29 30 30 36 38 38
44 45 52 50 36 36 38 37 38 39 39 39 38 36 31 26 28 30 31 33 31 34 34 38 34 33 35 38 43 40 40 39 38 34 30 24 24 29 31 29 30 31 36 38 39
45 40 45 46 44 39 37 35 36 40 39 40 37 34 28 25 28 31 30 34 35 33 45 43 37 34 34 33 39 38 40 40 37 32 30 28 24 29 31 30 31 32 35 38 38
45 42 41 37 39 40 39 38 36 36 40 39 36 34 31 26 28 28 31 34 36 36 38 39 38 38 37 37 37 37 37 37 34 34 31 28 27 26 31 32 32 33 36 38 38
43 40 43 41 39 39 39 37 36 39 39 38 36 37 36 27 28 28 31 34 34 35 32 37 36 35 29 33 35 36 37 37 35 33 32 33 32 30 29 32 32 33 35 36 37
48 46 43 40 40 39 40 38 38 39 40 40 38 36 37 31 32 35 34 37 39 34 35 36 35 33 26 29 30 28 32 34 35 35 34 33 33 33 29 31 32 32 35 36 37

GFSSW_sfc_dewp_021.txt.gz
Dewpoint
53 53 52 53 53 53 54 54 55 56 57 59 59 60 61 61 60 56 51 52 53 55 56 48 46 46 48 52 53 51 42 40 39 36 35 37 32 35 35 36 37 36 34 40 47
54 53 53 53 53 53 53 54 54 55 56 56 58 58 60 60 55 54 56 58 58 56 51 48 45 44 43 49 51 48 43 41 40 38 36 36 34 35 36 38 37 37 39 39 47
54 54 53 52 52 52 53 53 54 54 55 55 55 57 59 57 50 49 57 60 60 57 54 52 49 45 46 44 49 48 45 43 41 40 38 36 36 37 37 36 38 38 38 41 40
54 54 53 53 52 52 52 52 53 53 54 55 55 56 59 54 40 50 53 53 55 56 54 51 48 43 45 46 45 46 47 46 45 44 42 38 37 37 37 37 39 39 40 41 40
55 54 54 53 53 53 52 52 52 52 52 54 55 56 54 48 46 51 51 50 51 52 52 51 47 43 40 43 43 44 44 45 45 43 42 40 38 37 38 39 39 39 39 40 41
56 54 55 54 54 53 53 52 52 52 52 52 54 56 51 42 44 46 48 45 45 50 51 50 48 45 40 39 38 41 42 43 45 45 43 39 38 39 39 39 39 39 39 40 40
57 56 56 55 54 54 54 54 52 52 52 51 52 52 48 42 43 44 47 46 44 42 40 44 48 47 43 40 42 44 41 40 40 44 44 43 38 37 38 39 38 38 38 38 36
57 57 56 56 55 54 54 53 53 54 53 52 52 50 44 46 46 44 44 40 41 41 41 41 42 44 43 44 41 41 42 37 39 41 43 41 38 39 39 38 38 38 37 35 38
58 57 56 56 57 56 55 53 53 53 54 53 50 48 41 48 45 44 43 40 39 39 39 38 41 43 43 40 37 40 35 37 38 41 41 40 38 39 39 38 37 36 36 35 38
58 58 57 56 56 56 55 52 51 52 53 50 47 42 43 38 43 43 43 42 39 40 39 39 38 38 39 38 31 30 35 37 37 38 40 40 39 39 38 38 37 36 32 35 38
58 58 57 56 56 56 52 49 44 44 48 43 41 37 36 42 41 42 42 41 40 39 35 37 35 33 35 37 35 35 35 35 37 39 39 38 39 39 39 37 36 33 32 35 38
57 58 58 56 56 56 50 44 45 45 41 45 45 42 39 41 38 39 41 38 38 35 36 34 33 33 36 37 38 36 35 35 36 38 39 38 38 38 38 37 36 36 35 37 39
56 57 57 56 56 53 49 46 49 47 41 41 44 44 43 42 39 39 40 38 36 35 35 32 32 34 33 33 34 35 35 34 33 37 39 39 37 36 36 37 36 36 36 38 39
56 57 56 55 50 49 48 49 49 49 35 35 39 42 42 42 39 40 40 37 36 34 35 33 33 31 33 32 32 30 33 33 32 36 34 40 34 35 35 33 33 33 35 38 39
56 56 56 52 47 46 49 51 50 48 21 35 39 43 42 39 39 39 42 40 37 33 35 32 31 31 30 31 33 30 34 33 33 34 36 38 37 34 33 32 33 33 34 37 39
55 56 55 50 50 51 51 50 47 33 20 34 38 38 38 40 38 40 38 41 42 39 37 33 34 33 31 30 32 35 34 33 36 36 32 34 38 31 31 31 32 33 36 37 38
56 56 54 50 45 51 49 44 32 26 32 34 34 36 34 35 37 37 38 37 35 31 31 34 34 36 38 35 36 36 32 25 26 28 27 34 35 36 30 30 33 30 36 37 39
56 56 54 49 51 50 47 38 26 27 31 37 36 34 34 33 36 36 36 34 37 35 30 26 22 33 36 34 33 34 30 25 19 24 27 37 35 32 34 30 32 34 36 37 41
56 55 53 51 51 49 42 30 27 30 36 37 36 34 34 36 33 33 33 35 34 34 27 27 27 35 33 34 32 33 30 30 33 35 31 34 29 26 29 31 34 35 36 38 40
53 52 51 52 51 47 38 33 32 38 39 38 33 35 30 31 32 35 32 32 32 32 32 32 28 30 33 38 35 35 34 30 32 28 27 28 25 25 27 30 34 35 36 38 40
50 46 51 52 51 43 32 35 35 37 40 37 36 35 35 31 31 30 27 29 31 32 33 34 33 31 32 35 32 36 35 34 35 32 29 25 26 27 27 29 33 35 36 38 39
48 41 52 51 41 39 36 36 39 39 41 39 38 38 37 34 32 30 27 28 32 31 32 36 34 29 31 40 37 35 35 34 30 33 33 25 23 28 29 29 33 35 37 38 39
45 46 51 48 35 36 38 38 38 39 39 39 38 38 37 34 32 31 30 35 36 34 35 37 33 27 33 37 39 37 38 40 38 39 32 23 23 30 29 29 30 35 37 38 39
45 40 45 46 44 39 37 36 36 39 39 40 38 38 36 34 32 31 30 34 35 34 40 38 36 33 32 35 39 36 37 38 38 35 31 29 27 29 28 29 31 36 37 38 39
45 41 42 37 39 40 39 38 36 35 39 40 38 37 35 30 28 29 33 32 34 39 40 39 34 36 36 37 39 38 37 37 37 36 32 27 27 29 29 30 31 36 38 38 38
42 42 43 40 39 40 39 38 37 37 39 38 36 35 36 33 30 30 34 32 33 38 37 38 33 38 35 37 38 38 39 37 37 35 34 33 33 29 32 32 32 36 38 38 38
48 47 44 42 39 38 37 37 38 38 39 40 38 37 35 37 36 37 39 34 38 35 33 35 36 37 28 37 37 35 36 37 37 36 34 32 33 30 31 32 32 35 37 38 38

GFSSW_sfc_dewp_024.txt.gz
Dewpoint
53 54 53 54 53 53 53 53 54 55 56 58 59 61 62 61 61 57 52 52 53 56 55 48 46 45 47 47 52 50 43 40 39 37 36 37 36 35 34 34 37 36 35 38 46
54 54 54 54 53 53 53 53 54 53 55 56 58 58 61 60 56 54 57 59 58 57 50 48 47 47 43 47 50 49 45 43 42 40 38 39 36 35 36 37 37 38 39 45 49
55 54 54 54 53 52 52 53 53 53 54 55 56 58 59 58 51 50 58 60 60 58 53 52 50 47 44 43 47 49 46 44 43 42 41 39 37 36 35 35 36 37 38 40 44
56 55 54 54 53 52 52 52 52 52 53 55 55 56 58 54 38 50 54 55 60 57 54 51 49 44 43 45 46 44 47 47 47 46 45 43 39 39 36 36 38 39 40 40 40
57 55 54 54 54 53 53 52 52 52 52 54 54 56 53 48 47 49 50 52 52 55 53 51 48 44 40 41 42 42 44 45 47 47 46 45 43 40 38 38 39 39 40 39 39
58 56 55 55 55 54 54 53 52 52 52 51 53 55 50 41 46 47 50 46 47 51 52 51 49 46 42 40 39 40 41 42 43 43 45 44 44 39 39 39 39 39 39 39 39
58 58 57 56 55 54 54 54 53 52 52 52 52 52 48 42 44 45 45 46 45 44 45 51 50 48 46 41 42 42 41 42 40 40 42 44 43 43 41 39 38 38 38 39 39
58 59 57 57 55 55 55 54 53 53 52 52 52 50 42 47 47 44 43 43 42 40 41 41 41 41 43 43 40 40 39 36 37 39 41 43 40 42 41 38 38 38 38 39 39
58 58 58 57 56 57 56 54 53 52 54 53 50 47 39 47 46 44 44 42 40 40 40 39 40 40 41 40 37 37 32 34 37 39 40 41 38 41 41 39 38 38 38 37 37
58 58 58 57 57 56 56 53 50 51 52 52 47 44 43 38 44 44 43 43 41 40 40 38 37 37 38 37 30 30 31 33 34 38 39 38 39 41 41 38 38 38 38 35 37
57 57 57 57 56 56 53 49 43 43 48 44 42 39 37 42 43 43 43 41 41 39 35 37 34 32 33 36 36 33 32 33 35 37 38 38 37 38 40 40 39 38 36 33 37
56 57 57 57 56 56 49 43 43 43 40 45 45 42 41 42 38 41 42 38 38 36 36 36 33 33 34 35 37 36 34 32 34 34 36 37 38 39 39 39 39 39 38 33 39
55 56 56 57 56 53 48 45 47 46 41 41 44 43 43 43 40 39 40 39 36 35 35 32 31 33 34 34 34 35 35 32 32 34 33 32 31 36 38 40 39 39 38 36 39
55 55 56 56 50 49 46 48 48 47 34 35 39 41 43 44 40 41 40 38 37 34 34 33 34 32 33 32 34 31 35 35 34 32 28 36 28 32 36 37 38 38 37 37 40
55 55 56 53 47 46 46 50 50 47 14 32 38 43 42 40 40 40 41 39 38 35 36 33 33 33 31 31 32 31 33 31 33 33 32 30 31 31 35 35 37 37 36 36 40
56 55 56 51 50 50 51 50 46 25 15 34 37 38 38 40 39 40 39 41 43 38 36 33 35 33 31 31 33 35 33 32 32 32 27 25 30 29 34 35 35 37 34 36 39
54 56 54 49 47 51 49 44 29 18 31 34 34 36 35 36 36 37 38 37 35 32 30 35 36 36 37 32 33 32 31 24 24 23 20 23 27 27 34 36 34 34 34 37 39
54 56 53 49 51 50 47 36 20 25 31 35 34 35 32 32 35 36 36 34 37 36 33 29 26 35 36 32 31 32 30 23 15 18 16 31 28 30 35 34 34 35 35 38 40
54 54 52 51 51 49 41 30 23 28 34 33 34 32 32 34 34 34 34 32 33 37 30 29 28 33 33 34 32 32 30 29 24 27 27 30 33 35 37 31 33 34 36 38 41
51 51 50 51 51 46 37 33 31 38 38 36 31 35 30 32 34 32 31 31 31 34 34 29 23 31 32 35 35 32 32 28 29 19 18 28 30 29 31 31 34 35 36 40 42
50 45 50 51 49 41 32 35 35 39 38 36 35 35 35 32 32 30 30 31 33 33 35 32 29 30 34 33 29 34 32 32 27 27 23 22 29 31 29 31 34 37 38 40 42
49 38 50 50 39 38 35 36 37 38 40 39 38 38 36 36 31 30 29 28 32 33 31 32 34 27 26 31 35 36 32 32 25 22 32 31 27 29 29 33 35 37 38 40 42
45 45 50 47 33 35 38 36 38 38 39 38 37 38 38 36 33 31 31 32 34 32 34 37 33 27 27 32 35 34 33 36 32 33 26 30 28 31 31 32 36 36 38 40 41
45 37 44 45 44 38 36 37 36 39 38 39 38 39 37 33 35 32 31 34 35 34 41 39 36 31 27 34 37 33 34 34 35 31 27 29 31 28 29 30 35 37 38 39 41
45 40 41 36 39 39 38 38 36 36 39 40 38 37 35 32 32 33 32 32 37 39 39 38 33 35 35 34 36 37 34 35 32 34 32 33 32 33 29 29 35 37 38 39 40
43 41 42 39 40 39 39 38 37 37 38 37 37 36 37 34 30 29 31 32 34 38 38 38 32 33 32 36 37 36 38 36 36 34 35 36 34 30 31 32 36 37 38 38 39
47 46 42 40 39 39 39 38 38 38 39 40 39 38 36 37 36 36 36 35 36 37 35 37 34 34 34 37 37 36 38 34 34 38 36 35 31 31 32 31 36 37 38 38 39

GFSSW_sfc_dewp_027.txt.gz
Dewpoint
55 54 54 53 54 54 54 54 54 54 56 57 59 60 62 62 61 57 53 53 54 56 55 48 46 48 47 47 51 48 42 40 38 37 36 38 36 37 36 33 36 36 39 39 47
56 55 54 54 54 54 54 54 54 54 55 56 57 59 60 61 58 55 57 60 60 58 50 47 46 47 43 45 48 48 44 41 42 40 38 38 37 36 35 36 37 37 40 48 52
57 56 54 54 54 53 53 53 53 53 54 55 55 57 59 58 51 49 59 61 61 58 52 51 50 47 43 44 46 48 44 44 44 43 42 41 39 39 37 35 36 36 38 43 48
58 56 55 54 54 53 53 53 53 52 53 55 55 56 58 54 38 48 54 56 60 57 53 51 49 44 42 44 46 42 45 47 48 47 46 44 42 40 38 37 38 38 40 40 41
59 57 56 55 55 54 53 53 53 52 52 54 55 55 52 47 46 48 53 52 53 56 54 51 47 44 40 41 42 42 43 44 45 47 47 47 45 43 42 41 40 39 40 39 39
60 58 57 56 55 55 54 54 53 52 52 51 53 55 49 39 45 46 48 48 49 54 53 52 49 47 44 40 39 40 40 41 42 43 44 44 44 44 42 41 39 39 39 39 39
59 59 58 57 55 55 54 54 54 53 52 51 52 52 47 42 44 45 44 44 46 50 50 52 51 48 46 42 42 41 39 40 41 40 40 43 40 41 44 45 41 40 39 39 39
58 58 58 57 56 55 55 55 54 53 52 52 52 50 41 46 47 45 43 42 42 44 42 44 48 42 41 43 40 39 37 34 36 40 40 40 35 41 43 43 41 39 38 39 39
57 57 58 57 57 57 56 55 54 52 53 53 49 45 37 45 46 45 44 41 41 40 41 39 41 39 41 40 37 37 31 32 35 39 39 40 36 38 42 42 41 40 39 39 39
57 57 57 57 57 56 56 54 51 51 52 52 47 44 43 38 44 44 44 43 41 40 39 38 39 39 40 38 29 30 32 31 33 36 38 37 36 38 40 41 40 39 39 39 38
57 56 56 56 57 57 54 49 43 42 47 44 42 41 38 43 43 44 43 42 40 38 34 37 33 31 33 36 35 35 32 31 34 36 35 35 36 38 39 39 39 40 40 40 38
55 56 56 56 57 56 49 43 41 42 39 44 45 42 42 43 39 41 42 38 38 35 36 35 32 33 33 33 34 35 34 32 33 34 33 33 32 33 33 34 39 39 40 40 37
53 56 55 56 56 54 48 45 47 46 38 40 43 43 44 44 40 40 40 39 37 35 35 32 30 33 33 32 32 33 32 29 30 31 33 32 29 26 28 33 38 40 40 39 38
52 56 55 55 53 51 47 48 47 46 30 32 39 42 44 44 40 42 41 39 37 35 35 35 35 32 31 31 33 29 33 34 33 33 27 32 23 25 28 30 33 37 40 39 37
52 53 56 55 49 47 46 48 48 42 10 32 39 44 43 40 39 40 42 39 36 36 35 32 34 33 30 31 33 30 33 34 34 31 29 28 27 25 29 28 32 38 39 39 38
51 52 55 51 50 48 49 49 47 28 14 33 38 37 39 40 39 40 40 41 42 38 36 32 36 35 33 32 33 34 32 33 33 31 24 24 26 21 19 24 34 37 38 38 38
50 53 54 50 46 50 49 45 31 19 30 32 32 36 32 34 35 38 37 38 35 31 31 36 36 36 36 32 32 33 32 25 23 23 19 22 23 23 23 31 35 35 36 37 38
51 53 53 51 51 50 46 36 21 25 30 34 34 35 31 33 35 35 35 32 37 37 32 29 28 35 37 32 31 32 31 25 16 16 17 21 22 21 26 26 25 26 32 36 39
50 50 51 52 51 48 40 29 22 26 33 32 32 31 31 31 33 35 35 32 33 32 30 29 25 35 36 34 34 34 30 31 26 23 23 26 26 30 25 34 35 34 35 37 39
48 47 48 52 51 46 37 29 29 35 35 33 29 31 28 29 32 33 31 30 32 33 34 30 23 30 33 35 36 33 31 28 30 18 14 15 21 28 27 25 24 28 35 37 40
47 41 50 52 49 42 33 34 33 39 37 35 33 35 32 31 33 30 28 31 32 32 34 32 29 26 34 33 30 33 31 31 28 24 15 15 13 16 27 28 28 34 37 39 42
45 35 50 50 39 38 35 36 38 39 39 38 37 35 35 34 34 30 30 30 33 34 34 33 32 26 26 32 31 31 29 30 24 21 23 22 21 29 30 30 33 37 40 43 43
41 42 50 47 32 34 38 36 37 39 38 38 38 37 37 36 34 32 31 33 34 33 33 35 32 26 28 31 34 33 34 33 30 29 23 20 17 31 28 34 35 39 41 43 42
42 35 43 43 42 35 36 35 36 39 38 39 38 39 37 36 38 33 32 33 34 33 38 37 35 31 24 29 34 31 33 34 33 28 25 24 22 21 22 31 37 39 42 43 42
45 37 39 35 38 36 36 37 35 36 38 39 37 38 37 34 31 33 34 34 36 38 39 37 32 34 34 32 32 34 35 33 32 31 29 25 24 25 29 37 38 39 40 41 41
42 41 41 39 39 38 37 37 36 35 37 36 37 36 37 36 31 30 33 32 32 37 38 39 32 32 31 33 35 34 35 35 32 32 33 33 32 31 36 35 36 38 39 40 41
48 47 41 40 39 38 38 38 37 38 39 39 38 38 37 37 37 36 36 36 36 36 37 36 34 33 29 37 35 32 34 36 35 35 35 33 34 36 33 33 36 38 38 39 40

GFSSW_sfc_dewp_030.txt.gz
Dewpoint
57 55 54 54 54 54 54 54 54 55 55 56 58 60 61 62 61 58 53 53 54 57 55 49 47 48 46 46 51 47 42 39 38 36 36 38 36 38 37 33 36 36 39 39 48
58 57 55 54 54 54 54 54 53 54 54 56 56 59 60 61 59 56 58 60 59 57 52 48 45 46 43 45 48 48 43 40 41 39 38 38 39 38 38 38 36 37 39 48 52
59 58 56 55 54 54 54 54 53 53 54 55 56 57 59 58 50 49 59 61 61 60 52 51 49 46 42 43 45 46 43 43 44 44 44 42 40 40 38 38 37 37 38 42 51
59 59 57 56 54 54 53 53 53 53 53 55 55 56 57 53 35 47 54 55 59 56 53 50 48 43 41 42 44 40 45 46 47 47 47 45 44 43 39 38 38 40 39 39 40
58 59 58 57 55 55 54 54 53 52 52 54 55 56 52 47 47 49 54 52 53 56 53 50 45 43 39 40 42 41 43 44 43 43 46 47 46 46 44 44 44 43 41 40 39
57 58 58 58 56 55 55 54 53 52 52 51 53 55 48 37 42 45 46 46 50 56 54 52 49 47 43 41 39 40 40 40 41 41 41 42 42 44 44 45 43 41 41 41 40
58 58 58 58 57 55 55 54 54 53 52 52 52 51 46 41 44 45 44 43 44 51 52 53 51 47 46 41 42 41 39 39 40 40 39 41 39 40 41 44 44 44 43 42 41
56 57 57 57 57 56 55 54 55 54 53 52 52 48 39 45 47 45 44 41 42 44 43 45 52 47 40 40 40 39 38 33 36 39 39 40 34 37 40 41 43 44 43 41 41
53 56 57 57 57 56 56 55 55 54 53 53 48 44 36 44 45 45 43 39 40 40 41 40 42 38 39 38 35 38 32 32 34 37 38 40 36 40 40 41 41 42 41 40 40
50 54 56 56 56 56 57 55 53 51 51 52 47 41 41 38 43 44 44 42 40 39 38 38 39 38 38 37 28 28 30 29 31 35 36 35 35 36 38 38 38 40 41 40 40
50 52 54 57 56 56 54 50 44 40 46 41 43 41 38 42 44 43 43 41 40 37 34 37 34 33 35 35 33 33 34 33 33 35 34 33 33 33 33 37 38 39 40 40 41
50 52 54 56 56 56 51 44 42 40 38 43 44 43 43 44 39 41 42 38 38 35 36 34 32 33 33 33 34 34 33 30 32 33 33 32 31 31 32 33 35 38 39 40 41
49 50 53 55 57 54 48 44 47 44 36 38 43 43 44 44 40 40 40 39 36 34 35 31 30 34 33 32 31 31 30 29 28 29 31 30 28 24 24 28 30 31 33 38 40
47 48 50 53 54 51 47 48 48 43 25 30 39 42 44 43 38 42 41 38 37 34 35 34 35 33 32 31 32 29 32 32 31 31 25 31 22 23 25 25 26 28 32 38 40
47 48 49 52 51 48 49 48 48 37 13 32 39 44 44 38 39 40 42 39 35 35 35 32 33 33 32 31 32 30 33 32 33 32 30 29 27 23 24 23 24 30 35 37 39
49 48 49 51 52 49 48 49 44 24 18 33 38 38 39 40 39 40 40 41 41 37 36 33 36 35 32 32 32 34 33 33 35 32 25 25 25 20 19 19 19 30 32 37 39
49 49 50 51 47 50 49 44 29 24 30 31 33 35 34 35 35 37 37 38 35 32 31 35 36 36 36 32 33 35 34 25 23 24 19 23 24 22 20 21 26 27 33 37 39
49 50 50 50 51 50 47 35 19 24 29 34 33 32 30 31 33 35 35 34 37 36 33 29 22 34 36 32 30 31 31 25 17 16 16 21 20 19 23 24 24 25 29 34 37
49 49 49 51 52 49 40 27 23 26 32 32 33 29 30 32 32 34 34 31 30 35 31 29 25 34 35 35 31 34 30 31 28 28 24 23 24 26 27 25 30 30 27 26 33
45 46 46 52 51 46 36 28 28 32 34 33 27 30 27 30 31 33 31 31 32 34 34 31 26 30 33 36 35 34 34 28 29 19 17 18 17 17 20 16 19 24 23 32 37
46 41 48 52 49 41 32 32 32 38 35 33 31 31 30 30 31 30 28 30 32 32 32 33 31 26 33 32 29 33 32 33 29 27 15 12 12 14 13 15 25 32 27 31 39
42 36 49 50 37 38 35 35 38 37 39 38 35 36 34 33 33 31 28 29 32 34 31 32 33 27 26 31 32 31 30 29 23 21 23 19 15 21 26 31 34 36 36 38 41
40 41 50 45 31 33 37 37 38 38 37 37 35 36 37 35 34 34 31 33 34 34 33 33 32 24 25 30 30 32 32 30 29 26 22 18 15 19 20 23 35 38 40 42 41
39 36 41 43 41 35 34 35 36 39 38 39 37 37 36 36 37 34 33 34 34 34 37 36 34 28 23 26 33 31 31 34 32 27 24 26 21 22 24 25 30 38 41 42 41
42 36 38 32 35 35 35 35 34 35 38 40 36 35 36 34 35 35 34 34 35 35 37 36 32 33 33 32 33 34 34 33 31 30 28 25 24 24 25 30 35 39 42 43 42
41 40 42 35 38 34 37 36 36 35 37 36 37 37 38 36 32 30 31 33 32 36 37 39 32 33 31 33 34 32 34 35 34 33 33 30 30 34 35 38 37 38 42 43 42
46 47 43 38 37 36 36 36 36 37 39 37 37 38 37 38 39 38 35 36 36 36 38 36 33 32 28 33 34 32 34 35 35 36 34 31 31 33 37 39 37 40 42 43 41

GFSSW_sfc_dewp_033.txt.gz
Dewpoint
59 59 57 55 54 54 54 54 54 54 55 55 56 58 60 62 62 57 53 53 55 58 55 49 47 47 47 47 51 47 43 40 38 36 36 38 36 38 38 34 38 37 37 42 51
58 59 58 57 55 54 54 54 54 54 55 55 56 57 60 61 58 55 56 59 59 58 52 48 45 45 43 45 49 48 44 41 42 39 38 39 39 39 38 39 38 38 39 46 53
58 58 59 57 56 54 54 54 53 54 54 55 55 56 58 57 50 50 59 62 61 60 53 50 49 45 42 44 46 48 44 43 44 44 45 44 43 41 39 40 40 38 39 41 50
58 58 58 58 57 55 54 53 53 53 53 54 55 55 57 53 41 47 55 55 58 56 52 49 47 42 42 41 44 43 45 47 46 47 46 46 46 46 43 42 39 41 42 42 42
56 58 58 58 58 56 55 54 53 53 52 53 55 55 51 47 47 49 53 51 54 54 53 50 45 42 39 41 43 43 43 44 44 41 42 45 45 45 46 47 46 46 46 45 43
53 56 57 57 58 57 55 54 54 53 52 52 53 54 47 37 42 44 45 45 53 54 53 51 47 45 42 41 39 40 40 40 41 40 41 41 40 44 43 46 46 46 45 44 43
51 53 56 57 57 57 56 55 54 53 52 52 53 50 46 41 45 45 44 43 45 54 53 53 50 46 46 43 43 41 39 39 40 40 39 40 38 39 41 42 42 43 45 46 46
48 50 53 56 56 57 56 55 55 54 53 52 53 48 37 45 47 45 44 42 42 44 48 53 53 49 44 41 39 39 39 34 36 38 39 38 31 37 38 40 41 41 41 43 44
48 49 50 54 56 57 57 56 55 55 54 53 48 42 37 43 43 46 43 39 40 41 43 46 43 40 41 38 34 37 31 34 33 36 38 39 35 38 40 38 39 40 42 43 44
48 49 50 52 54 56 56 55 54 52 52 52 47 42 40 38 43 44 44 42 39 39 39 39 39 38 38 36 27 29 32 31 30 32 35 34 34 35 35 36 36 37 39 40 41
48 49 50 51 53 56 55 50 44 42 47 40 42 39 39 42 44 43 43 41 40 38 35 37 35 33 35 35 33 33 33 31 33 34 34 32 32 33 34 34 34 34 35 36 40
48 48 48 50 53 55 52 45 42 40 37 43 44 45 43 44 39 42 43 38 37 35 35 35 32 33 34 36 35 34 33 29 29 31 32 31 30 30 31 31 32 32 33 35 36
46 47 48 48 52 53 48 45 45 42 35 37 41 41 43 43 40 40 41 39 36 35 35 32 31 34 33 32 32 32 31 30 29 30 30 29 26 22 23 26 28 31 32 33 35
47 46 46 48 48 51 47 47 48 42 24 29 39 41 44 44 38 42 41 39 37 34 35 34 35 33 33 32 32 29 32 31 30 30 25 30 19 19 22 23 24 26 29 31 32
47 47 47 47 48 48 49 49 46 40 11 31 39 44 44 38 37 40 42 39 35 34 35 30 34 34 32 31 32 30 32 31 31 31 29 28 25 22 24 23 24 25 26 29 33
50 50 49 47 49 48 50 48 41 28 14 33 38 39 40 39 39 40 39 40 40 36 36 32 35 34 33 34 33 33 32 32 33 31 26 25 26 22 21 20 21 24 24 30 34
49 49 48 47 43 52 51 45 30 21 30 33 33 37 35 34 36 37 37 36 34 31 31 34 35 36 35 32 33 33 34 25 24 24 21 23 26 23 23 24 24 23 25 26 32
50 49 48 48 51 52 47 36 23 25 28 32 33 34 31 33 33 35 36 34 36 35 32 28 23 34 36 33 31 32 31 25 18 17 17 21 22 21 24 25 24 24 25 29 33
48 46 45 49 51 51 40 29 23 26 32 32 31 30 29 31 32 33 33 32 33 36 31 29 25 33 35 35 32 33 30 31 27 26 25 23 21 22 24 25 25 26 29 30 29
46 45 45 50 51 47 36 31 27 32 34 33 28 29 27 31 31 33 32 32 32 34 34 31 24 28 33 36 35 34 33 28 29 20 17 20 20 18 19 18 17 20 32 33 31
44 40 46 51 49 40 32 31 33 36 34 31 31 30 28 30 31 31 29 30 33 33 35 32 30 26 34 32 28 32 31 33 30 28 20 14 14 17 16 16 19 32 35 37 36
43 34 47 50 34 33 34 34 39 37 38 37 35 34 31 31 31 30 29 29 32 33 32 33 32 27 26 30 32 30 29 30 27 22 26 24 19 20 20 25 32 28 38 41 41
40 41 48 44 31 33 37 37 38 36 37 36 35 36 36 32 31 33 32 34 34 33 32 32 31 25 21 29 30 31 30 30 32 30 26 22 17 20 21 23 26 33 39 42 41
40 35 37 41 40 36 34 35 36 38 38 38 37 36 34 34 35 33 33 35 34 34 37 35 32 26 21 23 32 30 31 32 32 27 25 26 22 22 23 24 26 32 39 42 40
41 37 38 32 36 35 35 35 35 34 38 39 37 35 33 33 32 33 34 33 35 36 36 35 32 31 31 30 31 33 32 33 31 30 27 25 29 28 28 28 32 37 39 42 40
40 40 39 36 37 35 35 34 34 36 35 35 35 35 35 34 33 32 34 33 31 34 35 36 33 33 31 33 33 32 34 34 33 33 32 32 31 31 30 36 37 39 39 42 41
44 46 43 37 36 36 35 34 35 37 37 36 37 36 35 37 38 39 36 35 35 36 35 37 34 32 28 31 33 32 36 37 35 35 32 31 30 32 32 34 38 38 41 43 43

GFSSW_sfc_dewp_036.txt.gz
Dewpoint
58 58 58 59 57 55 54 54 55 55 54 55 55 56 58 61 61 58 53 52 53 58 56 49 46 45 46 44 50 48 35 30 31 31 30 36 33 33 37 36 37 35 36 42 47
57 58 58 58 58 56 55 54 55 54 54 54 55 56 59 61 57 55 55 59 59 58 51 46 44 43 41 43 46 43 37 32 34 35 34 35 36 37 37 35 35 37 39 43 49
54 57 58 58 58 57 55 55 54 54 54 54 55 55 58 57 52 51 58 61 61 59 52 49 46 43 40 43 43 42 38 36 41 40 43 41 41 41 37 36 37 36 37 41 44
51 54 57 58 58 58 56 55 54 53 53 53 55 55 57 52 41 50 55 55 60 58 53 50 46 42 40 38 41 40 41 42 41 44 44 43 43 42 41 38 37 41 42 44 44
49 50 54 57 58 58 57 55 54 54 53 52 54 55 52 45 43 49 52 51 54 56 53 49 44 42 39 39 41 39 37 39 40 42 40 40 39 39 39 42 44 44 45 44 44
48 47 51 53 57 57 57 56 55 53 53 52 53 54 45 37 43 44 45 47 53 54 51 50 46 43 41 40 39 39 40 39 40 40 39 38 37 37 37 38 37 38 40 41 43
48 49 48 51 54 57 57 56 55 54 54 52 53 49 46 37 43 44 44 45 50 53 52 52 48 45 44 41 42 40 38 37 37 37 37 38 35 35 36 36 36 36 36 38 39
49 49 49 50 51 56 57 57 56 55 54 53 53 47 37 44 45 43 43 42 48 51 51 52 52 47 42 41 38 36 36 31 34 36 36 37 28 30 34 35 37 36 35 36 37
47 48 49 50 52 54 56 57 56 55 54 54 47 42 38 43 41 40 42 42 43 43 44 49 47 43 41 39 35 34 29 31 32 34 35 36 33 35 38 36 37 36 37 38 40
47 48 49 50 50 53 55 57 55 54 52 51 46 42 41 37 40 43 42 41 41 41 41 42 39 36 34 34 26 25 29 29 29 30 32 31 32 34 35 34 35 36 36 37 38
47 47 48 49 49 51 53 52 44 43 45 38 40 38 38 42 43 42 41 40 40 40 36 38 36 33 31 32 31 31 30 29 30 31 30 30 29 30 31 31 31 31 32 32 34
47 46 47 47 49 49 52 47 43 42 39 42 43 41 42 42 38 41 41 37 36 34 36 35 33 32 32 33 33 32 30 30 29 30 29 28 26 25 26 26 27 27 26 26 27
46 46 46 47 47 48 47 47 47 43 36 39 41 40 42 42 38 40 39 37 34 34 34 32 30 32 33 32 32 32 30 28 28 28 28 26 24 22 20 21 23 25 26 26 26
47 47 47 47 45 45 45 50 50 45 37 34 38 38 41 41 37 40 39 37 36 32 34 33 32 31 32 31 31 27 28 29 27 27 24 28 20 22 22 22 22 22 23 26 28
49 51 49 49 45 43 48 51 50 43 26 33 38 43 40 36 38 40 41 37 34 33 34 31 33 34 31 30 31 29 30 29 29 28 27 27 27 21 23 22 22 23 23 24 27
48 48 49 48 47 45 51 50 47 33 24 34 38 40 39 35 37 40 39 39 36 34 35 30 34 33 31 32 32 32 31 30 30 30 26 23 26 20 18 19 21 21 21 22 23
47 48 48 46 41 48 51 45 31 29 30 32 32 38 35 34 36 36 37 36 34 32 32 32 32 34 34 31 33 32 33 26 25 25 21 19 20 22 19 21 22 21 21 23 24
48 49 47 45 47 50 48 36 28 27 29 32 33 35 32 33 33 35 35 34 34 32 32 30 27 32 36 33 29 32 31 26 18 13 15 21 19 17 19 22 22 22 24 25 26
49 48 47 47 49 49 39 32 29 27 31 30 32 30 30 31 31 32 33 31 32 33 31 30 27 31 34 33 32 32 31 30 28 26 24 19 16 18 19 20 21 21 23 27 29
45 45 44 47 49 46 35 34 27 33 32 31 28 28 27 29 30 30 29 30 30 33 33 31 30 28 32 35 34 32 30 28 30 19 15 15 15 15 17 18 20 19 23 28 30
44 40 46 48 46 38 33 33 34 33 33 31 29 29 28 29 30 29 29 30 32 32 34 32 29 27 32 31 29 31 32 33 27 25 20 14 13 14 15 16 17 16 26 28 34
42 36 46 48 36 35 34 35 36 35 37 35 34 31 29 30 30 29 28 29 32 34 32 31 30 27 26 26 28 27 27 28 27 23 27 25 21 21 19 19 24 25 24 30 37
40 40 47 47 33 35 37 37 37 35 36 34 34 34 33 30 30 30 31 33 33 33 30 32 31 27 23 30 29 31 28 27 31 30 28 25 20 24 22 21 23 23 25 29 38
40 35 38 40 40 35 37 36 35 39 37 37 35 34 33 32 33 32 32 34 34 33 36 35 30 27 22 26 32 32 31 32 33 29 26 27 25 23 26 26 25 26 28 34 40
43 37 38 35 37 36 35 35 34 34 37 36 34 34 32 31 32 35 33 33 35 35 34 33 32 31 30 29 30 32 33 34 32 32 28 26 27 30 30 32 30 30 35 38 41
39 40 40 36 36 36 36 34 33 35 35 35 33 35 34 32 32 31 32 32 33 34 34 35 33 35 32 31 32 33 35 36 35 35 33 33 32 31 31 32 31 30 33 39 41
44 45 43 38 35 34 33 33 33 36 36 35 35 35 34 34 35 36 38 36 34 33 33 34 34 33 30 32 32 34 37 37 37 37 34 32 31 30 31 32 34 38 40 40 41

GFSSW_sfc_dewp_039.txt.gz
Dewpoint
54 56 57 58 58 58 56 55 55 56 55 55 55 55 57 59 61 57 53 53 52 58 56 49 46 45 44 43 45 46 38 31 29 25 27 29 29 32 32 32 32 32 32 42 45
52 53 55 57 58 58 57 56 55 55 55 54 55 55 56 59 55 53 55 57 58 58 52 46 43 43 41 41 43 43 35 30 26 27 28 30 32 31 31 32 31 34 36 41 46
50 50 53 55 57 58 58 56 55 55 55 54 54 56 56 57 52 50 59 59 60 59 51 46 43 42 40 40 40 40 36 31 30 37 37 35 32 35 34 34 30 30 34 39 43
49 50 49 52 55 57 58 57 56 55 54 54 54 55 55 53 42 52 56 58 61 58 52 47 44 40 38 38 39 37 37 36 36 39 41 40 38 36 36 36 34 35 40 41 41
47 49 49 49 52 54 58 59 56 55 54 53 54 55 52 44 44 52 52 51 54 57 53 47 43 41 38 37 36 37 37 35 37 39 39 40 38 37 38 39 38 39 39 42 42
46 48 50 50 50 52 56 57 56 55 54 53 53 54 46 39 44 46 45 47 48 52 53 50 46 43 40 37 37 37 37 36 37 37 38 37 36 35 34 35 35 36 38 38 41
46 46 49 50 50 51 53 57 58 55 54 53 54 49 44 37 39 43 44 46 50 50 49 50 48 44 43 40 40 39 37 37 36 36 35 36 34 34 35 35 34 34 33 34 35
44 46 48 49 50 51 54 57 58 56 54 53 54 45 39 43 42 42 43 46 50 51 51 51 49 46 44 41 38 36 35 32 31 34 34 34 30 28 31 32 33 33 32 33 33
45 46 48 49 49 50 52 54 57 56 54 53 47 43 38 43 38 38 41 43 45 47 50 51 50 45 43 38 34 34 29 29 29 33 33 34 32 31 36 35 32 33 33 34 34
45 46 48 48 49 50 50 53 56 55 52 49 44 41 40 38 39 39 41 43 42 42 44 44 41 38 38 36 29 28 28 28 27 29 32 31 30 30 31 32 34 34 34 35 34
46 47 47 46 48 48 49 51 49 47 48 41 40 36 39 40 41 39 40 42 41 40 35 37 34 31 31 31 30 28 28 27 27 29 30 29 27 27 28 29 30 31 32 31 32
44 47 47 46 47 47 46 44 45 46 40 41 40 40 40 40 38 38 39 37 38 36 35 36 34 32 31 31 30 31 29 28 28 28 28 27 25 25 25 26 26 26 27 28 29
44 47 48 47 48 47 43 42 49 50 41 40 40 39 40 41 36 38 38 35 34 33 33 33 30 31 31 31 31 30 28 27 26 27 27 25 24 22 23 23 24 25 25 25 26
45 48 49 49 46 44 41 43 50 49 36 35 38 39 41 40 37 39 38 35 34 31 32 32 31 29 30 30 29 27 27 27 26 27 24 27 21 22 21 21 22 22 22 23 25
44 47 47 48 46 41 43 46 50 47 27 36 36 39 40 35 37 38 38 37 32 30 32 31 31 31 30 29 28 27 30 28 28 27 27 26 25 22 18 19 21 22 23 24 25
45 46 48 48 47 44 48 50 46 31 27 33 39 37 36 34 36 38 38 38 35 31 32 31 32 32 31 30 30 31 29 29 29 29 26 23 23 19 15 12 14 18 21 22 21
46 48 48 47 41 47 50 44 30 27 31 33 33 36 34 32 34 37 37 35 33 32 32 32 30 31 32 30 32 31 30 27 26 25 21 17 17 19 18 18 19 20 20 22 21
47 48 47 45 45 48 44 36 28 30 29 30 34 34 32 32 33 33 34 33 32 30 30 28 29 30 33 32 29 29 30 26 18 12 15 18 18 16 17 17 19 20 21 21 23
48 46 47 46 48 45 39 30 33 28 30 31 33 33 32 30 31 33 32 31 31 31 32 29 28 30 33 32 30 30 30 29 26 24 22 17 15 18 18 18 18 18 20 22 22
46 44 44 46 48 45 36 33 29 31 31 32 28 28 27 30 30 30 31 30 30 31 31 31 29 28 31 32 32 30 30 27 31 21 17 14 14 14 16 16 17 18 19 22 26
45 40 45 48 48 40 33 35 32 32 31 30 28 27 26 27 28 28 29 30 31 30 31 32 29 28 30 31 28 30 30 30 26 25 21 16 16 17 19 21 20 17 17 23 26
42 35 47 46 37 36 35 37 34 32 35 33 30 28 28 28 28 28 28 28 31 31 30 31 31 28 25 26 27 27 28 27 27 22 25 27 23 24 24 23 23 24 25 24 26
37 39 47 47 34 34 37 37 34 34 34 33 33 31 30 29 28 29 29 33 32 32 30 31 31 26 26 28 27 29 27 27 29 32 29 26 23 24 24 25 28 28 27 24 27
39 35 40 42 41 36 37 35 34 38 36 34 34 32 31 30 31 29 30 33 33 32 37 35 30 28 23 29 30 34 29 30 34 30 27 27 26 27 27 29 33 30 30 30 30
43 38 38 35 36 34 35 34 33 32 36 35 33 32 31 30 31 31 31 33 35 36 33 32 31 29 28 28 29 32 32 33 34 34 30 30 30 32 32 31 34 36 34 32 32
39 40 41 35 34 33 35 34 35 34 32 32 32 33 32 30 30 30 32 32 31 34 33 35 31 35 31 30 31 34 32 34 37 37 36 35 34 35 32 32 32 33 32 31 37
43 44 43 37 33 33 32 32 32 34 35 35 33 33 32 33 34 34 36 35 33 34 33 34 34 32 28 30 30 32 37 38 37 37 37 32 32 32 32 33 37 39 40 40 40

GFSSW_sfc_dewp_042.txt.gz
Dewpoint
50 52 53 54 56 58 59 58 57 55 56 56 55 56 55 57 59 56 52 54 55 57 56 53 48 45 44 44 44 44 40 35 34 31 29 26 30 31 33 31 30 32 32 44 51
47 50 51 52 53 56 57 59 57 56 56 55 55 55 55 57 55 51 55 58 57 59 50 46 44 44 42 42 42 43 41 38 34 31 30 28 31 31 31 31 31 32 37 44 46
46 47 49 51 50 53 55 58 58 57 56 55 55 55 56 55 51 48 57 58 59 58 53 48 44 42 42 41 39 41 39 35 32 30 39 38 36 35 33 33 33 31 33 39 45
47 45 47 49 50 51 53 55 58 58 56 55 54 55 56 52 41 53 59 59 61 57 53 49 43 41 40 38 38 36 37 37 37 37 40 39 39 38 35 35 37 36 37 40 41
47 46 47 48 51 51 51 53 57 58 56 55 54 55 51 48 46 54 56 56 57 57 53 49 42 40 37 36 36 36 36 36 37 38 38 40 40 39 39 38 38 38 38 39 41
47 47 45 47 49 51 51 52 54 58 57 55 54 55 48 39 45 48 46 46 49 54 54 52 44 43 41 38 35 37 37 36 35 35 37 36 36 37 35 35 35 36 37 38 40
47 47 46 46 48 50 51 51 54 57 57 55 53 50 43 39 39 44 44 45 48 49 52 53 50 45 43 41 41 38 37 37 37 36 36 36 35 35 36 36 35 33 33 34 36
47 46 46 46 48 49 50 51 52 57 57 55 53 48 41 44 44 41 44 45 48 51 51 52 51 47 45 42 39 38 38 35 34 36 35 35 31 33 33 34 34 34 33 33 34
46 46 47 47 48 48 49 50 51 55 57 54 48 45 38 43 40 40 42 43 46 47 52 50 49 46 44 39 36 35 30 31 31 34 33 33 32 34 35 34 34 33 32 32 32
46 47 47 47 48 48 49 49 51 54 55 51 45 42 40 38 38 38 40 43 43 46 48 48 46 42 41 38 31 30 30 30 29 31 32 31 31 32 31 31 31 34 34 34 34
46 45 46 48 48 47 48 47 46 44 49 42 41 37 38 40 40 38 40 42 40 43 38 41 39 36 37 38 36 32 28 27 28 29 28 29 28 29 29 28 29 30 30 32 33
46 44 47 47 48 48 47 40 42 46 42 46 41 39 39 40 37 38 41 39 38 36 35 36 33 33 33 31 31 29 28 28 29 28 27 26 26 27 27 26 26 27 28 29 31
45 44 46 49 48 46 42 41 49 49 39 41 40 38 39 39 37 38 39 38 36 35 35 33 31 33 33 31 30 30 29 28 27 27 27 26 24 24 24 25 25 26 25 26 26
44 45 46 47 46 43 40 42 49 49 33 38 38 39 40 41 36 38 38 36 35 33 34 34 33 29 31 30 30 28 29 28 27 27 24 27 23 23 23 22 22 23 24 25 25
44 44 46 47 45 42 42 46 48 44 22 39 38 41 40 37 38 37 39 36 32 31 33 32 31 31 30 29 29 28 31 29 29 28 27 26 24 23 21 20 20 22 23 24 25
44 45 47 46 47 43 47 47 44 29 22 36 37 37 38 37 36 37 37 39 36 32 32 31 32 32 31 30 30 32 29 30 29 28 23 25 24 23 17 17 17 19 22 24 22
45 47 47 46 41 47 47 43 28 23 36 34 33 34 34 34 36 36 36 34 32 30 32 31 31 31 32 31 32 30 30 21 23 23 19 19 23 21 18 18 19 19 20 21 23
47 49 47 46 49 46 45 36 23 28 34 31 34 33 31 32 34 34 34 32 33 31 32 27 26 30 32 31 29 29 30 22 17 18 20 22 19 17 20 20 19 20 20 22 22
48 46 47 47 48 44 38 29 28 30 30 33 34 32 31 31 32 33 33 31 31 31 31 28 29 31 32 32 32 30 28 29 26 23 18 19 14 15 17 17 18 19 20 22 22
46 44 45 48 46 43 35 33 34 32 32 33 30 29 29 29 31 32 31 30 29 30 31 33 28 29 32 31 31 30 30 27 26 11 15 16 16 16 18 23 25 22 20 21 24
45 38 45 48 47 40 32 33 35 32 33 30 28 26 27 28 30 28 28 30 30 30 31 31 30 28 31 31 29 29 29 29 27 26 18 18 17 21 24 26 26 27 24 25 25
43 35 47 48 37 37 34 37 37 34 35 32 30 27 27 27 29 27 28 29 31 31 29 30 32 28 27 29 30 30 29 27 24 20 25 24 22 25 24 24 26 26 26 26 25
39 39 47 47 32 34 36 37 34 34 34 33 30 30 29 29 28 29 31 33 34 32 31 32 31 21 25 28 27 27 28 29 29 30 26 24 21 24 25 27 29 29 29 29 30
40 35 40 43 42 36 37 35 35 39 35 34 32 31 29 30 30 29 31 34 34 33 38 35 31 27 23 26 30 27 29 28 31 28 26 26 25 27 30 34 36 36 34 35 32
43 37 38 35 37 38 37 36 32 33 36 35 33 31 29 28 29 29 31 34 34 36 33 32 29 29 29 28 28 29 30 31 33 34 30 31 32 34 37 37 36 34 35 35 35
39 39 41 35 34 36 37 34 33 33 33 32 32 32 32 30 31 29 31 32 33 34 32 33 30 31 26 29 29 29 31 32 32 34 36 37 36 36 35 33 37 41 39 39 38
43 43 41 36 35 33 34 34 34 35 36 34 34 33 33 35 34 34 35 33 34 33 32 33 32 31 27 31 31 29 33 35 37 38 37 34 36 36 36 37 40 42 42 42 41

GFSSW_sfc_dewp_045.txt.gz
Dewpoint
47 48 48 51 52 53 54 57 58 59 57 56 56 56 56 56 57 56 52 54 56 61 55 54 49 49 46 43 44 43 38 36 36 35 33 32 29 31 33 30 31 32 39 47 56
48 48 47 47 50 51 52 54 56 58 58 56 56 55 55 57 53 52 54 57 60 60 53 49 48 46 43 42 42 41 39 39 38 36 33 35 37 33 31 31 31 32 44 46 55
47 47 48 46 49 49 51 53 54 56 58 56 56 55 56 55 51 48 58 58 61 59 51 49 47 44 42 42 40 40 40 40 41 38 39 39 37 39 33 34 31 30 34 44 49
48 48 47 47 47 48 51 51 53 55 58 57 56 55 56 52 40 53 58 59 59 57 54 52 49 43 41 40 40 37 39 40 40 39 39 40 41 40 39 35 38 37 37 40 44
48 48 48 48 47 47 49 51 52 54 56 58 55 55 53 47 47 54 60 58 57 57 54 51 48 42 38 38 38 37 37 38 38 38 36 38 39 39 39 39 38 37 38 38 40
48 48 47 47 47 46 48 50 51 53 55 58 55 55 50 43 48 52 52 55 56 56 54 53 46 42 40 39 36 36 37 38 38 38 37 36 36 37 37 37 36 35 35 37 38
48 48 47 47 46 47 48 49 50 51 54 58 56 52 46 43 41 47 46 46 50 52 53 53 52 44 44 40 42 39 37 38 38 38 37 37 35 35 37 38 37 37 35 34 35
47 48 47 47 47 47 48 48 49 50 52 57 56 50 43 46 43 42 44 45 48 51 53 55 54 47 45 41 39 37 37 35 37 37 37 36 32 35 36 36 36 36 36 35 35
47 47 47 47 47 47 48 49 49 50 52 57 51 48 39 45 42 41 42 44 47 52 52 52 53 47 44 39 36 36 31 33 35 34 35 35 33 34 35 34 33 34 35 35 35
47 47 46 46 48 48 49 49 49 49 52 54 46 43 43 38 41 41 40 44 46 50 50 49 47 43 42 38 32 32 32 31 30 32 33 32 32 33 34 32 31 31 34 34 34
46 46 46 46 47 48 47 44 41 42 47 40 40 39 40 41 41 40 40 42 46 47 41 46 39 37 38 39 37 35 32 28 29 30 28 29 30 30 31 31 31 31 31 31 33
45 45 45 45 48 48 46 40 39 44 36 42 44 42 40 39 37 39 41 39 41 40 37 36 34 37 39 39 38 35 29 28 29 29 27 26 26 26 27 28 28 28 29 30 31
45 45 45 46 47 47 43 41 48 46 36 41 45 41 39 41 37 38 41 40 38 37 35 33 31 34 34 33 30 30 29 29 28 28 27 26 25 25 26 26 27 27 27 28 29
45 45 45 46 45 44 41 43 47 46 31 36 41 41 40 42 37 40 41 39 37 34 36 34 34 31 32 32 30 29 30 29 28 27 23 27 22 25 24 22 23 25 26 26 27
43 45 46 46 43 42 43 46 46 42 19 38 41 43 42 40 37 38 41 38 35 34 36 32 32 31 29 31 31 30 32 29 29 27 26 26 23 24 25 21 21 21 23 25 26
44 45 47 45 46 44 47 45 43 28 19 35 40 38 38 37 37 38 38 39 37 34 34 32 33 32 32 31 31 32 30 29 29 27 21 24 23 20 20 18 19 19 21 23 24
46 48 48 47 42 47 46 42 24 20 34 34 36 37 36 35 34 36 36 35 31 28 26 31 31 32 32 31 31 33 28 17 24 24 18 23 24 23 22 21 19 19 19 22 22
48 50 47 47 49 46 44 34 18 22 30 37 36 35 35 35 35 35 34 31 33 31 28 23 21 31 32 31 30 29 28 20 17 18 20 23 22 20 22 23 22 20 20 21 21
50 46 46 48 48 44 37 27 26 34 36 36 35 31 33 33 35 33 33 31 31 32 27 26 26 32 31 32 31 29 28 29 26 21 14 19 17 18 19 25 23 21 22 23 22
45 43 43 48 45 41 35 32 33 38 36 34 32 31 30 31 32 32 32 31 31 32 32 33 28 31 33 33 33 28 30 23 21 7 14 18 17 16 19 23 26 26 26 25 26
39 38 45 46 44 38 31 33 36 37 35 32 30 30 28 31 31 31 30 31 30 30 31 32 29 30 32 30 29 30 31 29 26 24 16 18 19 20 22 25 24 26 28 29 27
40 34 45 47 35 36 33 34 40 36 37 33 29 30 28 30 30 28 27 30 29 30 29 32 31 29 27 30 31 30 28 26 18 17 23 19 22 24 25 26 27 30 33 31 29
39 38 45 45 31 33 35 37 38 37 35 34 30 30 30 29 27 30 31 33 34 31 30 32 31 17 26 27 30 29 29 29 28 29 19 19 21 24 25 27 32 37 38 37 35
40 33 38 42 40 36 37 36 37 39 36 34 29 29 29 29 31 31 32 33 34 34 39 34 30 24 20 24 29 26 28 28 29 26 25 24 24 26 28 34 37 38 37 37 36
40 35 37 34 37 38 38 36 34 33 35 35 31 30 31 29 29 29 33 32 33 37 33 32 26 29 30 30 29 28 29 30 29 29 28 26 29 32 35 38 39 39 40 42 40
39 37 38 36 39 37 38 37 35 35 35 33 33 33 33 31 31 28 32 31 31 33 31 33 24 30 22 28 29 27 30 31 31 31 33 34 34 37 38 40 38 42 42 40 39
43 43 41 35 33 32 32 34 35 36 36 35 34 35 36 37 35 35 36 33 34 32 31 33 31 21 20 28 30 27 31 31 32 35 35 35 36 40 39 41 40 39 38 40 42

GFSSW_sfc_dewp_048.txt.gz
Dewpoint
49 48 48 48 47 48 51 52 54 56 57 59 56 56 56 56 56 54 51 53 53 61 56 53 50 49 48 44 43 42 38 36 36 33 32 35 33 32 32 30 31 33 45 52 56
48 49 48 48 49 48 49 51 52 54 55 57 57 56 56 56 53 49 53 57 58 60 57 49 50 47 44 42 42 39 38 37 38 37 36 35 37 36 32 30 30 41 45 54 56
50 49 48 47 47 48 48 47 51 52 54 56 58 56 56 55 48 48 56 58 58 58 56 52 48 45 43 42 40 40 39 39 41 41 40 39 38 40 37 32 32 35 44 47 54
50 49 48 48 47 48 46 46 47 51 52 55 58 56 56 53 39 51 59 59 59 57 53 51 50 45 42 40 41 38 40 40 42 41 39 38 40 40 39 36 40 40 39 38 45
51 50 49 49 47 47 47 46 48 50 52 54 57 56 53 46 45 50 59 58 55 57 53 50 49 44 40 40 40 38 38 38 39 40 37 37 38 39 39 40 40 38 38 37 39
48 48 48 48 47 47 47 47 48 50 51 53 55 56 49 41 46 50 56 54 55 55 54 53 49 46 39 38 38 37 37 37 38 38 38 37 36 36 37 38 37 37 37 36 37
47 48 48 48 48 48 47 48 48 49 50 52 53 53 47 41 43 51 54 55 56 54 52 53 53 44 43 40 41 39 36 38 37 38 37 38 35 36 37 37 37 37 37 37 35
48 47 47 47 47 47 47 49 49 49 50 51 52 52 42 47 44 43 44 45 49 52 53 54 54 47 44 42 39 37 37 34 35 37 36 36 31 35 36 36 36 36 36 36 37
47 47 46 47 47 47 48 48 49 49 49 49 51 47 38 49 44 42 43 44 50 53 54 55 53 48 43 38 35 35 31 33 34 37 36 35 33 35 35 35 34 34 34 35 36
46 45 46 46 46 47 49 48 48 48 48 49 51 43 41 39 43 41 41 45 49 51 50 50 49 45 43 38 31 33 32 31 31 32 33 33 34 35 34 34 33 33 33 33 34
45 45 45 46 46 49 47 43 37 39 44 39 40 40 40 42 43 42 40 44 49 47 43 46 42 39 41 40 35 33 33 30 29 30 28 27 28 29 30 31 32 32 32 31 32
45 46 46 46 46 47 45 40 38 41 35 42 43 42 42 41 39 40 42 42 45 40 41 42 36 39 41 40 39 36 33 30 29 30 27 27 26 27 27 27 28 28 29 29 31
44 44 45 46 46 45 42 41 45 43 37 37 41 42 39 40 37 38 40 41 41 38 36 35 32 36 35 36 35 30 29 29 29 29 27 27 22 22 25 26 26 27 28 29 29
44 44 44 46 43 44 41 44 45 45 31 35 39 42 42 42 37 40 43 39 38 36 35 34 34 33 34 32 30 28 30 30 29 26 23 27 20 25 25 25 24 23 26 28 28
46 46 47 47 43 41 43 46 45 42 19 37 40 44 42 40 38 38 41 39 35 35 35 32 33 31 30 31 31 29 31 29 29 27 24 25 23 22 24 22 20 21 20 23 27
47 48 49 47 47 43 47 46 43 25 18 34 41 40 38 36 37 39 38 38 38 35 34 31 33 32 31 31 31 32 28 29 29 25 16 22 23 20 19 20 19 19 19 21 24
49 50 49 48 42 46 47 41 23 19 32 33 37 37 35 35 36 37 36 34 31 30 31 31 31 31 33 30 31 30 25 15 15 14 16 24 24 23 24 24 22 22 21 21 22
51 49 47 48 48 46 43 32 18 26 28 37 35 36 35 33 35 35 34 32 33 31 28 26 22 30 31 30 29 28 25 17 12 18 19 23 20 20 24 24 20 21 24 26 26
48 44 45 48 47 44 37 26 27 30 35 35 34 33 35 35 35 33 33 32 32 31 26 24 25 32 31 32 30 28 22 27 21 19 14 19 19 15 22 25 26 26 28 28 29
42 41 44 48 45 43 34 32 33 36 37 35 31 32 31 33 34 32 31 31 30 31 32 30 24 31 32 33 33 28 29 22 17 5 12 17 18 15 17 23 25 27 28 29 31
41 36 44 47 45 38 29 33 35 38 38 32 32 29 31 31 31 30 29 31 31 31 31 31 26 31 32 29 28 30 29 27 24 21 14 17 17 21 20 24 27 28 31 36 38
37 34 44 47 34 36 33 34 39 38 38 36 30 30 30 31 31 29 29 30 31 31 30 32 30 26 29 30 31 30 28 26 18 15 20 18 21 24 24 25 27 27 35 38 38
35 36 46 44 31 33 35 36 39 38 37 34 30 31 31 29 27 30 30 34 33 31 30 31 28 19 25 27 30 28 29 28 26 27 16 20 20 24 25 26 27 35 38 38 38
38 28 35 41 38 36 36 36 36 39 35 32 30 30 29 29 31 31 31 34 35 35 39 35 28 22 20 21 27 22 28 29 26 22 21 22 23 25 26 29 35 38 39 40 41
37 33 36 35 38 38 37 37 34 34 35 33 31 30 30 29 29 31 32 32 34 36 33 31 26 28 29 29 29 28 27 28 24 27 25 25 27 29 32 34 38 40 41 42 42
38 37 38 38 38 35 36 35 34 34 34 33 33 34 32 31 31 30 32 31 30 33 31 31 23 31 22 27 29 26 29 29 29 29 30 29 30 32 34 40 39 39 37 36 37
42 42 41 34 33 31 32 33 34 35 36 35 36 36 36 36 36 35 33 33 33 31 31 32 30 24 19 27 29 25 29 30 30 31 31 30 32 37 38 40 38 35 31 31 33

GFSSW_sfc_dewp_051.txt.gz
Dewpoint
48 49 48 47 48 49 49 49 51 52 54 55 56 59 56 57 57 54 50 52 52 58 58 54 53 50 48 45 43 42 38 36 33 33 33 35 34 35 35 30 31 34 48 50 56
52 50 51 50 48 47 47 47 48 49 52 54 55 58 57 57 53 51 52 55 58 56 57 50 48 47 45 43 42 40 37 37 38 36 36 36 38 37 35 32 30 41 50 56 57
52 52 51 51 50 49 48 48 47 46 48 52 53 56 58 55 46 44 54 57 57 57 57 52 50 46 43 41 40 40 37 38 40 40 41 39 37 40 38 34 33 34 40 46 55
51 50 50 50 48 49 48 48 47 46 47 51 52 55 58 52 36 46 56 57 57 54 54 54 48 44 42 40 41 38 40 40 40 41 40 38 39 39 39 38 40 41 40 38 46
49 49 49 50 49 49 48 48 48 48 47 50 52 54 54 47 43 47 55 59 52 53 53 52 47 44 41 41 40 38 39 39 40 40 39 38 37 39 39 40 41 39 38 37 37
48 48 48 48 48 48 48 48 48 48 49 50 51 53 50 38 43 45 48 55 52 55 53 51 48 46 41 39 40 39 39 38 38 37 38 37 37 36 37 39 38 37 37 37 37
48 47 47 48 47 48 48 47 48 48 49 49 50 49 48 39 43 48 55 53 55 55 53 52 50 46 42 39 40 39 36 37 37 38 37 37 35 36 37 37 36 36 37 37 37
47 47 47 47 46 47 48 48 48 48 49 49 49 49 44 47 45 43 48 53 56 56 54 54 53 46 43 41 39 37 36 34 35 37 37 35 31 35 37 37 36 36 36 36 37
47 46 46 46 46 47 48 49 48 48 49 48 47 45 40 48 44 42 44 44 48 52 54 52 52 47 42 38 35 34 31 33 34 36 35 35 33 35 35 34 34 34 34 35 35
45 45 46 46 47 47 49 48 47 46 46 46 47 43 43 40 43 42 42 49 51 51 51 51 49 45 41 37 31 32 31 31 32 32 34 34 34 35 36 35 35 35 35 34 34
47 46 46 46 46 46 46 42 36 37 42 38 41 41 41 42 43 42 41 46 51 48 44 47 42 39 39 38 35 34 33 31 31 31 28 28 28 28 29 29 30 32 33 34 34
45 44 44 45 46 47 44 39 39 40 33 40 41 42 43 44 39 41 44 44 46 41 44 42 38 41 44 43 40 37 34 32 31 31 28 27 27 28 28 28 28 28 29 29 30
44 46 45 45 46 44 41 41 43 44 34 36 39 40 42 41 39 40 42 44 42 39 37 36 35 43 41 40 39 36 30 29 29 29 27 27 23 23 24 26 26 27 28 29 29
47 47 48 48 43 43 39 44 44 43 24 32 37 41 44 41 37 40 42 42 41 35 36 32 33 37 34 35 32 28 30 30 28 26 23 27 20 23 23 25 26 25 24 26 28
48 49 50 48 45 41 42 45 44 42 16 34 38 46 43 38 38 40 43 40 36 35 34 32 32 32 32 32 31 30 31 29 29 26 23 25 23 21 22 20 20 20 21 22 23
49 49 47 48 47 44 47 45 42 25 20 34 40 40 37 37 38 40 39 38 38 35 33 31 34 32 30 32 31 32 28 28 28 24 16 22 22 18 18 19 18 22 22 24 24
50 49 48 48 42 47 47 41 19 19 32 32 36 36 35 35 38 39 36 33 34 33 31 31 31 31 32 30 31 29 25 15 14 15 16 24 23 22 23 25 25 23 25 27 29
49 48 47 47 47 46 41 29 17 25 28 36 36 35 35 35 37 36 34 34 33 31 29 28 26 30 31 30 29 28 25 17 11 16 19 23 21 19 24 23 22 26 28 30 33
46 42 44 47 47 44 38 27 26 30 34 36 35 33 35 36 37 37 33 31 31 30 26 23 25 32 31 32 30 28 22 26 20 18 15 19 19 13 24 25 26 28 29 31 34
40 41 42 48 46 42 34 30 33 36 36 33 30 34 29 33 34 34 31 32 30 32 32 27 25 31 32 33 33 28 29 22 18 3 10 13 17 13 17 22 26 27 28 31 37
39 37 42 47 43 34 26 32 36 38 38 33 32 31 31 30 32 29 30 31 31 31 31 30 27 31 31 30 29 29 27 26 23 20 12 15 13 21 19 24 26 27 28 35 38
36 32 44 46 31 35 33 34 38 38 38 36 31 31 30 31 30 29 28 30 32 31 29 31 28 28 29 30 30 30 27 25 18 15 19 17 19 24 25 25 26 27 29 37 39
35 37 45 42 28 33 37 37 38 38 38 34 30 30 31 29 27 29 30 34 33 31 30 30 25 18 23 25 29 27 29 27 25 22 17 14 18 24 26 26 28 33 37 40 39
35 28 35 42 39 36 36 36 36 39 35 31 30 31 30 30 32 30 30 35 35 32 39 34 26 22 19 20 26 23 28 28 24 19 20 21 22 24 26 28 32 38 41 41 41
36 35 38 34 36 38 37 37 33 33 34 33 30 29 30 29 30 31 31 32 34 37 33 31 26 28 28 28 29 28 27 28 22 26 19 23 25 26 27 29 34 39 38 36 35
37 35 37 37 37 34 35 33 33 34 34 32 33 34 33 31 31 31 31 30 30 32 32 31 27 30 22 26 29 27 29 29 28 28 28 28 28 29 31 36 40 37 33 32 32
43 42 40 34 33 30 33 33 34 35 36 37 36 36 35 36 36 33 32 32 32 31 31 31 31 25 19 26 28 23 28 28 28 29 29 28 29 36 36 40 38 34 29 28 27

GFSSW_sfc_dewp_054.txt.gz
Dewpoint
53 53 53 53 51 51 50 48 48 47 48 50 52 55 57 59 58 55 50 51 53 57 59 56 56 52 48 46 43 42 38 35 33 33 32 35 33 36 36 31 31 32 46 49 60
51 51 51 52 51 51 50 50 49 48 47 48 49 52 54 58 54 51 53 56 56 56 52 55 53 49 46 44 42 39 37 37 37 35 33 37 37 38 37 36 31 39 46 57 64
50 49 49 50 50 51 49 49 49 48 47 46 47 50 52 56 48 45 54 57 56 55 51 52 51 47 44 42 41 40 36 37 40 39 41 38 38 40 38 35 33 35 38 44 57
50 49 49 49 49 50 50 49 50 48 48 47 46 50 53 53 38 43 52 55 57 52 52 53 47 45 43 40 41 38 40 39 40 41 40 38 39 38 39 37 39 41 41 39 41
49 49 48 48 48 48 48 48 48 48 49 48 49 51 52 48 42 47 53 49 52 52 52 52 46 44 41 41 40 39 39 40 41 40 39 39 37 37 38 40 40 41 39 38 37
48 47 47 47 47 48 47 48 48 48 47 48 49 50 49 42 45 44 44 54 51 52 52 53 48 45 42 41 39 40 39 39 39 38 38 37 37 36 36 38 38 39 38 38 38
47 47 47 47 47 47 47 48 47 48 48 48 48 46 47 43 45 44 49 55 50 53 51 53 49 46 42 39 40 39 36 37 37 37 37 38 35 36 37 37 37 37 37 37 38
47 46 46 46 46 46 47 48 48 49 48 48 48 46 42 48 49 46 47 53 55 56 53 53 51 46 42 41 39 37 36 34 36 37 37 35 30 34 36 37 36 36 37 37 37
47 48 47 47 46 46 47 48 49 49 48 47 46 44 41 49 47 45 43 52 54 55 55 52 51 45 42 37 35 35 31 33 34 36 35 35 33 35 35 35 35 35 35 34 35
47 48 45 44 45 47 47 48 47 46 45 46 44 41 43 41 46 44 42 51 51 51 50 49 47 44 40 37 29 31 30 31 33 32 35 34 33 32 33 36 35 35 35 35 35
46 45 45 44 45 47 45 41 35 35 40 36 37 40 41 45 47 43 42 50 51 48 45 47 41 39 39 38 35 34 32 31 32 31 29 29 28 29 30 29 29 30 30 31 32
43 44 46 47 45 46 43 37 37 39 32 40 40 42 44 47 40 42 44 44 45 42 45 43 37 41 41 38 38 35 33 32 32 31 28 28 26 27 28 29 29 29 29 30 30
47 48 48 48 49 44 40 40 43 43 32 35 39 40 43 46 39 39 42 45 42 41 41 38 40 45 42 40 39 36 33 30 29 29 27 26 24 23 24 26 26 26 27 27 27
48 50 50 49 44 43 38 43 43 43 19 32 37 41 44 45 38 41 44 44 42 38 37 34 40 42 40 38 39 34 32 30 28 27 25 27 21 23 23 22 23 21 21 22 23
50 50 48 48 43 41 42 44 43 41 10 33 38 45 45 40 38 39 44 40 37 39 36 34 37 36 37 37 39 30 31 29 28 26 23 24 22 19 21 18 19 24 26 28 28
49 49 48 45 46 45 45 44 40 25 18 33 39 39 38 38 39 41 41 40 40 34 33 31 33 32 30 32 32 31 28 27 27 24 17 21 21 15 17 20 21 24 27 29 32
48 48 47 47 41 45 44 38 22 19 32 32 35 37 36 36 37 38 37 34 36 32 31 31 31 31 32 30 30 29 27 17 12 14 14 24 22 19 22 23 25 25 28 30 34
48 47 47 46 46 44 41 32 22 28 29 37 36 36 36 36 37 38 35 32 32 32 29 26 26 30 31 30 29 27 25 17 9 15 17 23 21 19 24 21 25 28 29 31 35
45 42 46 47 47 43 37 23 28 31 33 36 34 33 34 37 36 37 34 31 31 30 28 24 26 31 31 32 29 27 21 25 18 15 14 18 18 12 25 25 26 27 28 28 33
38 39 39 46 45 39 31 31 33 36 36 33 31 33 30 35 34 34 33 32 30 32 30 27 25 31 31 33 32 28 28 22 15 3 8 10 15 10 21 24 23 26 27 28 33
38 34 39 48 41 33 29 32 36 38 38 32 32 31 31 31 31 30 29 31 31 31 31 29 28 31 30 28 28 28 26 25 23 19 13 11 7 19 19 26 25 26 28 31 37
35 29 44 44 32 36 33 36 38 38 38 32 31 31 30 30 29 28 28 30 32 31 29 31 29 27 28 30 30 29 27 25 17 15 18 18 17 23 24 25 26 27 31 37 41
33 34 42 40 33 34 37 37 38 37 37 32 29 31 31 29 27 29 29 34 33 31 30 30 25 17 24 26 28 27 28 26 24 22 17 15 15 24 25 26 28 31 40 41 40
34 31 35 41 39 37 36 36 35 38 35 31 31 31 29 30 31 30 30 35 33 32 38 32 26 22 19 20 26 24 28 27 24 21 20 19 20 23 24 27 29 34 39 37 35
35 35 38 31 36 37 36 35 33 33 34 33 30 30 30 29 30 30 31 32 34 38 33 30 26 28 27 26 28 27 27 28 20 24 18 21 24 25 26 28 29 38 36 33 32
36 37 37 37 35 32 33 33 33 34 34 32 33 34 33 31 30 30 31 30 30 31 31 30 26 28 21 27 28 27 29 28 28 27 27 27 27 28 29 32 40 37 33 30 28
42 42 40 33 31 29 31 33 34 35 37 38 36 35 34 36 36 33 32 32 31 30 30 31 30 23 20 25 27 23 28 28 28 29 29 26 27 29 34 38 39 34 31 27 26

GFSSW_sfc_dewp_057.txt.gz
Dewpoint
50 50 51 50 50 51 52 52 51 49 49 47 47 49 50 54 56 55 50 51 54 58 58 54 55 54 48 45 43 43 39 35 35 32 32 34 31 36 36 34 32 33 43 51 60
52 51 51 50 50 50 50 51 51 51 50 48 47 47 48 51 51 50 53 57 56 56 51 54 52 52 48 44 43 41 39 37 36 36 34 36 36 37 36 37 33 43 42 61 63
51 50 50 50 49 48 49 49 50 50 50 49 48 47 47 50 48 48 58 57 57 55 51 54 53 51 46 43 41 40 37 38 39 37 40 39 38 40 37 35 35 36 40 56 62
49 49 49 48 48 48 48 48 48 48 49 48 48 49 48 49 39 45 53 57 58 53 52 52 50 47 45 41 41 39 40 38 39 42 40 39 39 38 39 38 38 41 41 39 59
48 49 48 47 47 47 47 47 47 48 48 48 48 48 47 44 44 48 51 50 53 52 50 51 49 47 43 42 40 39 39 40 41 40 40 39 38 38 38 40 41 41 41 40 38
48 48 48 47 47 47 47 46 47 48 47 48 48 49 45 41 45 50 46 46 51 51 50 52 48 45 43 42 39 40 39 39 39 39 38 37 37 37 38 38 38 39 39 39 39
48 48 48 47 47 46 46 47 48 48 47 48 48 46 43 41 46 49 46 49 52 51 50 52 49 44 42 40 42 39 38 38 37 38 37 38 35 36 38 38 37 37 37 39 39
48 48 48 48 47 47 47 47 48 48 49 49 48 46 38 47 49 48 46 53 52 52 52 53 52 45 42 41 39 38 37 34 36 38 37 36 30 34 36 37 37 37 37 38 38
48 48 48 46 45 45 47 47 48 48 49 47 44 43 37 49 46 47 49 49 51 53 53 53 51 46 42 37 36 36 33 33 34 38 36 35 33 35 36 35 35 35 35 35 36
46 45 44 44 46 45 47 48 47 46 45 45 42 37 39 41 48 46 45 49 50 52 48 47 46 43 41 37 30 33 32 33 31 32 35 35 35 35 32 33 34 34 35 36 36
46 47 47 47 47 46 45 40 34 34 39 34 35 37 42 47 48 44 44 50 50 46 41 45 41 37 39 38 33 33 33 32 33 31 30 31 30 30 31 31 31 31 31 31 31
49 48 49 49 48 48 43 37 37 38 30 39 39 38 44 46 43 43 48 44 45 41 44 42 38 40 40 37 35 34 33 32 32 30 29 28 27 29 30 30 30 30 30 30 29
50 50 50 49 49 47 40 38 43 41 31 36 39 38 44 44 41 40 45 46 43 41 38 36 38 43 40 39 37 35 33 31 31 29 27 27 26 24 24 24 24 24 25 26 27
50 50 48 48 43 44 38 43 43 41 24 32 38 40 45 44 40 41 47 45 43 39 38 37 42 42 41 38 38 36 35 30 28 28 26 27 23 25 22 23 26 27 29 31 33
49 50 48 47 44 41 42 44 43 38 13 34 38 47 45 40 39 40 45 41 39 38 39 34 40 38 38 38 38 36 32 29 28 26 24 24 23 21 20 19 23 26 29 32 35
49 49 49 45 45 44 44 43 38 19 16 33 39 38 38 40 39 42 43 41 40 37 34 33 37 37 34 41 38 34 28 28 26 24 21 20 22 15 18 21 22 25 29 31 35
48 48 46 46 41 45 44 37 19 15 31 32 35 37 37 36 37 39 38 36 36 32 31 34 31 31 32 30 31 30 30 23 18 20 19 24 22 20 21 23 25 28 29 30 34
48 46 47 46 46 44 42 27 17 27 28 36 38 37 36 36 37 37 37 32 32 32 29 27 28 31 32 31 30 27 29 22 12 14 16 23 21 18 24 23 26 28 29 30 33
44 41 43 44 46 41 33 26 29 30 34 36 36 34 35 36 36 36 33 31 31 30 29 25 28 31 32 32 31 28 26 24 20 18 18 18 19 16 24 24 27 27 31 33 33
38 37 38 44 44 40 34 33 35 37 35 32 30 32 31 34 35 33 32 31 31 32 31 28 27 31 31 32 31 29 28 24 21 12 10 8 11 8 21 24 23 27 29 32 37
37 33 39 46 40 37 31 33 37 38 37 32 31 31 32 31 32 30 29 31 31 31 30 29 29 30 31 29 28 28 27 25 22 19 14 7 5 18 19 23 26 27 29 34 41
35 29 40 42 33 36 33 35 38 37 38 32 32 31 30 30 28 28 28 30 32 31 29 31 30 28 27 30 30 29 27 24 20 18 19 19 14 21 22 25 26 28 31 41 41
33 33 40 40 32 32 35 36 38 37 36 31 29 31 31 29 26 28 29 35 33 31 29 29 26 24 26 28 29 29 28 25 23 23 21 18 11 23 25 26 27 29 39 37 34
33 31 35 40 39 36 34 33 33 37 34 31 31 30 29 30 31 29 30 35 34 32 37 31 26 23 22 22 27 26 28 26 25 21 20 20 18 20 22 26 28 34 37 34 32
34 34 37 30 33 36 37 35 32 32 34 33 31 30 30 29 30 30 31 32 34 37 32 30 27 29 27 26 28 28 28 27 23 24 21 20 23 23 25 27 29 38 35 32 29
34 36 38 35 34 31 33 34 33 34 35 32 33 34 32 30 29 29 30 30 30 31 30 30 28 26 22 27 28 27 29 29 28 27 26 26 27 28 29 30 38 36 33 29 27
42 42 39 32 30 28 30 32 33 35 36 38 35 34 32 34 36 33 32 32 31 30 30 31 28 23 21 26 26 24 28 28 28 29 28 27 28 29 32 34 40 36 32 27 26

GFSSW_sfc_dewp_060.txt.gz
Dewpoint
52 52 52 52 51 50 49 49 50 52 52 51 49 48 47 49 51 49 51 51 50 57 58 48 53 54 48 45 44 45 34 31 33 32 30 32 31 32 33 29 30 33 38 51 56
50 50 50 51 50 50 48 48 48 49 50 51 50 49 48 47 45 46 51 56 56 56 53 46 51 52 47 43 41 36 32 28 32 33 31 32 29 33 32 32 31 36 43 59 62
49 49 50 50 49 48 48 48 48 48 48 50 50 49 48 45 41 42 52 58 58 56 49 49 51 51 46 44 40 36 30 33 37 35 34 33 34 37 32 33 31 33 42 57 61
49 49 49 49 48 47 47 47 47 47 48 48 48 49 48 43 32 45 53 59 59 53 49 49 50 49 45 42 40 36 34 35 40 40 39 36 36 35 35 31 36 41 41 44 58
49 49 49 48 47 47 47 47 47 46 47 48 48 48 46 40 36 50 54 53 54 52 49 47 47 46 42 42 41 37 37 37 38 40 39 39 37 35 36 38 39 39 41 40 40
49 49 49 49 48 47 46 46 46 47 48 47 47 47 43 36 37 41 52 47 49 51 48 49 46 46 42 41 39 39 37 37 37 38 38 37 37 38 36 37 36 37 37 37 39
49 48 48 48 48 48 48 48 46 47 48 48 48 44 41 36 45 49 53 48 50 51 46 49 47 45 43 41 41 39 37 36 37 36 34 37 34 35 35 34 33 33 33 35 38
49 48 47 47 47 46 45 46 47 48 48 48 48 43 35 38 41 43 50 46 48 50 48 51 50 45 39 41 40 36 35 32 32 35 37 35 23 32 35 34 33 33 32 34 35
47 47 46 46 45 46 46 47 48 48 48 47 44 40 34 42 45 46 49 46 46 49 50 51 51 43 42 36 36 35 26 27 32 36 32 33 25 29 34 34 33 32 33 34 35
50 49 49 49 48 47 47 47 46 46 44 43 41 39 37 36 46 47 46 48 48 48 48 48 47 43 40 33 25 29 28 29 26 33 36 33 28 32 35 34 33 32 31 32 33
50 50 50 50 51 48 46 42 36 38 40 33 33 35 36 43 48 47 45 46 50 45 40 44 41 38 37 34 29 29 29 26 30 31 31 32 32 33 34 33 32 31 30 30 32
49 50 49 50 49 48 46 37 35 38 30 36 36 38 37 45 41 46 46 47 45 39 38 40 38 39 37 36 33 31 27 27 33 32 31 30 30 31 32 32 31 30 30 30 29
49 49 49 49 48 46 42 38 43 40 32 36 40 37 39 45 39 41 46 46 39 37 39 36 36 37 37 36 33 32 28 31 29 30 29 28 27 28 24 24 26 27 30 32 33
49 49 48 45 42 43 39 44 44 42 32 31 37 39 43 43 39 43 49 47 41 36 38 38 40 39 37 35 33 32 34 33 30 30 26 28 18 24 23 27 29 32 35 36 36
48 49 48 47 43 39 44 45 44 40 21 36 38 45 43 40 41 43 49 42 38 38 39 35 38 40 38 35 36 35 35 31 29 28 26 24 24 20 22 24 27 30 33 36 39
49 48 47 47 44 45 46 44 41 31 22 34 39 37 39 41 40 44 42 44 41 38 37 36 41 39 39 42 37 31 29 28 28 27 26 22 23 15 18 21 26 28 31 34 38
50 47 45 45 41 46 45 41 32 26 34 33 36 37 37 37 37 38 38 38 37 34 34 33 36 37 40 35 38 34 31 29 27 28 23 23 20 17 21 22 25 31 33 34 38
49 47 46 45 47 46 43 36 27 30 33 37 37 38 36 35 37 38 35 33 32 33 34 33 30 35 37 32 31 30 31 30 16 13 15 23 19 17 23 24 27 28 32 36 39
46 44 45 44 47 45 39 31 30 33 35 35 33 31 32 34 36 37 32 31 31 30 30 30 30 31 31 31 31 29 31 25 25 22 21 17 20 21 23 23 27 27 31 36 40
44 42 42 46 46 42 39 33 36 38 35 32 30 31 27 31 31 32 31 31 30 31 30 30 30 31 30 31 30 30 28 27 31 21 15 11 10 13 22 24 26 28 32 36 41
43 41 42 46 44 42 32 35 36 37 36 32 31 30 30 29 31 29 29 31 31 30 30 30 30 31 31 30 28 28 29 26 23 20 17 3 6 19 25 25 26 28 32 39 40
41 40 44 45 40 38 36 37 38 37 37 32 32 32 29 30 28 28 27 30 31 31 28 30 31 29 28 30 30 29 27 24 24 21 22 23 11 18 23 26 26 29 35 39 37
40 40 44 45 38 38 37 36 38 35 33 30 30 31 31 29 28 29 29 34 32 31 29 30 30 27 26 29 30 30 28 26 24 27 28 21 13 23 24 25 26 30 38 38 36
40 38 42 43 41 37 34 34 33 37 33 31 30 30 30 29 30 29 30 33 34 33 36 32 27 24 21 26 30 31 29 27 32 30 22 23 17 21 24 24 29 33 38 37 34
40 37 37 38 37 36 36 35 32 32 35 33 30 29 28 27 28 28 31 32 34 36 31 30 29 29 27 27 28 29 29 28 29 30 31 22 22 20 23 27 30 36 37 34 32
38 37 37 36 34 33 35 34 33 35 35 31 30 33 31 27 28 28 30 29 29 32 30 31 32 30 28 27 28 29 29 29 29 28 28 26 26 27 28 29 33 39 36 32 29
42 41 39 35 33 33 34 34 34 36 38 36 34 33 32 33 35 33 32 31 31 30 30 30 31 30 24 26 27 27 29 29 29 29 28 28 27 28 28 30 37 38 36 30 28

GFSSW_sfc_dewp_063.txt.gz
Dewpoint
51 50 50 50 50 51 51 51 50 49 50 52 52 51 50 48 48 44 45 53 52 55 57 44 52 54 49 45 41 42 37 34 33 31 29 30 31 32 30 27 28 28 35 50 59
51 50 50 50 50 50 49 48 49 48 49 49 50 51 50 48 42 37 47 56 58 54 52 42 49 52 46 44 41 39 37 34 33 32 31 30 31 30 30 28 25 29 42 54 59
50 50 50 50 49 49 47 47 48 48 48 48 49 50 50 47 39 33 48 55 60 55 51 48 46 50 45 43 39 36 29 31 29 34 34 31 30 27 30 26 26 28 33 52 57
50 50 50 50 49 48 48 47 48 48 47 47 48 48 48 42 30 33 52 56 59 54 46 47 40 46 44 41 39 34 32 29 35 37 35 31 30 32 31 29 31 37 40 46 54
50 50 49 49 49 49 48 48 46 47 47 48 48 47 45 38 36 41 53 55 52 54 44 43 38 43 41 41 38 36 33 32 36 39 37 32 30 32 32 35 37 38 39 39 42
50 50 49 49 49 48 48 48 47 46 48 48 48 47 40 34 33 35 46 49 53 52 43 44 40 42 41 39 37 37 36 35 35 39 39 37 32 35 34 34 35 35 35 36 38
49 48 48 47 46 47 47 46 47 47 47 48 48 45 39 33 34 48 52 48 49 52 44 43 42 42 40 40 41 37 34 35 34 35 35 37 34 34 34 35 33 31 32 32 34
51 50 50 49 46 45 45 46 45 47 48 48 48 43 37 35 36 36 46 50 49 55 46 44 45 46 42 39 39 37 35 32 34 35 34 35 27 31 34 32 32 30 28 29 29
50 50 50 50 49 47 45 47 47 47 47 48 44 40 33 40 35 39 47 46 45 52 49 45 49 45 42 38 35 34 28 28 28 32 34 34 26 28 32 31 29 28 28 29 30
49 50 50 50 50 48 47 47 45 46 44 41 40 38 33 32 36 44 50 49 45 51 44 46 47 42 40 34 29 28 27 23 23 32 31 30 29 27 29 32 30 28 28 29 30
50 50 49 49 49 49 46 40 37 38 37 32 33 34 35 38 46 47 48 48 49 43 37 43 41 37 34 32 26 23 25 22 23 33 31 28 28 27 29 31 30 29 27 27 27
50 50 48 49 49 48 43 35 36 38 30 33 34 36 36 43 41 46 49 46 45 37 36 40 37 38 34 32 29 27 25 25 29 30 29 26 28 29 30 30 30 29 29 29 29
50 49 48 46 46 43 39 39 41 39 35 35 38 37 39 44 41 41 45 44 42 34 37 37 38 41 40 34 31 27 25 24 26 31 30 28 27 27 28 27 27 26 28 29 30
50 49 48 47 43 41 39 43 43 42 34 34 35 38 42 43 38 46 47 43 41 35 36 37 40 40 39 35 31 27 27 25 30 28 20 27 10 25 25 26 27 29 32 33 34
50 49 48 47 42 39 43 44 43 41 23 36 39 43 43 40 40 42 49 47 38 38 38 36 38 38 38 37 32 32 34 32 32 30 28 27 23 22 24 25 28 31 34 36 38
49 50 48 44 44 43 45 44 41 32 24 34 39 37 38 40 41 43 43 43 40 37 36 36 40 39 41 38 36 36 33 32 31 29 28 25 23 20 21 23 27 29 31 35 38
49 50 48 43 39 44 45 41 33 28 35 34 36 38 37 39 39 39 38 38 37 33 33 34 34 37 40 36 36 34 33 31 30 29 25 22 21 19 20 23 26 29 31 34 37
49 48 45 43 46 46 43 39 30 32 34 38 37 35 34 33 37 36 34 35 36 36 36 33 30 34 38 37 36 35 34 32 23 20 21 22 19 17 21 22 29 30 33 36 39
49 43 45 44 47 46 40 32 31 34 36 34 33 29 30 33 35 33 32 31 32 32 33 33 32 37 37 34 37 35 34 28 25 21 20 16 18 22 23 23 26 28 32 36 39
43 41 42 45 47 44 40 33 35 37 35 31 28 30 26 29 30 30 30 31 30 30 30 30 31 33 31 31 31 31 30 28 33 23 14 14 12 14 21 24 25 28 32 36 40
43 42 43 46 46 40 34 37 34 35 35 32 29 27 26 28 29 28 28 31 30 29 30 31 30 31 31 31 29 28 30 26 24 20 19 4 7 19 21 22 27 29 33 38 40
43 41 44 47 42 41 38 37 39 35 34 31 31 29 27 28 27 27 26 30 31 30 27 31 31 29 29 30 30 29 27 26 25 21 22 24 14 20 25 26 27 30 34 39 38
39 39 46 47 38 39 37 35 36 32 31 30 29 31 31 28 27 28 29 34 32 31 27 29 31 27 25 28 29 29 28 27 24 28 31 22 17 22 25 26 26 30 36 39 37
39 39 43 41 40 36 32 32 31 36 32 31 30 30 29 28 28 28 29 33 33 32 36 33 27 26 22 27 30 30 28 28 31 31 22 22 18 21 23 25 26 31 37 38 36
38 37 37 39 36 36 35 32 30 30 33 32 29 29 27 26 26 26 30 32 33 35 31 30 28 27 26 26 28 30 29 29 31 30 32 23 21 20 23 25 29 33 38 37 34
37 36 37 36 34 34 34 32 32 32 33 29 29 29 28 25 25 25 28 28 27 31 29 31 32 33 30 27 27 30 28 29 29 29 27 26 26 26 26 28 31 35 38 37 32
38 40 38 36 33 32 33 33 32 35 36 35 31 30 29 31 34 32 31 29 29 28 29 29 32 32 24 26 26 27 28 28 29 29 29 28 27 28 27 30 32 38 39 36 32

GFSSW_sfc_dewp_066.txt.gz
Dewpoint
53 52 52 51 51 51 51 50 49 49 50 50 51 51 51 51 49 43 41 49 53 55 54 46 49 54 55 51 46 43 41 41 42 38 34 33 31 33 32 30 29 28 49 57 63
51 52 51 51 50 50 50 48 48 49 50 50 50 50 51 51 45 40 43 52 57 58 50 43 46 52 51 49 44 38 38 38 39 36 34 34 33 32 30 29 28 31 50 58 62
51 51 51 51 50 49 49 49 48 48 48 47 47 49 50 48 41 35 48 51 57 58 48 47 42 48 48 45 42 39 36 37 35 36 36 34 32 33 30 30 29 27 42 54 59
51 51 51 50 50 49 49 49 48 47 48 48 47 48 48 44 31 44 47 51 58 56 48 49 41 45 45 42 41 36 36 34 34 38 37 34 32 30 29 31 35 40 43 53 54
50 51 51 50 49 49 49 48 48 47 47 47 47 47 45 38 34 36 50 50 52 55 48 46 39 43 42 42 39 39 36 33 35 39 38 34 33 31 32 36 38 39 40 40 46
51 51 50 50 50 47 47 47 47 48 48 47 48 46 41 33 34 33 39 42 50 53 50 43 41 39 39 41 40 38 37 34 35 39 37 34 32 32 32 34 35 37 37 37 39
51 50 50 50 50 47 45 45 45 45 47 46 47 44 39 34 33 47 49 46 48 51 49 44 42 37 42 40 42 38 35 36 34 38 38 39 33 33 33 34 33 34 34 34 34
50 50 50 50 50 49 46 45 46 46 48 47 47 42 37 37 37 35 43 45 45 51 52 45 42 46 42 42 41 39 36 34 34 36 37 36 32 34 35 34 33 32 30 31 32
50 49 49 50 49 49 47 46 47 47 47 46 43 41 32 39 35 34 36 41 43 48 52 49 45 46 43 41 38 38 32 33 32 35 34 34 32 32 33 33 33 31 30 28 28
51 50 49 50 49 49 47 47 45 45 46 40 39 37 35 30 34 33 48 48 45 48 49 47 45 42 41 40 31 32 32 28 28 32 33 34 33 30 31 31 30 29 28 28 29
51 50 48 49 49 48 47 45 39 38 37 32 32 33 33 39 40 40 48 45 48 48 43 44 39 36 37 38 34 30 29 27 27 31 32 32 32 31 29 32 32 30 28 28 29
50 50 49 48 48 47 45 36 37 38 32 33 33 34 38 43 39 43 49 42 44 38 41 40 36 36 37 37 35 30 27 26 26 33 31 30 29 28 28 31 31 31 29 28 29
50 50 49 48 48 46 40 40 42 41 37 35 39 39 43 41 39 42 46 43 39 38 36 34 36 38 35 33 33 28 26 24 26 30 30 28 26 28 29 30 28 28 28 29 30
49 50 50 49 45 42 39 43 44 43 33 35 36 40 45 41 39 46 47 46 42 34 36 36 40 38 39 37 33 31 27 27 29 29 24 28 15 24 27 26 26 26 28 31 33
48 49 50 49 44 39 41 44 44 42 20 34 38 45 44 40 41 40 48 44 38 36 38 36 38 38 36 36 36 30 32 31 31 29 28 26 24 23 26 25 26 29 34 35 36
48 49 50 46 47 42 45 44 43 31 22 34 39 39 39 40 40 43 43 45 40 37 37 36 39 40 39 41 43 37 34 32 31 31 27 27 24 22 23 25 28 31 34 36 38
49 50 48 44 42 46 46 42 33 26 36 33 37 39 37 38 38 40 39 39 36 32 32 36 35 37 40 37 39 38 32 28 26 27 24 23 24 23 24 26 28 29 32 35 38
50 49 47 44 47 46 45 38 26 31 33 38 37 33 33 34 37 37 38 37 38 37 35 32 28 36 37 38 36 34 33 27 19 22 22 22 21 19 23 27 29 32 34 36 39
50 47 46 47 48 47 42 31 31 33 37 35 34 31 30 33 34 34 32 35 37 38 35 33 32 37 38 38 39 36 33 29 25 22 22 20 20 22 22 28 28 29 33 37 40
44 44 45 47 48 46 38 33 36 36 34 32 29 29 27 29 31 31 30 32 31 34 33 33 31 36 38 39 37 38 35 28 28 16 16 16 18 18 21 24 26 29 32 37 40
46 43 46 48 48 42 33 36 35 34 35 31 29 27 26 28 29 28 29 31 31 30 30 32 32 33 34 35 33 34 33 31 25 22 20 12 12 20 22 24 25 29 33 38 40
46 42 47 49 42 42 38 37 39 34 35 32 33 30 28 28 28 27 29 31 32 31 29 33 31 29 30 31 31 30 29 28 25 22 22 22 16 21 22 25 29 30 35 40 38
40 40 49 49 39 40 38 35 36 32 32 31 30 32 31 29 27 29 31 36 34 33 30 31 31 24 25 28 30 29 30 29 28 30 27 23 17 25 26 26 26 30 36 39 38
40 39 44 43 40 38 34 33 32 38 34 31 30 31 30 29 29 29 31 35 36 33 37 35 28 26 23 28 31 27 29 29 29 24 25 24 18 22 25 26 26 32 37 38 37
40 37 37 37 37 36 36 34 31 30 34 33 31 29 28 27 27 27 31 33 33 35 32 32 27 27 26 27 30 31 29 29 27 29 22 25 21 20 23 26 27 34 38 37 35
36 35 35 35 35 34 36 34 32 32 33 30 30 30 29 27 27 26 29 29 29 32 30 32 30 29 25 27 27 27 29 30 30 29 29 28 26 27 27 28 31 35 39 38 35
38 39 37 33 33 33 34 35 34 35 36 34 34 31 30 33 34 32 31 30 30 29 29 30 30 26 22 27 26 23 27 29 29 30 29 27 27 28 29 30 33 38 39 38 34

GFSSW_sfc_dewp_069.txt.gz
Dewpoint
51 51 52 51 51 51 50 50 50 49 49 50 51 50 51 50 51 46 42 47 51 57 53 47 48 51 56 53 47 49 45 41 41 41 40 40 38 32 31 29 33 48 55 62 64
51 51 52 51 51 51 50 49 50 48 48 48 48 49 49 51 47 43 47 50 53 58 49 45 45 51 51 51 45 42 42 38 38 41 41 39 37 38 29 29 34 53 62 63 64
51 51 52 52 51 50 50 49 49 49 48 48 47 48 49 48 42 39 48 53 52 56 54 46 46 51 49 49 45 40 38 40 40 41 45 40 35 35 30 31 30 46 59 62 63
52 52 51 50 51 50 49 49 48 47 47 47 48 47 48 45 31 40 51 54 53 53 52 48 42 46 46 44 45 36 38 38 39 40 44 40 32 31 31 34 39 38 55 59 61
51 50 50 50 49 50 47 48 48 47 47 46 46 47 46 40 38 37 47 49 46 54 50 48 41 43 43 44 42 40 38 36 37 39 38 35 33 32 31 38 38 38 42 55 59
52 50 50 50 50 50 46 46 45 45 47 46 47 47 43 35 37 37 40 38 45 53 49 48 43 44 43 42 42 40 40 39 37 39 38 34 34 32 32 36 36 37 37 37 44
51 50 49 50 50 50 45 44 46 45 45 46 47 45 41 36 37 46 48 47 49 51 49 48 45 40 40 39 42 43 38 39 37 38 38 36 32 32 34 34 34 35 34 35 35
51 50 49 50 49 49 47 43 46 45 47 47 47 44 37 40 39 38 42 43 44 48 51 51 47 44 42 42 42 40 36 34 35 38 38 33 30 34 35 36 34 33 32 33 33
51 50 49 50 50 49 47 45 47 46 45 45 44 42 36 41 39 37 37 35 42 46 52 50 48 43 43 39 37 39 35 34 33 37 37 33 32 33 34 34 33 33 32 31 30
50 50 49 49 49 49 47 47 47 45 45 44 39 37 37 34 38 37 47 45 43 48 48 48 45 40 40 38 31 36 33 32 32 33 34 34 33 33 31 33 33 32 30 30 29
50 50 49 49 49 49 47 44 37 37 38 34 34 35 34 41 43 42 48 44 44 45 42 45 40 36 36 38 36 35 34 30 31 33 33 32 33 33 33 30 30 31 31 29 29
49 49 50 49 49 49 43 37 38 39 34 38 37 38 42 42 38 43 45 39 42 38 42 41 36 37 38 39 38 33 32 30 28 30 32 32 32 34 33 31 31 31 31 30 30
49 49 50 50 49 44 42 42 44 43 36 38 41 40 42 41 39 39 43 42 40 39 38 37 36 38 38 38 37 34 32 29 26 31 30 29 29 31 31 30 31 30 30 29 30
50 49 50 50 44 41 40 44 44 43 32 35 38 41 43 41 39 46 46 45 39 38 38 39 40 37 37 35 34 32 32 30 30 29 26 28 22 24 28 28 27 26 27 29 33
49 49 50 50 44 39 42 44 43 41 20 36 38 45 45 40 39 42 49 45 38 39 38 36 38 38 37 36 39 34 35 30 31 28 27 26 23 23 27 26 26 26 28 33 33
48 49 50 46 47 44 45 46 42 22 19 34 40 39 38 39 40 43 43 47 40 37 37 37 39 40 39 40 41 42 35 32 31 31 24 27 25 22 25 26 26 30 35 36 38
49 50 48 45 42 45 46 41 26 20 33 30 37 39 39 38 39 39 39 38 35 30 31 35 36 38 40 36 39 39 35 28 26 22 21 26 25 24 25 26 28 33 35 37 39
51 51 48 45 46 45 44 34 21 30 32 36 37 37 35 37 38 38 37 36 38 34 32 26 24 37 38 37 35 35 32 23 18 20 22 22 24 23 23 27 31 33 34 37 40
50 46 44 46 47 45 40 26 27 30 35 35 33 32 32 35 36 37 37 36 37 36 30 29 29 37 38 38 38 36 33 31 24 22 20 21 21 21 28 30 31 33 35 38 40
44 42 42 47 47 43 32 29 31 37 37 34 29 29 28 29 31 31 31 35 36 37 38 36 29 36 38 40 39 39 37 29 27 18 17 18 18 19 25 28 29 32 34 38 40
43 41 44 47 45 36 31 29 36 36 36 33 30 28 26 28 29 28 30 31 32 35 36 36 32 34 37 36 35 36 35 32 27 23 18 13 14 20 23 27 27 30 33 39 39
41 36 45 47 37 34 28 35 39 36 36 34 32 30 28 28 27 29 30 31 33 32 30 33 31 29 30 37 35 35 34 33 24 22 21 20 19 22 23 27 27 31 36 40 38
38 38 45 45 32 30 36 38 37 35 33 32 31 32 31 28 26 29 32 36 33 33 30 31 29 22 24 27 30 29 30 33 29 28 24 18 18 23 26 28 30 32 38 39 37
38 33 36 40 38 34 34 34 33 37 36 32 31 31 30 29 28 29 31 34 35 33 39 35 29 25 21 25 29 27 29 29 28 24 24 23 21 25 26 26 26 31 36 39 37
37 34 35 30 35 35 34 34 33 32 34 33 31 30 29 27 26 28 32 33 34 36 32 31 26 26 26 28 30 29 28 29 24 27 21 24 22 24 26 26 26 31 37 37 34
33 32 34 33 34 34 34 33 33 33 33 32 30 32 28 27 28 27 30 30 30 32 30 32 25 25 20 27 27 27 29 30 30 28 28 28 27 27 25 27 34 36 38 37 35
36 36 34 30 31 30 32 31 34 36 36 34 34 34 30 33 34 32 31 30 31 31 30 31 27 23 21 27 25 20 27 28 29 30 28 26 26 28 28 30 35 37 39 38 36

GFSSW_sfc_dewp_072.txt.gz
Dewpoint
51 52 52 52 52 51 51 50 49 49 49 48 49 51 51 51 51 47 43 46 50 56 56 48 48 52 55 52 53 54 45 40 40 43 41 46 45 39 33 37 47 54 58 60 64
52 52 52 51 50 51 50 49 49 48 49 48 48 48 49 51 47 45 48 51 51 55 52 46 45 51 50 51 47 48 44 41 41 43 45 46 46 41 32 38 52 60 62 63 64
52 51 50 51 49 50 50 48 50 46 48 46 47 47 49 49 43 39 46 51 53 52 53 46 47 50 47 49 46 43 40 41 40 40 47 46 46 45 36 30 47 58 60 62 62
52 51 51 50 50 50 49 48 48 47 46 46 46 47 47 46 32 39 46 51 53 49 52 47 47 47 45 45 47 40 40 41 43 49 47 47 48 42 32 35 37 57 61 61 61
52 50 50 50 50 50 47 46 47 47 47 47 47 47 46 40 38 41 48 45 47 49 50 48 43 46 43 44 44 41 39 39 38 44 46 48 46 43 31 38 44 57 59 60 60
50 50 50 51 50 49 45 44 45 46 47 47 48 47 42 34 38 43 44 42 45 48 49 50 41 44 44 44 43 43 41 39 38 37 38 44 43 42 33 35 37 39 50 57 59
51 50 50 51 49 49 46 44 46 45 46 46 47 45 42 36 39 40 40 45 49 49 49 51 44 43 43 39 44 43 39 41 39 38 37 34 36 37 32 34 34 34 35 36 48
51 50 48 51 50 49 47 45 46 46 47 47 46 44 36 41 40 39 42 43 45 50 51 51 49 42 40 41 42 41 39 36 36 38 38 33 30 32 34 34 34 34 39 35 34
50 51 50 49 49 49 48 46 46 46 45 46 45 40 34 41 37 37 37 36 43 48 52 51 49 41 41 38 37 39 34 33 34 37 37 32 30 33 34 33 33 34 33 32 31
51 50 51 50 50 50 49 47 47 45 44 44 42 34 36 34 40 42 48 45 44 48 49 48 45 38 38 36 31 34 33 33 32 35 37 34 33 34 34 32 32 33 33 32 31
50 49 50 51 50 50 46 40 36 34 38 34 34 34 35 42 44 45 47 44 44 45 41 45 40 35 36 36 35 36 34 32 34 34 34 35 34 34 34 32 32 33 32 30 29
50 50 49 51 51 49 42 37 39 38 34 39 39 40 42 42 39 43 45 40 41 38 43 41 36 37 39 38 37 36 34 32 30 31 33 33 33 33 34 34 31 32 32 31 30
49 50 49 51 51 43 41 41 45 42 36 39 40 39 40 42 38 39 44 42 39 37 39 37 36 39 38 38 36 35 32 30 29 31 31 31 30 32 34 32 31 32 32 31 30
48 50 49 50 43 42 40 44 44 42 28 35 38 40 43 41 39 45 47 43 40 36 38 38 38 37 37 37 37 34 33 33 29 29 28 28 24 24 31 32 32 31 29 29 31
48 49 49 50 43 39 40 44 43 40 19 36 38 45 44 39 40 41 48 44 37 37 40 36 38 36 37 36 36 34 39 32 31 29 27 26 24 25 24 29 30 29 27 29 33
49 50 49 46 46 44 46 44 41 21 19 34 39 38 39 39 41 43 42 45 43 38 38 38 39 39 38 40 41 41 33 33 32 32 25 25 25 23 22 25 28 26 27 32 34
49 50 48 46 41 45 46 40 22 20 30 33 36 39 37 37 39 38 38 39 36 31 32 36 36 39 38 34 37 38 31 27 27 27 23 26 25 23 25 26 28 28 33 37 38
50 51 48 45 45 45 43 28 19 28 30 34 36 37 37 37 37 38 36 34 37 33 32 29 30 37 38 35 32 35 34 24 20 21 21 24 25 24 25 24 28 33 36 38 40
49 45 43 45 46 45 35 22 22 25 32 35 34 31 33 38 37 37 36 34 36 35 29 29 29 36 37 39 37 35 33 33 21 21 18 21 22 22 29 30 33 34 36 39 41
42 42 42 46 46 42 31 26 31 35 36 36 29 29 28 31 34 34 34 36 36 37 36 32 30 35 37 39 39 37 38 30 23 14 16 19 19 20 27 29 32 34 37 40 41
42 40 44 47 44 35 26 25 35 38 37 34 30 29 26 27 28 29 29 32 35 35 37 36 29 32 37 35 33 36 35 33 27 23 18 14 16 20 25 29 32 34 37 40 39
38 33 44 46 36 32 27 34 39 36 36 35 32 31 29 28 27 29 29 31 32 32 31 33 30 29 32 37 38 36 35 31 25 24 20 18 15 21 23 29 31 32 36 40 39
37 36 44 43 30 29 35 37 37 34 33 31 31 32 31 28 26 28 32 35 33 32 30 31 26 27 28 29 35 35 36 36 30 25 17 16 16 24 26 27 29 32 37 39 38
36 29 34 37 37 32 33 33 32 36 34 33 30 30 30 28 28 28 31 33 34 32 39 35 29 23 22 22 28 26 29 35 35 27 23 23 21 23 26 27 30 34 39 38 37
34 32 33 26 28 33 34 34 33 32 34 33 31 30 30 27 27 28 32 33 33 37 32 29 25 26 25 29 29 28 28 29 27 30 26 27 23 23 26 27 29 32 35 39 37
30 29 32 30 32 32 33 33 35 34 34 31 30 33 33 27 28 26 31 31 30 32 31 31 23 24 20 27 26 26 28 29 28 27 28 26 27 29 26 27 27 28 37 38 36
34 34 33 27 28 28 28 25 29 34 35 35 35 34 33 31 34 32 31 30 30 31 29 30 26 21 18 26 24 21 25 27 29 29 28 26 26 28 27 26 30 34 37 37 36

GFSSW_sfc_dewp_075.txt.gz
Dewpoint
53 53 52 51 51 50 51 50 50 50 49 49 48 49 49 52 52 47 43 43 49 54 55 48 49 53 55 51 54 54 43 37 38 41 42 46 45 45 44 36 51 58 57 61 64
53 52 52 50 51 50 51 50 49 48 47 48 48 48 49 50 47 45 48 50 51 52 53 46 45 52 51 49 49 49 43 41 41 43 42 46 45 45 43 40 49 57 63 63 65
53 52 50 51 51 51 50 48 48 46 47 46 47 48 48 48 39 39 47 50 51 50 50 48 46 49 49 48 45 45 42 42 41 47 48 46 46 48 42 33 39 56 60 62 62
52 51 51 51 51 51 47 47 48 47 47 46 46 47 47 46 33 43 49 51 51 49 49 46 47 45 46 46 46 41 42 43 46 50 48 46 47 44 45 38 43 43 61 61 61
52 51 50 51 50 50 46 46 46 47 47 46 46 47 45 38 37 41 49 46 47 50 46 46 45 45 42 45 46 40 40 41 48 47 45 45 43 43 44 44 43 51 60 60 60
52 50 50 51 51 49 46 46 46 46 47 47 47 46 41 31 40 42 41 45 48 48 47 48 44 46 43 44 43 43 41 44 45 46 43 44 43 46 44 44 38 58 57 58 59
51 50 49 51 51 49 46 46 47 46 47 47 47 45 41 31 39 44 40 45 47 48 47 51 46 44 44 42 45 43 40 41 40 40 42 45 45 44 44 43 37 43 55 56 58
51 50 50 50 50 49 47 46 47 47 47 47 46 43 33 40 40 40 40 41 45 51 50 52 51 44 41 42 43 40 39 36 38 38 40 42 36 45 46 44 34 34 34 37 42
49 49 50 50 50 50 48 48 47 47 46 46 44 39 32 41 38 38 41 39 42 50 52 50 48 41 40 38 36 38 32 35 35 38 37 34 32 42 45 43 34 33 34 32 32
49 49 50 51 51 50 49 48 47 46 45 44 43 32 33 35 40 44 47 45 44 48 47 48 45 38 37 36 30 33 30 33 33 36 37 34 32 34 34 33 33 32 34 33 32
49 49 48 50 51 50 45 38 35 33 37 38 38 34 36 41 44 45 46 43 44 44 39 45 39 34 35 35 35 35 32 32 34 35 36 34 33 34 35 34 32 32 33 34 32
48 50 48 50 51 49 42 37 39 38 34 40 39 40 42 42 38 42 44 40 40 39 41 40 36 36 39 37 36 35 33 31 32 32 34 33 34 34 35 34 34 32 32 33 30
48 48 48 49 50 43 41 40 44 42 36 39 41 40 40 42 37 39 43 41 38 38 38 36 37 39 38 37 36 34 31 30 30 31 31 31 30 32 34 34 33 33 32 32 30
48 48 49 50 42 41 39 43 43 41 31 35 39 40 43 40 38 44 46 43 39 36 37 38 39 38 37 37 36 32 34 33 29 29 26 30 26 27 30 32 33 33 32 31 30
49 49 49 49 41 38 39 44 43 38 15 37 38 46 43 40 39 40 47 43 37 37 37 36 37 37 36 36 36 33 39 33 32 29 28 26 26 27 24 29 31 33 32 30 30
49 50 49 47 45 44 46 43 39 21 14 34 39 38 40 40 41 42 41 44 43 38 39 38 39 39 38 40 39 40 33 33 34 30 22 27 26 25 24 24 25 30 30 29 33
50 50 48 45 41 45 46 38 22 19 28 29 37 38 37 37 38 37 37 38 35 32 32 37 37 39 38 34 37 36 33 29 26 26 22 26 25 26 25 25 26 27 28 30 35
50 50 49 45 45 46 43 27 18 25 27 33 36 37 36 36 37 38 37 36 37 33 33 29 30 37 38 34 33 34 30 25 19 21 21 26 24 25 27 27 27 28 29 35 37
47 44 43 45 46 44 33 22 19 22 28 34 33 31 35 37 37 36 35 34 35 34 27 26 28 37 38 39 36 34 33 30 22 19 17 21 22 21 24 26 29 32 36 37 39
42 41 42 47 45 40 30 27 31 33 35 36 29 29 27 34 36 36 34 36 35 37 35 30 27 35 37 39 39 36 36 30 25 19 15 18 20 19 22 26 31 35 36 39 41
41 39 44 47 43 34 27 25 35 37 37 33 30 29 27 29 34 32 32 32 35 36 36 33 29 32 35 36 34 36 35 35 32 23 17 16 16 21 21 25 31 34 38 40 40
37 32 43 45 34 31 26 33 38 36 36 35 33 31 29 27 27 28 29 30 33 36 33 35 30 28 31 36 36 35 33 34 24 22 19 17 18 21 22 25 32 35 39 40 40
35 36 43 42 27 28 33 36 37 35 33 31 30 31 30 29 27 28 31 34 33 32 31 33 31 27 29 32 37 35 35 36 33 24 16 17 19 24 26 29 32 34 38 40 39
34 24 31 35 35 30 32 32 33 37 34 33 30 30 29 28 28 27 30 32 33 32 37 35 28 26 23 24 30 32 33 35 35 24 22 21 21 22 25 27 30 33 37 39 38
32 30 30 22 22 31 33 33 33 32 34 33 31 30 31 28 27 27 30 33 33 35 32 30 26 27 26 25 29 28 28 32 32 32 27 27 25 25 24 27 29 33 38 38 37
26 25 30 27 30 29 30 30 33 32 34 31 30 31 33 29 27 26 31 31 29 31 30 31 23 24 21 26 28 26 28 29 33 33 33 31 26 28 26 27 29 32 37 38 38
32 34 31 24 26 24 27 23 25 31 33 35 35 35 33 33 32 33 32 31 30 30 29 29 26 21 19 26 24 21 25 26 29 29 29 27 29 27 27 27 28 30 34 36 38

GFSSW_sfc_dewp_078.txt.gz
Dewpoint
53 52 51 50 49 51 51 51 50 50 49 49 49 48 49 51 52 49 44 40 46 54 54 50 50 54 55 50 53 52 41 36 37 39 39 46 44 45 46 40 40 59 57 60 64
52 51 51 51 50 51 51 49 49 48 47 47 48 49 49 50 48 45 51 52 51 50 51 47 47 48 50 48 50 47 41 38 40 43 43 46 45 46 44 43 43 48 58 63 66
51 51 50 51 51 51 48 48 49 48 48 47 48 48 48 48 39 39 48 52 52 50 51 51 47 46 46 48 44 44 41 42 46 48 48 46 46 47 44 39 40 44 45 57 64
52 50 50 51 51 50 47 48 48 48 48 47 47 49 48 45 32 43 47 52 52 49 51 49 47 44 44 44 45 41 43 43 49 49 47 46 45 43 45 44 45 45 45 54 61
51 50 49 51 50 48 46 47 47 48 48 48 48 48 44 36 36 42 47 46 46 49 47 46 44 42 41 44 43 39 42 46 49 46 44 45 44 43 43 44 44 43 53 59 60
51 49 49 50 50 48 46 47 47 47 48 49 48 47 40 29 40 42 42 42 48 48 47 48 44 44 43 44 42 42 41 46 47 45 45 43 45 45 42 44 44 44 42 58 59
50 49 50 49 50 49 47 47 47 47 48 48 48 46 39 30 40 42 41 44 48 48 46 50 46 44 44 43 46 43 43 42 44 45 44 46 42 44 44 43 44 43 39 53 58
49 49 50 50 50 50 48 48 47 47 47 48 47 42 30 38 40 39 39 40 47 52 50 52 49 44 42 43 43 40 41 38 41 45 45 43 38 44 45 46 45 42 39 37 53
49 48 49 50 51 50 50 48 47 46 45 46 42 39 30 40 38 40 45 39 45 51 51 50 48 41 41 39 37 39 35 34 37 43 45 42 36 42 48 46 45 43 39 34 35
49 48 49 50 51 51 49 48 47 45 44 44 42 31 32 35 41 42 46 44 43 47 46 46 44 37 39 36 30 34 33 34 33 37 41 41 33 43 46 47 45 44 36 34 34
48 49 48 49 51 51 43 37 34 32 38 37 38 34 37 41 44 43 45 42 44 42 38 42 38 34 34 35 34 34 32 32 34 36 36 38 34 40 42 45 45 43 39 33 34
48 49 49 49 51 47 41 36 37 38 33 41 40 39 41 42 37 40 45 40 39 37 39 39 35 35 38 36 36 35 32 30 33 34 35 35 34 35 36 39 40 38 34 33 33
47 48 49 49 50 42 40 40 43 41 34 39 42 41 41 41 38 38 44 41 39 37 37 36 36 39 38 36 35 33 31 30 30 31 33 33 31 33 35 35 35 35 34 33 33
48 48 49 50 41 41 38 43 43 40 24 35 37 39 42 40 36 43 46 42 38 37 37 38 39 38 37 36 35 31 35 33 31 29 28 30 27 29 32 33 34 34 34 33 32
49 49 48 49 40 37 39 44 42 36 13 36 38 46 42 38 36 39 47 43 37 37 37 36 37 36 35 36 36 33 37 33 31 29 27 27 26 27 27 27 31 32 33 34 32
49 49 49 47 44 43 46 42 37 21 14 34 39 39 39 39 40 41 40 44 41 38 39 38 40 38 37 39 37 39 34 33 32 28 26 26 27 27 26 25 26 29 32 34 31
50 50 48 44 40 46 45 36 21 17 27 31 37 37 37 36 37 37 37 37 33 27 33 37 37 39 38 35 37 35 33 24 21 26 23 26 25 26 27 26 26 26 27 31 31
50 50 48 44 45 47 42 27 18 25 27 32 35 37 35 36 35 36 36 34 38 35 34 31 30 37 38 34 34 33 32 23 17 20 20 25 24 24 27 28 28 28 28 29 33
48 43 43 44 45 44 33 20 20 22 27 33 33 34 32 36 36 36 33 34 35 34 29 27 30 37 38 39 36 34 30 27 25 19 16 21 23 23 24 24 25 27 30 31 35
41 41 42 46 45 39 29 27 28 31 33 36 28 29 28 33 33 35 34 35 35 35 33 30 26 35 37 39 38 36 35 29 28 19 17 18 18 20 20 21 25 30 33 35 38
41 38 43 46 42 33 24 23 33 36 37 33 30 29 27 32 33 31 31 33 36 37 35 31 27 32 36 35 34 36 34 32 29 23 17 16 17 21 22 21 21 29 35 38 40
36 30 42 44 32 30 26 31 37 36 37 35 33 31 29 28 30 31 30 31 35 38 34 33 28 25 30 36 36 35 33 34 29 23 20 16 19 21 22 23 24 32 38 40 40
35 35 40 40 26 26 32 34 36 35 33 31 30 31 30 29 27 28 30 33 35 36 32 33 28 25 30 32 36 35 35 34 33 27 17 23 23 22 25 26 31 35 39 40 39
31 24 29 34 33 29 31 31 33 35 35 33 30 30 29 28 29 27 30 32 33 33 39 38 30 25 20 22 29 32 32 34 34 29 26 24 23 23 23 25 29 34 38 40 39
29 28 28 22 21 28 30 32 32 32 35 33 31 30 29 27 28 27 29 31 33 35 34 33 28 28 27 25 30 30 31 33 33 33 30 26 25 26 27 25 27 31 37 39 38
25 24 28 25 27 26 29 29 28 29 31 32 31 33 32 30 28 26 29 30 29 31 31 31 28 26 22 26 28 28 28 30 32 33 33 32 31 32 29 26 27 31 36 38 38
31 33 28 23 24 20 25 24 24 27 26 32 24 22 30 35 34 32 31 32 30 31 29 29 27 23 20 25 24 21 25 27 28 32 32 30 32 30 29 29 28 31 36 37 38

GFSSW_sfc_dewp_081.txt.gz
Dewpoint
53 52 50 52 52 52 51 49 49 49 49 49 49 50 50 51 52 51 45 42 45 54 55 52 52 54 53 53 53 50 43 39 37 36 39 45 43 46 46 42 45 53 56 61 65
52 51 51 51 52 50 49 49 49 49 49 47 48 49 50 50 46 42 48 55 54 52 51 48 48 49 50 50 51 47 42 38 39 42 44 45 45 46 43 38 41 43 44 47 66
52 50 51 51 50 49 48 49 49 49 48 48 48 48 49 49 41 40 51 53 54 52 52 51 46 46 46 48 47 47 42 43 47 47 46 45 45 46 43 38 43 44 44 47 60
52 50 50 51 50 48 47 49 48 48 49 48 48 48 47 44 32 43 52 53 52 51 51 49 46 44 44 44 45 44 44 45 48 48 46 45 45 42 44 44 45 45 45 50 51
52 49 50 49 49 48 47 48 48 48 49 49 48 47 43 35 34 41 46 48 45 50 48 47 43 43 42 44 43 40 44 47 48 44 44 45 45 43 43 44 44 45 45 46 57
51 50 51 49 49 49 47 48 47 48 49 49 49 47 39 30 37 42 42 43 46 48 48 49 44 43 42 44 42 41 45 47 45 44 45 43 45 45 43 44 44 44 44 45 52
51 50 49 51 50 49 49 48 48 48 48 49 48 43 36 31 38 40 40 40 47 49 46 49 47 44 44 43 45 43 43 43 45 44 45 42 40 42 45 45 44 45 45 44 40
49 50 48 49 50 50 50 48 47 48 48 48 47 40 30 36 41 40 40 40 46 50 49 51 47 44 43 44 44 41 41 38 42 43 46 40 37 39 46 45 44 45 44 44 40
49 50 49 49 50 51 50 48 48 47 46 46 42 38 31 39 38 41 46 40 45 49 50 52 47 43 41 40 39 39 35 35 40 43 45 41 37 39 46 45 44 44 44 44 42
48 50 49 49 50 51 48 47 47 44 42 42 42 30 33 37 41 43 46 44 44 46 44 47 43 40 40 37 31 34 35 35 36 42 43 41 40 42 44 45 44 43 44 44 43
47 48 50 48 50 51 41 37 33 32 39 37 37 35 36 41 43 42 45 41 44 42 36 43 38 35 36 35 34 34 34 32 34 38 41 41 39 40 44 44 45 44 43 43 43
48 48 49 48 50 47 40 35 36 37 34 41 41 39 41 42 36 39 45 39 40 37 38 37 35 35 37 37 36 34 33 33 33 36 38 38 39 38 43 43 44 44 42 42 38
48 48 50 48 50 42 39 39 43 42 35 38 42 41 41 41 39 38 44 40 38 35 37 35 37 38 37 36 35 34 32 32 31 32 34 35 34 35 37 41 43 44 43 42 38
48 48 48 49 41 40 38 43 42 39 29 36 38 39 42 40 35 43 45 41 38 36 37 38 39 37 36 34 34 32 34 33 31 31 31 30 29 31 35 38 38 39 39 38 36
48 48 47 49 40 37 39 44 41 34 17 35 39 47 42 34 36 37 46 42 36 36 37 36 37 37 36 36 34 33 36 33 31 29 29 28 28 28 30 33 34 35 36 36 36
49 48 50 47 44 43 46 41 36 22 16 34 39 38 38 39 39 39 40 42 41 37 38 38 40 38 37 39 37 37 34 33 32 29 26 27 27 27 27 27 28 32 35 35 35
49 50 46 44 40 46 44 36 22 18 27 30 33 36 36 36 36 36 37 36 33 30 32 37 37 39 38 35 38 36 31 27 24 25 23 26 26 27 28 29 27 28 28 32 34
50 51 47 44 45 46 41 29 18 25 27 32 35 35 34 35 34 36 35 33 36 35 34 32 29 37 38 35 34 34 32 25 19 21 22 25 24 25 28 28 29 28 29 30 31
48 43 43 45 45 45 32 21 20 22 27 32 33 35 31 36 35 33 35 32 35 35 31 30 30 37 38 38 36 34 32 29 25 21 20 21 23 23 24 24 25 26 29 30 31
41 40 41 45 45 39 28 27 28 30 31 35 28 29 29 32 32 33 32 34 35 35 32 31 28 35 37 39 38 36 33 29 30 20 19 20 19 20 21 22 23 23 27 32 34
41 37 43 45 42 32 24 24 32 35 36 33 29 29 27 32 33 31 30 32 36 36 34 30 28 32 37 36 35 36 34 32 29 24 20 16 17 22 23 23 21 23 25 34 37
36 29 42 44 31 29 25 31 36 35 37 36 33 31 29 28 34 31 31 31 36 37 34 32 29 28 31 36 36 35 33 33 29 24 21 19 21 22 21 23 25 25 32 38 40
35 35 39 39 23 24 30 32 36 35 33 31 30 32 31 29 27 30 30 33 37 36 33 33 31 26 29 32 35 34 34 34 31 29 20 23 22 22 25 26 28 32 36 40 40
28 23 27 33 31 29 29 29 31 35 36 34 31 30 29 28 29 28 29 33 35 37 39 37 32 26 22 23 29 31 33 34 34 29 25 25 25 26 27 26 27 32 37 40 40
28 24 26 20 21 27 29 30 30 31 33 34 32 30 30 29 27 27 29 31 33 35 38 38 32 31 29 26 31 30 31 32 31 31 28 26 26 26 27 27 27 28 34 39 39
24 24 28 24 26 25 28 29 28 28 28 30 30 25 32 32 31 31 34 32 30 32 32 32 31 28 25 27 26 27 29 32 31 31 31 30 30 32 31 30 32 32 31 37 39
31 32 26 23 23 18 21 25 24 24 22 28 26 24 26 28 37 35 35 35 35 31 30 30 30 28 26 26 24 22 27 29 30 32 32 30 31 32 32 33 34 35 33 34 38

GFSSW_sfc_dewp_084.txt.gz
Dewpoint
53 52 52 52 51 50 49 49 49 49 49 48 48 49 50 51 51 46 46 45 49 52 53 51 51 52 55 52 52 50 44 38 36 36 34 42 39 45 44 44 46 46 50 52 62
52 52 52 51 50 49 48 49 50 49 48 48 49 49 49 50 44 43 48 54 54 55 49 48 47 49 48 49 51 48 43 39 37 37 37 42 39 43 40 42 42 43 46 51 65
53 50 51 50 49 48 48 49 48 48 49 48 49 49 49 47 40 41 49 53 54 53 49 50 46 45 43 48 47 44 43 41 40 39 41 42 43 45 38 40 43 42 44 51 59
52 49 50 50 49 48 47 48 48 49 49 49 49 49 47 41 31 43 51 52 52 49 49 49 45 43 41 42 46 43 43 43 46 47 44 42 43 42 43 43 44 45 45 52 52
51 50 50 50 48 49 48 48 48 49 49 49 49 48 41 33 34 46 49 48 46 47 47 46 41 40 37 40 44 41 43 45 46 45 44 45 43 39 42 44 44 44 44 45 51
51 50 49 51 50 49 49 48 48 48 48 49 49 47 35 30 36 40 39 46 44 48 48 49 41 39 38 41 41 41 43 44 44 43 43 42 44 44 42 44 43 44 44 45 44
50 50 50 49 51 50 50 48 48 48 48 49 48 40 35 34 38 40 39 41 42 47 46 50 47 43 39 42 42 40 40 44 44 43 42 41 40 42 41 44 42 42 43 44 45
50 50 50 48 50 51 51 50 48 49 47 47 47 39 33 35 40 39 43 40 46 49 46 52 48 44 41 43 42 38 36 35 41 43 43 41 36 37 42 41 40 40 41 43 44
48 50 49 49 49 51 51 49 48 48 47 46 41 37 31 39 38 41 44 41 44 47 47 49 46 42 42 39 38 38 30 31 39 42 41 40 35 36 41 41 39 38 39 41 43
48 49 49 48 49 51 49 47 46 42 41 41 40 32 35 37 41 42 43 43 43 44 45 46 44 40 38 38 29 32 30 31 31 39 40 37 36 37 41 41 39 37 38 41 42
47 48 49 49 48 51 43 41 35 36 40 37 37 35 37 41 42 41 43 41 43 41 38 41 39 33 32 35 32 32 32 31 33 38 37 36 36 36 37 40 40 39 38 39 41
47 49 49 49 48 47 42 35 37 39 36 40 39 39 40 42 33 41 42 39 39 36 39 37 35 33 37 36 33 32 29 29 33 35 38 35 35 36 36 38 39 38 39 38 40
48 49 49 47 49 43 40 39 44 42 37 38 41 39 39 40 37 40 42 41 36 34 36 36 37 36 34 35 33 31 28 30 29 33 37 35 32 34 36 38 39 39 42 41 40
48 49 48 49 43 42 38 43 44 41 37 34 36 39 40 39 36 42 44 39 36 33 35 36 38 36 34 32 33 31 34 33 32 31 28 34 24 30 32 34 37 37 39 40 42
48 48 47 49 43 40 41 44 43 39 26 33 37 45 41 33 36 37 44 41 34 36 37 36 36 35 34 33 33 30 35 33 33 31 30 30 29 25 30 30 33 36 37 38 41
48 48 50 47 45 43 45 43 40 33 25 34 38 37 36 37 35 38 40 41 39 37 38 38 40 36 32 38 36 36 34 33 32 29 26 23 27 22 25 25 28 33 35 38 38
48 50 48 46 42 46 44 40 34 31 30 32 32 35 34 33 34 34 35 35 34 33 33 37 38 39 39 36 37 35 32 29 28 28 22 26 26 21 23 28 28 28 30 34 37
50 50 46 44 47 46 43 35 31 28 33 33 34 34 33 33 32 32 31 31 35 32 34 33 30 37 38 35 34 31 29 25 18 17 17 26 22 19 26 28 29 30 30 30 31
48 46 46 47 47 46 36 35 30 33 33 32 34 33 30 34 33 32 30 27 32 35 32 31 31 37 38 37 36 34 34 30 28 23 24 21 24 26 25 26 27 27 29 30 31
44 44 45 47 46 42 37 32 33 30 32 35 29 30 26 31 31 31 29 29 32 35 34 31 30 36 38 38 38 35 32 30 33 24 19 19 20 16 19 21 22 22 23 25 31
45 41 45 48 44 37 37 34 33 35 35 34 30 29 29 31 32 31 31 32 34 35 33 31 30 33 38 37 36 34 32 32 28 26 22 15 15 21 22 22 23 24 26 30 33
43 38 46 46 39 37 37 34 37 35 37 36 34 32 30 28 32 32 31 31 35 36 33 31 30 30 31 35 36 34 30 30 27 24 25 24 19 22 22 22 25 27 33 37 38
38 39 42 44 35 34 32 31 36 36 34 33 31 32 31 30 28 30 31 34 37 36 33 33 34 29 29 32 35 35 33 33 31 30 31 24 20 22 24 25 27 30 33 37 39
32 33 31 35 34 29 27 29 30 35 35 35 32 31 30 29 30 30 29 33 36 37 40 36 34 28 23 24 29 31 30 32 34 32 26 27 23 22 24 27 28 28 29 35 39
30 27 30 31 23 28 30 30 29 29 35 33 33 31 31 27 27 27 29 30 35 38 38 37 33 32 29 28 30 30 30 31 33 33 30 26 25 25 25 25 26 29 30 33 38
28 26 29 25 26 26 27 26 30 29 28 27 31 28 27 30 31 34 34 35 33 36 37 39 33 34 32 34 30 30 29 30 30 31 30 29 28 28 28 29 30 30 31 32 33
36 35 25 24 24 19 18 25 24 23 22 24 25 25 24 24 28 30 37 36 34 36 36 34 33 31 28 31 31 29 28 28 29 30 30 30 30 30 30 31 32 32 32 34 35

GFSSW_sfc_dewp_087.txt.gz
Dewpoint
53 52 52 51 49 49 49 50 50 49 49 49 49 49 50 50 51 46 42 49 51 56 56 52 50 46 52 52 52 50 45 37 31 31 33 37 37 42 43 43 45 47 49 54 61
53 51 51 49 49 49 48 50 49 49 49 49 49 49 49 50 45 41 48 51 55 55 51 48 44 43 47 50 50 48 44 37 33 32 35 39 35 38 39 41 43 43 50 61 65
52 51 51 49 49 49 48 49 49 49 49 50 49 49 49 48 40 44 50 53 55 54 50 49 44 41 40 45 48 45 42 38 39 44 40 41 38 40 34 39 42 43 47 59 65
51 51 49 51 48 49 49 49 49 49 50 50 49 48 48 42 35 43 52 53 54 49 48 47 44 39 37 40 47 43 42 44 41 46 41 40 40 38 36 41 43 44 47 56 61
51 51 50 51 51 50 49 49 49 49 49 50 50 48 42 33 34 45 50 47 46 45 47 46 41 38 34 35 42 42 44 42 45 44 41 40 40 37 40 43 44 44 45 49 58
51 51 51 49 51 51 51 50 49 48 48 50 49 48 36 30 37 41 39 45 43 47 46 47 40 38 34 32 38 40 47 43 45 43 42 41 40 43 39 43 43 43 43 46 48
49 50 51 50 49 51 51 51 49 48 48 49 49 38 32 33 37 38 40 42 42 47 45 49 48 39 36 35 37 36 40 42 41 44 41 41 39 42 38 42 40 42 42 43 46
48 50 50 50 48 50 51 51 49 49 48 48 48 38 30 36 38 39 40 40 44 47 47 52 49 44 40 39 38 35 37 38 41 41 40 40 33 37 39 39 39 38 39 42 44
49 48 50 50 48 50 51 49 49 48 48 47 40 36 29 40 37 40 42 40 43 46 50 51 48 41 41 37 37 35 29 32 35 39 38 39 34 33 37 40 39 37 36 39 41
50 47 49 50 48 50 51 47 47 46 43 37 35 34 34 34 38 41 42 43 41 47 44 45 44 37 36 33 28 30 26 25 28 37 38 38 35 33 37 40 39 37 36 36 38
48 47 49 50 48 50 46 41 37 37 38 35 35 34 35 38 39 40 42 41 41 43 37 41 39 33 30 30 29 25 26 23 25 33 36 35 34 34 34 38 39 37 35 34 36
49 48 49 50 48 50 43 35 38 41 35 38 37 36 38 40 36 40 42 37 36 36 39 38 35 33 31 30 32 31 26 27 30 33 33 30 30 31 33 34 36 36 35 35 35
48 48 49 48 49 45 38 39 42 41 37 36 38 36 38 39 38 39 41 38 33 33 36 37 34 35 33 33 30 29 26 30 28 31 33 31 30 30 31 33 34 36 36 37 39
48 47 48 48 47 41 39 42 43 41 37 32 32 37 38 37 36 42 42 40 34 31 35 36 37 35 33 30 29 27 29 27 28 30 26 31 19 20 25 30 33 34 36 36 40
48 48 47 49 43 41 41 43 43 41 28 33 35 42 39 34 35 38 43 40 31 32 36 35 35 34 32 29 30 28 33 31 31 29 29 29 27 23 25 27 29 32 34 35 38
48 47 49 45 45 42 44 43 41 34 26 33 35 34 32 33 33 36 38 40 36 34 36 37 40 34 31 33 34 35 32 31 31 30 30 26 26 22 22 25 26 28 31 33 35
48 49 49 45 42 46 44 41 34 33 31 32 31 34 32 30 31 32 33 34 34 32 34 37 37 36 38 35 35 33 29 29 26 28 23 22 20 22 21 23 25 26 27 32 34
50 51 46 44 46 45 44 36 32 28 33 34 33 32 31 31 30 29 30 30 32 33 35 32 31 35 35 33 30 29 29 26 18 16 17 24 19 19 21 23 22 27 29 30 31
51 47 46 46 47 47 39 34 31 35 35 31 33 32 29 31 31 31 28 27 27 31 32 34 34 36 37 35 36 31 32 28 27 24 21 18 20 20 21 24 27 27 29 31 31
45 45 46 47 47 44 38 33 33 32 32 34 28 28 24 29 31 30 27 26 26 30 34 36 32 36 37 37 37 37 32 29 33 22 15 11 17 15 17 19 21 22 23 25 26
45 41 46 48 46 39 35 34 32 34 34 33 28 27 26 26 29 29 27 28 28 30 30 30 32 34 38 36 30 33 32 31 28 21 18 11 14 19 20 21 23 25 29 31 32
45 39 47 47 41 38 37 31 37 33 36 35 34 31 27 26 26 29 27 30 32 32 31 31 32 34 32 36 36 33 29 28 27 23 24 23 20 20 22 22 25 29 33 36 37
38 39 42 45 37 36 29 28 34 34 33 32 31 31 28 27 24 25 28 30 35 35 31 32 34 29 31 35 36 36 36 34 29 28 32 24 20 23 24 25 26 29 28 30 37
35 35 34 37 32 25 22 22 24 35 34 33 31 31 28 25 26 25 25 32 35 36 42 39 33 28 24 27 29 31 30 31 33 33 27 28 23 23 23 25 26 28 28 28 31
31 27 32 32 24 25 26 24 20 23 32 33 28 29 27 24 18 16 22 25 32 37 40 38 33 33 30 27 29 31 29 29 33 33 31 27 25 25 25 25 25 26 27 29 30
28 26 27 23 24 23 25 22 23 22 27 15 25 23 24 18 15 18 26 31 34 36 37 39 34 35 33 35 29 29 28 29 29 29 31 30 29 28 28 27 27 27 28 29 31
35 32 26 24 21 17 12 19 21 24 19 21 23 22 18 19 25 25 26 28 36 33 34 34 34 33 30 34 34 30 31 30 29 29 29 29 29 29 28 28 29 29 30 30 30

GFSSW_sfc_dewp_090.txt.gz
Dewpoint
53 53 51 51 50 49 49 51 50 50 50 50 50 50 50 51 51 47 42 49 52 56 57 51 51 48 51 53 53 53 45 40 38 35 34 36 40 42 43 44 45 48 54 59 67
53 53 50 50 50 50 49 49 50 49 50 50 50 49 50 50 46 42 52 52 53 55 53 50 49 46 47 49 51 48 44 41 39 42 37 36 38 39 42 43 43 49 60 63 66
52 52 51 52 50 50 49 49 49 49 50 51 50 50 49 47 39 43 50 54 53 53 51 51 52 42 46 47 49 47 42 42 40 46 47 41 36 38 39 42 43 44 58 63 65
51 52 52 50 52 51 50 50 49 49 50 50 51 50 49 42 33 39 49 51 54 52 47 50 49 44 40 42 46 45 45 44 45 47 47 44 41 39 38 43 44 47 58 62 64
51 51 51 51 50 52 51 51 49 49 49 50 51 50 45 33 34 41 46 47 46 47 46 47 44 39 35 41 44 43 43 45 48 46 47 46 44 38 42 43 44 45 54 59 62
48 50 51 51 49 50 51 51 50 49 49 49 50 50 40 30 37 39 38 43 44 48 47 47 45 44 37 37 43 43 42 46 48 45 44 41 42 44 42 43 43 43 46 52 59
50 48 50 51 48 49 51 51 51 49 50 49 49 42 33 32 37 38 40 42 42 48 46 49 47 44 41 35 41 43 41 45 48 45 42 43 40 42 42 42 42 42 43 46 49
50 49 49 50 49 49 51 52 51 50 50 50 49 41 30 36 39 39 41 40 43 48 48 49 48 45 42 38 38 40 43 38 42 42 43 42 35 40 41 41 40 41 41 43 46
51 49 47 49 49 49 51 52 49 50 49 48 43 36 30 42 36 40 41 41 46 48 47 45 47 43 41 37 34 35 34 37 39 45 41 41 35 35 40 38 39 39 37 41 44
49 48 47 49 48 49 51 51 47 48 46 38 35 35 33 33 37 40 42 43 45 44 42 44 44 40 37 37 31 30 27 30 34 41 40 41 37 36 35 39 41 39 38 37 40
50 48 48 50 49 49 49 44 41 39 38 34 34 32 34 38 39 40 42 42 42 42 37 41 39 35 32 33 28 28 28 26 30 39 39 35 35 35 35 40 39 38 38 36 36
48 47 48 50 48 50 47 37 39 42 35 35 34 35 37 39 37 39 43 37 38 37 39 39 35 33 32 31 30 32 25 25 33 37 38 33 33 33 33 34 38 38 37 36 36
48 47 48 49 48 49 40 40 44 42 39 35 36 33 37 39 38 39 40 39 34 34 35 35 38 36 34 32 31 31 29 29 31 32 32 31 30 29 30 31 33 35 36 36 36
48 47 48 47 47 42 40 41 44 44 36 31 32 36 37 37 36 41 42 41 34 32 35 36 37 35 34 32 31 29 30 34 33 30 27 30 24 27 29 30 31 32 34 36 36
48 47 47 48 47 41 42 44 45 43 24 34 35 41 38 34 36 38 43 41 32 31 36 35 36 34 33 30 30 30 32 33 34 29 28 30 28 25 25 28 29 31 33 36 36
49 48 49 46 47 43 45 45 43 34 20 32 34 34 33 32 32 37 38 41 39 33 35 36 39 38 34 34 32 35 34 31 30 30 26 29 27 25 23 23 27 30 32 34 36
49 49 49 45 43 46 46 43 35 29 32 32 31 32 31 30 31 33 34 34 33 31 31 35 36 37 38 36 37 35 31 28 25 26 22 23 25 24 24 23 25 27 28 31 34
50 50 48 45 47 46 46 38 29 28 33 34 33 31 31 29 30 30 29 28 33 33 32 27 29 36 37 36 33 32 31 28 19 19 19 22 21 20 21 24 26 28 29 30 29
52 49 47 48 48 48 41 34 32 35 36 31 31 30 30 30 30 29 28 28 29 31 32 30 28 35 36 35 35 31 28 30 31 26 21 23 22 22 21 23 26 27 29 30 29
47 47 46 48 48 46 39 34 34 33 32 32 28 28 25 29 31 29 28 27 27 28 33 36 30 36 36 38 37 38 35 29 29 17 16 12 13 17 18 20 25 24 26 29 28
47 44 47 48 47 42 32 35 33 33 34 32 29 26 25 24 31 29 28 28 27 27 32 37 35 35 37 35 33 35 36 36 30 25 17 15 17 19 20 24 25 29 32 33 33
47 41 46 48 41 42 39 34 36 32 35 34 33 32 29 27 25 24 28 26 34 34 30 32 36 30 33 37 36 33 33 34 31 25 25 23 22 21 23 23 25 32 35 36 37
43 42 45 45 38 39 32 27 32 33 33 33 31 31 29 27 24 22 24 33 36 38 36 34 33 29 32 35 37 36 34 32 32 32 26 23 20 23 24 24 26 30 28 35 37
40 36 38 41 35 31 26 23 26 35 33 32 30 30 28 26 24 23 23 29 35 35 42 40 34 26 22 28 32 32 33 33 33 31 27 28 26 24 25 25 26 30 29 28 31
37 34 37 33 29 28 28 26 20 23 32 31 29 28 23 24 21 18 16 17 28 38 36 36 31 34 30 29 33 34 31 32 33 34 28 27 28 27 26 26 26 27 28 28 29
34 30 29 26 25 24 28 23 22 23 27 20 22 20 22 20 17 17 21 22 24 34 36 36 32 32 32 35 35 32 31 31 31 32 33 31 29 30 31 31 29 28 29 30 30
37 34 31 28 22 20 21 22 24 26 23 22 22 20 19 22 26 25 24 24 31 32 30 31 31 30 28 33 32 29 32 30 30 30 31 30 30 30 30 30 29 30 30 30 31

GFSSW_sfc_dewp_093.txt.gz
Dewpoint
53 53 53 52 49 50 50 49 50 50 51 51 51 50 50 51 51 46 45 50 51 55 57 52 48 49 52 53 54 53 44 40 39 37 37 39 39 41 44 45 51 52 56 63 67
52 52 53 50 53 50 50 50 50 50 51 51 51 51 50 50 46 40 47 54 53 55 52 51 48 49 46 50 51 49 43 41 43 44 36 40 38 40 43 43 54 61 62 66 66
51 52 52 51 50 53 51 51 50 50 50 50 51 51 50 48 41 36 48 52 53 53 51 51 51 50 45 48 50 48 43 44 47 47 45 41 38 40 43 43 45 58 62 64 65
50 51 51 52 50 51 52 51 51 50 50 49 50 51 51 45 31 38 48 50 51 49 48 49 47 46 44 43 49 45 46 47 48 50 45 45 45 37 41 43 47 60 63 64 64
50 49 50 51 50 50 51 52 51 50 49 49 50 51 47 36 35 41 45 47 46 48 48 48 45 45 41 42 45 44 43 46 49 50 47 48 47 44 42 44 48 60 62 63 64
51 50 49 50 49 49 50 50 51 51 50 50 50 50 43 32 37 39 39 41 43 45 48 49 47 47 42 43 42 44 44 43 46 47 48 45 47 48 42 43 43 56 59 61 63
52 50 49 50 49 49 50 51 52 51 50 50 50 46 36 33 36 39 41 42 43 45 47 50 51 47 43 42 44 43 42 42 42 47 47 47 45 46 43 42 42 44 52 58 60
52 50 49 48 49 49 50 51 52 51 51 51 50 45 32 38 39 40 41 43 46 49 49 50 49 46 43 41 43 43 42 37 43 46 45 47 40 46 44 41 42 42 44 47 51
51 49 48 48 49 49 50 51 52 50 51 50 43 40 32 42 38 41 42 46 47 48 46 46 47 43 41 35 37 38 36 36 39 45 45 43 40 41 42 41 40 41 41 45 46
51 50 48 49 50 49 50 51 52 49 46 44 38 32 35 35 39 40 43 46 44 44 42 42 42 38 36 34 29 32 34 37 35 41 43 43 40 40 38 39 40 40 39 40 45
50 49 49 48 50 49 49 44 39 37 37 35 35 34 36 40 42 41 43 44 44 40 35 40 35 32 34 35 33 31 29 29 35 41 39 40 40 39 37 39 38 38 39 38 39
50 49 48 49 50 49 48 40 40 41 35 38 37 37 39 41 38 41 44 40 39 36 38 35 32 36 37 34 32 31 27 29 37 41 40 39 38 38 37 38 39 39 39 38 37
50 49 48 49 49 48 43 41 43 42 37 37 38 36 38 41 38 39 43 40 36 37 37 32 37 39 36 34 31 31 29 29 34 37 40 38 34 32 34 33 39 39 39 38 38
49 48 48 48 47 43 40 43 43 42 26 31 37 38 40 40 37 41 43 42 34 35 36 35 38 36 35 34 32 30 34 34 34 33 29 31 24 27 30 30 31 35 38 37 37
50 48 48 48 47 42 43 43 43 40 10 31 37 42 41 37 37 40 43 42 34 34 34 31 36 35 34 33 32 31 35 34 36 30 29 29 27 28 27 27 29 30 33 35 36
50 49 49 47 47 43 44 43 41 26 8 31 38 37 36 35 35 40 40 42 41 34 35 35 39 38 35 37 35 35 34 32 31 30 23 28 29 27 24 24 29 30 31 34 36
50 49 49 48 44 44 44 41 27 14 29 28 32 34 33 32 33 35 36 34 32 28 29 31 33 38 38 34 36 34 32 27 20 20 20 26 27 27 27 26 25 28 30 32 35
50 50 50 45 45 45 44 32 14 27 28 32 34 33 31 31 31 33 31 32 34 33 31 22 17 35 37 35 32 33 32 25 18 20 19 23 22 21 24 25 27 28 29 29 29
51 49 46 47 46 46 39 24 21 29 33 33 33 30 30 32 30 30 30 28 28 32 31 27 26 36 36 36 34 30 28 30 28 27 19 22 23 23 23 24 26 27 29 29 29
48 46 45 48 47 44 37 30 30 35 34 33 28 30 26 29 30 30 28 29 29 29 32 33 26 35 35 37 38 36 35 27 30 23 18 15 18 18 18 20 25 27 28 29 28
46 43 47 48 46 42 24 32 33 34 34 32 30 28 25 24 31 28 28 29 29 32 32 36 35 34 36 34 33 35 34 34 30 25 17 14 15 19 20 25 28 31 34 34 34
45 38 47 46 39 38 31 33 36 33 35 34 33 32 30 29 26 24 29 29 35 37 35 37 36 31 35 37 36 35 34 34 25 24 23 21 20 23 23 27 32 34 35 35 36
42 41 46 45 35 33 32 29 33 33 34 34 33 33 30 27 25 25 24 34 34 36 36 37 33 27 30 35 37 35 36 36 35 31 20 20 20 23 24 24 30 33 35 36 36
39 35 36 42 39 31 28 25 29 34 33 34 31 31 29 28 27 24 21 29 31 36 39 38 32 30 26 30 33 33 32 34 35 30 24 24 25 23 24 24 26 29 29 34 37
38 34 34 32 33 28 21 24 24 28 34 31 30 30 24 24 23 22 20 21 29 37 37 36 29 33 33 32 35 35 33 34 33 32 27 26 27 28 29 28 26 27 28 29 30
33 29 28 26 27 26 28 20 22 25 26 22 27 22 20 19 19 19 23 23 24 31 32 34 30 32 29 33 35 31 33 34 34 34 33 32 30 30 30 32 31 30 30 29 29
37 33 26 26 21 20 22 20 25 22 23 23 22 20 19 24 26 26 25 24 25 27 27 27 28 22 25 34 32 28 31 33 30 33 34 31 32 32 32 31 31 30 30 30 30

GFSSW_sfc_dewp_096.txt.gz
Dewpoint
52 52 53 52 51 52 50 50 50 50 50 51 51 51 51 50 50 44 43 48 51 54 56 52 49 50 52 50 53 54 45 39 38 35 35 39 38 42 47 50 56 54 59 62 66
51 51 53 52 50 51 52 51 51 50 50 50 50 51 52 52 45 37 43 51 54 54 50 50 48 50 48 46 51 49 43 41 44 43 37 39 39 43 45 51 57 59 65 66 65
51 50 52 52 51 50 51 52 51 51 50 50 49 51 52 50 43 35 46 51 52 51 52 52 49 49 45 47 49 48 43 46 48 50 48 39 40 43 43 44 55 57 61 64 63
51 51 49 51 52 50 50 52 51 51 51 49 50 51 52 45 29 37 47 50 51 48 51 48 47 44 44 42 46 45 47 48 49 51 48 46 43 41 42 43 56 61 62 63 63
52 51 50 50 51 49 50 50 50 51 51 51 50 51 47 35 34 38 47 45 47 48 46 45 45 45 41 44 46 45 47 46 49 49 49 48 47 45 43 47 60 62 63 63 63
51 52 50 50 51 49 50 50 51 52 51 51 51 51 41 31 35 38 39 41 43 46 46 45 46 46 45 44 42 45 46 44 47 48 49 46 47 44 42 47 58 60 61 63 62
51 52 50 49 49 49 50 51 51 52 52 51 50 46 40 33 36 39 42 42 43 48 47 50 48 47 43 42 45 45 42 44 44 48 47 49 43 43 45 43 52 57 59 61 63
51 51 50 49 49 49 50 51 51 52 52 52 51 45 32 37 39 40 41 47 46 50 50 52 51 47 43 43 43 41 40 37 44 47 47 46 40 45 48 43 42 48 54 58 60
51 50 50 49 50 50 50 51 51 52 51 50 42 40 32 42 39 39 42 45 45 46 45 48 48 43 41 38 37 38 35 36 39 46 46 44 41 42 47 45 41 42 46 50 54
51 50 49 49 50 50 50 51 51 50 44 45 40 31 32 36 40 40 43 44 44 43 41 41 40 36 36 33 30 32 35 35 35 42 44 44 42 44 44 43 41 41 41 43 46
51 50 48 48 50 50 49 43 39 36 37 33 34 34 35 39 43 41 43 44 42 40 34 39 32 30 32 34 34 32 35 35 35 40 40 39 41 43 45 43 38 40 40 39 43
51 50 47 48 50 49 48 39 39 40 33 37 37 38 38 42 38 39 44 39 38 35 38 32 28 37 38 36 33 32 30 30 36 39 39 37 35 39 43 41 38 38 39 39 38
51 49 47 48 49 48 43 41 42 42 34 36 37 36 37 40 38 38 42 41 37 36 35 29 34 38 36 35 32 30 27 31 34 40 40 37 35 37 38 38 37 39 39 39 39
51 49 48 48 46 44 40 42 43 41 22 29 37 38 40 39 35 40 43 41 34 35 35 34 37 36 35 33 32 30 33 31 36 36 33 37 27 28 31 33 35 35 39 39 38
51 50 48 49 46 42 42 43 43 36 6 27 37 42 41 37 36 39 43 42 34 34 32 30 35 36 34 33 33 31 35 35 36 31 29 30 28 28 29 28 30 31 35 39 38
51 50 49 48 47 44 44 43 40 23 2 31 39 38 37 35 35 39 39 41 40 34 35 34 38 37 36 36 36 34 34 33 36 33 27 27 29 27 27 26 27 29 31 34 38
51 50 49 48 44 45 44 40 24 9 27 26 32 35 32 32 33 35 35 33 30 22 21 29 32 37 37 33 35 35 36 29 27 27 25 26 29 27 28 28 25 26 29 32 34
51 50 49 47 46 45 43 30 4 23 27 30 33 33 30 32 31 33 31 31 33 31 29 21 16 34 37 33 31 32 34 26 18 21 21 27 25 24 27 28 29 27 30 31 33
51 48 45 47 46 46 38 21 14 26 32 33 33 30 29 32 29 31 30 28 29 32 30 26 25 34 36 37 34 31 30 31 26 24 20 21 22 23 24 23 26 28 29 29 30
46 45 45 48 47 44 36 27 29 34 34 33 27 29 26 30 29 29 28 29 29 30 31 31 30 33 35 38 38 33 34 30 30 23 19 17 21 19 19 22 25 27 28 28 29
46 42 47 48 45 40 29 26 33 34 34 32 30 29 27 25 29 28 28 28 29 33 32 32 33 30 36 34 32 34 32 32 29 25 20 14 15 18 19 21 26 28 31 32 32
44 40 47 46 39 39 34 34 35 33 35 34 33 31 30 29 26 27 28 29 35 35 30 35 35 30 30 38 39 36 33 32 26 23 22 20 18 24 26 29 32 33 34 35 35
41 42 47 45 33 35 35 29 32 33 33 34 32 33 32 27 24 25 24 32 33 35 34 36 33 27 29 34 37 36 35 34 32 30 21 19 18 24 25 31 33 33 34 34 35
40 35 38 42 40 35 30 26 28 34 33 34 31 31 29 27 27 25 20 26 33 35 37 38 32 29 23 28 34 32 35 35 33 28 24 22 21 22 23 25 30 32 33 36 37
37 33 36 33 35 32 27 25 26 29 31 31 29 27 24 22 22 23 21 22 31 34 35 34 25 30 31 32 34 34 34 35 33 32 26 26 26 27 24 26 25 27 29 30 31
36 32 31 29 30 31 25 21 20 26 30 26 26 21 20 20 19 17 22 21 23 28 30 32 27 22 23 30 32 30 34 36 36 35 32 32 31 29 29 29 32 31 31 30 29
37 33 27 26 24 22 23 19 23 24 24 22 22 19 18 20 25 25 25 24 24 25 25 25 23 15 15 26 31 25 29 33 33 35 35 32 32 33 34 33 32 32 31 30 30

GFSSW_sfc_dewp_099.txt.gz
Dewpoint
52 51 52 53 53 51 53 52 51 51 50 50 50 50 52 52 51 43 39 45 50 55 53 50 51 50 52 48 49 52 45 35 36 32 33 37 39 43 50 52 57 57 60 62 66
52 51 50 52 52 52 51 52 52 51 51 50 50 50 52 52 46 43 42 52 53 55 50 49 47 50 46 46 46 48 43 38 47 46 37 39 41 45 49 55 57 60 64 65 65
52 51 50 49 52 52 50 51 52 51 51 50 50 51 52 48 39 35 46 51 52 53 50 52 51 49 45 44 44 48 43 47 49 50 48 39 41 44 48 47 56 59 62 63 64
53 52 51 50 50 51 50 51 51 51 51 51 51 52 52 42 28 36 48 48 49 51 49 46 48 45 43 39 43 43 49 49 49 49 48 46 43 41 42 44 51 62 63 63 63
53 52 52 50 50 51 50 51 51 51 51 51 52 52 44 33 34 37 47 44 44 49 47 45 45 45 42 42 42 40 44 47 49 49 48 47 46 42 43 58 61 62 63 63 63
53 52 52 50 49 50 50 51 51 52 52 52 52 51 37 32 36 36 39 41 42 46 46 45 43 45 44 43 39 43 47 45 47 47 48 47 45 43 42 56 60 60 61 62 62
53 52 52 50 50 50 50 51 51 52 52 52 52 46 37 33 36 38 42 43 43 47 45 47 47 45 44 42 44 46 41 42 44 46 46 48 42 43 47 47 57 59 59 60 61
53 52 51 50 49 50 51 51 51 52 52 52 51 44 31 36 39 40 41 47 47 49 51 51 50 47 44 45 45 42 40 36 43 45 45 46 40 44 46 43 44 50 53 58 61
53 52 52 51 50 50 51 51 51 52 52 51 43 38 32 41 39 41 42 42 45 45 45 48 48 42 41 39 37 38 34 35 38 45 44 44 41 42 45 44 41 41 46 54 57
53 52 52 50 50 50 51 51 51 49 43 45 40 29 33 35 39 41 44 44 43 41 39 40 38 37 36 33 29 33 34 36 36 42 43 40 41 44 45 44 43 40 41 43 50
54 52 51 49 49 50 49 42 38 34 36 33 34 33 35 39 42 40 44 43 41 38 33 37 33 33 32 35 33 34 35 34 37 41 41 39 40 43 44 44 42 41 39 41 43
54 53 51 49 49 49 47 38 39 38 32 36 37 37 38 41 37 38 44 38 38 32 35 30 28 37 38 36 33 31 33 31 36 41 39 41 39 41 44 43 42 41 39 40 40
54 52 50 48 49 47 43 40 42 42 34 35 36 35 36 40 37 36 42 40 36 35 33 26 32 38 35 33 31 30 29 30 33 39 39 38 36 38 40 43 43 42 39 39 40
54 52 50 49 46 45 40 42 42 38 21 26 36 37 40 39 33 39 43 40 33 33 34 33 36 35 34 33 32 29 32 30 38 36 31 36 26 29 36 39 40 40 38 39 39
54 52 50 50 45 41 42 43 42 34 6 25 36 41 40 36 35 38 42 41 33 34 31 27 34 34 33 33 34 30 35 33 38 32 30 35 28 28 30 34 35 38 36 37 39
54 52 50 48 47 45 44 43 38 23 2 29 38 38 36 36 34 38 39 40 39 33 34 32 36 37 34 36 36 34 34 35 36 33 28 28 29 27 28 28 29 32 32 33 35
51 52 49 47 43 45 44 38 27 14 27 27 32 36 33 31 32 34 34 32 28 22 18 28 31 36 37 33 34 35 32 29 26 28 22 27 29 29 29 28 27 28 29 30 32
53 51 49 47 46 45 41 33 20 18 26 29 32 32 30 32 31 33 31 29 32 29 24 22 16 32 36 32 30 32 34 25 19 21 24 28 27 27 27 27 29 28 28 30 31
52 48 46 46 46 45 38 27 23 22 30 32 33 28 29 31 29 31 30 27 29 32 25 26 24 31 36 37 34 32 27 33 30 22 19 25 22 22 24 24 26 27 29 29 31
47 46 45 47 47 43 35 32 26 33 33 32 25 29 25 28 28 28 27 29 28 32 31 29 24 31 34 38 38 33 34 29 30 22 19 19 19 18 19 21 25 28 28 29 29
47 42 46 47 45 39 30 30 31 34 34 31 28 29 27 26 29 27 28 28 31 31 31 31 31 28 36 33 31 34 30 31 30 29 19 15 15 21 22 20 24 27 29 29 30
45 39 47 46 37 38 34 33 35 33 34 33 32 30 28 27 26 26 28 29 33 34 29 32 31 27 28 36 39 37 33 32 27 24 21 17 18 24 25 26 26 29 33 33 34
42 42 47 45 33 35 37 33 32 33 32 32 31 32 31 27 24 25 27 30 32 32 32 33 31 24 23 34 37 36 35 34 31 29 22 19 19 23 25 31 33 32 33 34 35
41 35 40 42 41 36 32 26 27 34 34 34 32 31 29 28 27 25 22 28 33 34 39 35 30 26 19 27 32 31 35 34 32 28 24 23 21 21 23 28 32 32 34 34 35
40 35 38 34 35 36 30 28 28 28 31 32 29 28 27 23 23 24 20 20 28 33 32 33 24 28 29 31 32 32 33 35 33 31 25 24 24 24 23 24 26 29 29 30 31
37 32 35 35 35 35 31 23 26 28 29 27 24 21 22 22 20 18 20 20 20 26 28 30 17 26 17 25 29 29 30 33 35 35 34 31 30 31 29 27 28 30 31 31 30
38 32 29 30 32 31 25 18 23 25 24 24 25 20 18 19 24 24 23 23 24 23 23 24 23 22 12 21 24 20 27 28 31 34 35 32 32 33 36 35 33 32 32 31 31

GFSSW_sfc_dewp_102.txt.gz
Dewpoint
53 53 53 52 53 53 52 51 53 51 51 51 50 50 51 52 52 44 37 42 50 54 53 49 51 49 51 48 49 48 40 39 39 37 31 37 40 46 50 50 56 54 58 62 66
53 53 52 52 51 53 52 51 51 52 51 51 50 51 52 53 47 42 43 52 53 52 49 49 47 48 45 46 46 42 41 39 41 43 37 38 42 48 51 56 57 59 63 65 66
53 53 53 52 51 51 52 50 50 51 51 51 51 52 53 49 38 34 46 50 51 52 51 50 49 48 42 44 43 42 41 43 44 50 49 40 43 44 51 51 55 55 62 64 64
53 53 52 53 52 51 52 51 50 51 52 51 52 53 53 42 27 36 47 49 48 51 49 47 48 44 42 40 43 38 40 42 49 50 47 42 42 42 43 48 57 62 63 63 61
54 53 52 53 52 51 51 51 51 51 52 52 53 53 44 33 33 37 47 45 42 50 47 46 45 44 41 41 41 39 39 44 49 50 48 46 44 44 45 53 61 62 62 61 61
54 53 52 52 52 51 51 51 51 51 52 52 53 53 38 31 36 36 39 42 41 45 47 47 45 46 41 39 37 41 42 42 46 48 47 45 44 44 45 48 60 61 61 60 61
55 53 53 52 51 51 51 52 52 52 52 52 52 48 39 33 35 38 41 46 43 44 46 48 48 45 43 40 42 42 38 38 45 46 45 46 44 45 46 50 55 58 60 61 60
56 54 53 52 52 51 51 52 52 52 52 52 52 43 32 36 39 41 41 45 47 49 49 51 50 46 44 44 43 39 37 33 40 44 45 44 41 42 45 44 43 49 56 59 61
57 55 54 52 52 51 51 52 52 51 52 51 43 39 31 41 39 40 42 42 44 45 45 48 46 41 42 40 39 39 33 33 36 43 43 42 40 43 45 43 41 42 46 53 58
57 56 54 52 51 50 51 52 51 49 42 44 40 29 31 35 38 40 43 44 43 41 39 42 38 37 35 33 30 34 34 35 34 40 40 38 38 41 42 44 42 42 40 43 49
58 56 53 52 50 50 50 42 36 34 36 33 33 32 34 39 41 39 43 43 40 38 35 37 36 34 35 34 33 35 35 34 37 42 38 38 37 39 42 42 42 41 40 39 41
56 55 52 52 49 50 48 38 38 36 32 36 36 36 37 40 37 37 43 37 36 31 33 30 32 37 38 36 32 34 34 33 38 42 39 38 35 39 41 42 41 42 41 40 40
53 54 53 51 49 48 44 40 42 42 33 34 36 35 35 39 36 35 41 38 35 33 32 26 32 37 35 32 30 30 29 30 35 40 40 39 36 38 41 42 42 42 42 40 40
53 54 52 50 46 45 40 42 42 37 23 24 36 36 39 38 31 38 42 39 33 32 33 31 35 35 33 32 31 28 32 31 38 35 30 36 25 35 38 39 40 40 41 41 39
52 53 52 51 46 41 42 44 42 35 13 25 36 40 40 35 34 36 41 38 33 34 31 27 33 33 32 32 33 30 35 33 37 32 31 33 29 28 36 36 37 38 39 40 39
52 53 52 50 47 46 44 43 38 26 13 28 37 37 35 35 34 37 38 39 38 32 31 30 35 36 34 35 35 34 35 35 35 32 27 29 30 27 29 31 34 36 36 38 37
51 52 51 49 43 45 44 39 28 22 27 28 32 36 33 31 32 34 33 31 26 20 18 27 28 33 37 33 34 34 30 27 26 27 22 27 30 29 30 30 28 30 31 34 34
53 51 51 48 46 45 40 34 22 22 25 28 33 33 29 31 30 32 30 28 31 28 23 21 16 29 35 33 29 31 29 22 18 20 20 29 27 29 29 28 29 29 28 28 29
51 49 48 48 46 45 37 28 25 24 28 31 32 28 28 31 29 30 28 26 28 31 23 25 23 30 33 36 34 32 28 32 24 21 17 24 26 22 24 24 24 26 28 28 30
47 46 46 47 46 43 35 30 28 29 33 32 23 27 24 28 27 26 26 29 28 32 31 27 22 29 34 37 37 34 34 29 32 23 19 19 18 19 18 20 24 27 28 29 30
46 40 47 47 45 39 30 31 30 34 34 30 26 28 25 27 28 25 26 29 32 31 31 31 31 24 33 31 30 35 35 32 31 27 19 16 15 20 22 22 22 26 29 29 30
43 36 48 46 38 38 34 34 35 33 34 33 31 29 27 27 26 25 27 28 29 34 29 31 31 24 24 33 39 36 35 34 27 24 21 17 19 22 25 29 27 26 31 32 33
40 41 48 45 32 34 37 37 34 33 32 32 30 31 31 27 23 27 27 30 31 30 30 33 26 21 16 30 35 35 36 36 34 28 19 18 20 22 26 31 31 32 34 34 34
42 35 41 43 41 35 35 31 30 34 33 33 31 32 29 26 28 25 24 28 31 34 36 33 27 18 15 18 29 26 31 33 34 29 23 23 21 23 23 29 31 32 33 35 35
42 37 37 33 35 36 34 29 28 29 31 32 29 29 28 24 23 23 19 19 28 31 31 30 14 23 25 27 30 30 29 30 31 33 26 23 24 24 24 24 26 32 30 30 31
39 35 38 36 36 36 35 28 28 30 29 28 25 25 24 22 21 19 20 20 18 24 26 28 13 22 16 23 25 25 28 30 31 32 34 33 30 31 30 28 28 28 31 31 31
42 34 34 34 34 33 33 27 27 26 23 23 26 20 19 19 22 22 22 23 24 20 22 24 23 16 15 20 26 18 26 29 29 34 33 30 33 36 36 35 35 32 32 32 32

GFSSW_sfc_dewp_105.txt.gz
Dewpoint
55 54 53 53 52 52 53 53 51 52 52 52 50 50 51 53 53 46 38 41 50 53 52 50 49 49 50 48 49 48 40 35 37 39 38 35 35 47 50 50 53 51 54 58 66
55 54 53 53 53 52 51 53 51 51 52 52 51 52 52 53 48 42 44 50 52 52 48 48 47 48 45 45 46 43 39 37 42 41 42 45 39 48 50 54 51 52 57 62 64
57 55 54 53 54 53 52 53 51 51 51 51 51 52 53 50 38 35 44 50 50 53 51 50 49 45 42 43 43 42 38 41 42 44 46 46 43 46 49 51 51 50 56 62 63
58 55 54 53 53 52 51 52 51 51 51 52 52 53 53 43 28 35 47 51 49 51 49 47 46 44 40 40 43 38 40 41 43 44 47 45 44 45 48 50 54 55 59 60 59
60 57 54 53 53 53 51 51 52 52 52 52 52 53 47 34 33 37 46 46 43 49 47 47 44 44 39 40 41 39 40 41 42 45 50 47 43 45 47 48 57 59 61 62 59
60 58 55 54 53 52 51 51 52 52 52 52 52 53 41 32 36 36 39 44 42 44 46 46 44 46 41 40 38 39 40 40 41 43 44 46 44 45 48 47 57 56 60 62 59
58 59 55 55 53 52 51 51 52 53 53 52 51 47 41 33 35 37 41 44 43 44 45 48 48 46 41 40 41 40 37 39 41 42 43 45 43 43 45 49 55 55 59 60 59
56 59 56 55 53 53 52 51 52 53 53 53 51 42 35 36 39 41 41 43 46 48 48 50 50 46 44 42 42 38 37 34 38 40 39 45 39 43 45 45 48 53 54 56 60
52 56 56 54 54 53 51 51 52 52 52 52 42 37 32 40 38 39 42 42 44 45 45 44 46 42 44 41 38 36 32 34 35 40 41 43 41 41 43 44 44 46 49 54 56
50 53 56 53 53 53 51 52 51 51 44 44 39 32 31 35 38 40 42 44 43 41 40 42 40 40 36 33 29 34 34 34 34 37 40 39 37 38 41 42 43 42 45 50 58
51 53 54 52 50 51 50 44 34 35 37 31 32 32 34 38 42 40 42 42 40 38 35 37 37 34 35 35 34 35 34 33 36 38 39 38 37 36 39 40 40 42 42 44 49
49 52 54 50 51 51 47 40 38 38 33 36 36 36 37 40 37 38 43 38 36 31 32 32 33 36 38 37 33 35 35 35 38 40 38 37 35 35 40 39 40 40 41 43 41
48 51 54 52 51 49 45 41 43 42 35 34 36 34 34 39 36 36 41 38 35 33 32 29 32 37 35 33 30 32 32 34 33 39 40 37 34 35 38 41 40 40 42 42 42
47 51 52 51 46 46 42 42 43 39 26 27 36 36 39 38 32 38 42 39 35 33 34 32 35 35 34 32 31 29 32 32 38 36 31 37 26 32 35 36 37 36 40 41 42
47 47 51 49 47 43 42 43 41 35 14 28 35 40 39 34 34 36 42 38 34 34 30 29 34 33 33 32 33 30 35 36 37 33 33 34 30 32 34 34 35 36 39 41 42
48 48 51 50 49 47 44 41 38 27 15 29 37 36 35 35 34 36 37 38 38 32 31 31 35 36 34 36 35 36 35 35 35 33 28 29 30 27 32 34 34 35 38 39 40
48 48 51 50 44 46 43 39 28 23 27 28 33 36 33 31 32 33 33 30 26 19 19 25 28 33 37 34 34 35 31 26 27 27 23 27 30 28 30 31 30 32 34 37 39
51 52 51 48 49 44 40 34 23 28 24 28 33 33 29 30 31 32 30 27 31 27 24 23 15 28 36 33 31 33 31 24 18 21 23 30 28 29 32 32 32 31 31 30 34
51 49 48 49 47 44 37 28 28 29 27 31 31 28 29 31 29 30 29 27 28 30 23 25 23 30 33 36 36 32 32 32 24 22 21 24 26 23 24 26 26 26 28 30 32
48 46 45 49 46 42 36 30 32 29 33 32 23 27 24 28 27 27 27 28 29 31 30 27 23 30 34 37 38 35 36 31 32 21 19 20 20 20 20 21 23 26 29 30 32
46 39 47 49 45 39 32 31 32 32 34 30 25 28 24 27 27 25 26 30 31 31 32 31 30 24 29 31 30 35 34 33 32 28 21 16 16 20 22 23 25 23 30 31 32
43 36 48 48 37 36 33 34 36 34 34 33 30 28 26 28 26 25 27 28 30 34 29 31 30 24 24 35 38 35 34 34 29 26 21 19 18 22 24 29 31 27 31 33 33
39 41 48 47 32 34 36 36 37 33 32 32 30 31 30 26 22 27 27 30 31 33 31 33 25 13 15 25 30 30 31 31 32 30 20 22 21 22 28 31 32 31 33 34 34
41 34 41 43 41 34 34 33 32 34 33 32 31 31 28 26 27 24 25 28 30 34 35 32 25 18 13 14 28 26 28 31 29 29 26 23 22 22 23 29 32 32 33 34 35
40 36 38 33 36 36 34 33 28 29 32 33 30 29 27 24 23 24 20 20 27 29 30 27 15 23 24 24 26 25 27 29 25 28 29 26 25 26 26 24 28 31 31 31 31
38 37 38 37 37 35 35 33 28 29 31 31 27 28 25 21 17 21 20 18 17 22 26 26 13 17 13 21 23 24 25 26 29 28 29 31 30 33 34 30 28 29 32 32 33
43 36 38 36 35 34 32 32 28 28 24 23 27 21 22 20 21 22 22 23 24 20 23 23 20 15 13 20 23 17 25 27 29 31 32 28 32 35 35 35 37 36 32 32 33

GFSSW_sfc_dewp_108.txt.gz
Dewpoint
59 57 55 54 53 53 52 52 53 51 51 52 52 51 52 53 53 45 38 39 46 53 51 48 49 48 47 45 43 44 37 34 37 38 37 38 41 43 38 45 47 49 47 52 63
61 59 56 55 53 54 53 52 53 51 51 51 52 52 53 53 46 40 42 49 52 52 48 48 44 45 42 38 42 41 36 36 41 43 40 43 43 42 37 42 47 49 55 60 65
59 60 58 55 54 53 53 51 52 51 51 51 52 53 53 50 37 33 41 50 51 53 51 50 48 44 40 43 40 38 35 39 42 44 46 43 41 44 40 39 45 48 52 57 57
57 59 59 56 54 53 53 52 51 51 51 51 52 53 53 40 33 36 44 50 50 49 47 47 45 41 39 39 42 35 40 42 43 46 43 44 41 43 44 42 46 48 52 57 57
56 58 60 56 55 53 53 52 52 52 51 52 52 53 45 34 33 37 44 45 43 47 46 46 43 41 37 38 42 38 40 41 43 44 42 43 44 44 43 47 51 49 54 56 57
53 55 59 55 53 53 53 52 52 52 52 52 52 52 41 32 36 37 39 43 42 44 44 45 44 45 39 39 39 41 40 40 41 41 42 43 44 45 42 46 48 52 53 54 56
50 53 56 56 53 53 52 52 51 52 52 51 52 48 41 32 35 37 42 42 45 44 45 49 48 46 40 38 40 40 38 38 40 40 39 42 41 44 43 45 47 53 53 57 56
49 51 54 56 53 53 52 51 51 52 52 51 52 45 33 36 36 40 40 42 45 48 47 49 49 47 42 40 39 35 37 36 38 39 40 41 37 42 43 45 48 49 52 58 57
48 50 53 55 53 53 52 51 51 52 52 50 48 38 30 39 37 39 40 41 42 44 46 46 47 43 41 38 34 34 30 36 31 41 41 39 39 41 42 45 48 49 52 55 57
48 48 50 51 54 51 52 52 51 50 45 43 39 35 32 33 37 39 40 43 42 41 40 42 41 41 37 36 27 29 29 28 30 36 38 38 38 40 40 43 45 48 52 54 55
48 48 49 51 52 51 50 45 36 36 37 32 30 31 33 37 40 39 41 42 39 35 35 35 39 33 33 35 34 33 30 23 34 36 37 37 37 38 38 43 43 46 49 53 54
47 48 53 54 51 50 48 39 37 38 34 36 35 35 36 38 36 37 41 37 35 32 33 35 33 35 37 36 34 34 31 32 35 37 38 36 35 37 36 40 41 42 44 49 51
47 46 51 52 50 49 44 42 43 42 37 34 35 33 34 38 34 35 40 37 34 30 32 33 32 36 35 32 31 34 31 32 31 36 38 36 34 34 37 39 40 40 43 43 48
47 46 47 51 47 46 42 43 43 39 35 30 34 35 38 38 32 36 41 39 35 32 33 31 34 34 33 31 31 28 32 33 35 34 31 34 25 34 33 37 38 40 41 43 43
48 46 46 50 47 44 42 44 43 38 23 31 35 39 38 34 34 36 41 38 31 33 33 30 33 32 31 30 33 30 35 32 35 32 30 32 28 29 32 32 35 39 40 42 43
49 46 47 50 48 47 45 42 40 33 22 31 36 33 34 34 32 35 36 38 37 33 32 32 33 36 33 35 35 37 35 35 35 32 27 24 28 18 29 32 33 36 38 41 42
48 47 47 48 44 48 45 38 34 27 27 31 32 35 31 30 31 32 30 28 26 27 30 27 27 32 37 34 35 35 32 29 26 29 22 27 30 22 27 31 31 32 34 36 40
47 49 51 48 51 47 42 34 28 31 29 29 34 33 27 29 30 31 29 26 31 27 29 26 23 28 33 34 32 31 32 26 16 18 21 29 26 22 31 31 32 32 32 33 33
48 49 48 50 49 45 36 32 29 31 28 31 32 27 28 30 29 30 28 26 28 29 24 24 20 29 31 34 35 36 33 32 27 23 24 23 25 25 22 25 28 28 27 30 31
46 46 45 50 48 43 34 30 32 31 31 32 24 27 21 28 27 28 25 29 29 30 30 27 26 29 33 35 35 34 36 32 34 25 17 18 20 18 21 22 23 26 28 30 34
46 40 46 50 48 39 33 32 32 32 33 31 26 26 23 27 27 26 25 30 30 31 31 30 30 25 29 28 26 30 31 33 33 31 20 13 15 19 23 27 28 26 29 31 35
44 36 48 49 37 37 34 33 36 33 34 33 29 28 26 29 28 27 27 28 29 34 29 32 30 25 21 29 32 31 32 34 29 26 28 22 17 23 28 31 29 27 31 32 35
39 40 48 47 34 34 35 34 35 32 33 31 30 31 29 27 22 27 28 29 32 33 31 31 29 22 15 28 28 27 28 30 32 33 29 23 20 25 28 30 31 32 33 33 33
40 35 40 42 41 35 32 31 31 35 32 31 30 31 28 26 27 25 26 27 30 33 34 31 32 25 16 22 26 25 24 27 29 27 28 26 23 23 27 28 31 32 33 33 33
39 37 38 34 36 34 32 33 29 28 33 33 30 29 25 24 25 24 22 22 25 28 29 27 23 23 21 20 21 23 22 22 27 26 28 29 32 29 30 31 27 30 31 32 33
37 36 38 37 37 34 34 32 29 28 31 31 29 30 26 19 16 19 22 20 17 23 25 27 25 24 21 21 25 21 20 23 25 25 27 26 28 30 30 33 33 31 31 32 34
42 41 37 37 36 34 31 32 27 29 24 24 28 27 25 22 22 23 23 24 27 24 24 24 25 23 20 22 26 24 26 27 29 30 30 28 30 34 34 34 35 35 36 36 36

GFSSW_sfc_dewp_111.txt.gz
Dewpoint
58 60 60 58 55 54 54 53 52 54 51 51 51 52 52 53 54 44 38 36 41 53 53 47 45 46 47 44 42 41 36 32 27 28 31 38 44 43 45 46 41 40 47 52 63
56 58 60 59 55 54 54 53 52 53 51 52 51 52 53 54 46 37 37 45 51 52 47 46 43 43 41 40 40 40 35 31 29 38 42 40 43 44 44 44 40 45 47 60 66
55 58 59 60 56 54 53 53 51 51 52 52 51 52 53 52 37 32 44 47 52 51 48 48 46 41 37 35 35 36 36 31 37 42 44 41 42 44 47 45 41 44 56 57 64
52 54 56 58 57 54 53 53 52 51 52 52 52 52 53 43 34 35 42 48 51 48 46 44 43 39 37 36 37 35 35 37 41 43 43 42 45 44 46 43 45 52 56 58 62
50 50 54 56 57 55 53 53 52 52 52 52 52 52 48 34 32 38 42 43 44 45 45 44 42 39 38 36 37 37 37 40 42 43 43 43 41 41 43 43 45 51 55 57 60
49 49 53 55 57 54 53 53 52 52 52 52 51 53 44 32 36 38 40 41 45 44 43 44 43 44 42 37 37 37 39 39 40 41 42 41 39 41 45 44 46 48 51 55 55
49 49 51 55 57 55 54 52 52 52 52 52 52 48 42 35 35 37 40 41 44 45 45 47 47 45 42 38 39 38 37 40 39 38 39 40 37 40 44 45 44 45 51 55 55
49 49 48 51 53 55 54 52 52 52 52 53 52 46 36 35 36 37 39 40 44 45 47 47 49 47 43 40 38 36 38 36 37 38 40 38 35 40 43 44 43 44 50 54 55
49 49 48 49 51 53 54 52 51 52 53 51 48 43 31 38 34 38 39 39 41 43 47 46 48 44 40 37 35 32 29 36 32 39 39 36 34 39 43 43 42 44 47 53 55
49 49 48 51 52 52 53 52 51 50 48 44 40 36 34 29 36 38 39 42 41 40 40 41 42 41 38 37 33 29 27 27 30 36 35 34 36 40 41 42 42 46 44 51 55
49 48 48 52 54 53 50 46 40 39 37 33 31 30 30 34 38 38 39 40 40 38 36 38 38 35 32 33 33 31 29 25 24 35 34 34 36 38 39 43 43 46 52 52 53
51 49 48 50 53 51 48 41 37 41 33 35 33 32 34 37 35 36 40 36 35 33 34 34 33 34 36 34 33 32 28 26 32 34 35 34 34 39 38 40 43 45 51 52 55
51 49 47 48 51 50 45 41 44 42 35 35 34 32 32 37 32 34 38 36 33 31 31 32 33 34 33 32 30 30 29 28 29 34 35 36 34 37 37 40 41 44 49 52 54
50 50 47 46 48 46 42 42 43 43 37 32 33 34 36 37 32 36 39 39 33 32 31 29 31 32 32 30 29 27 31 31 31 31 26 31 30 36 36 39 40 41 45 48 52
49 50 47 45 46 45 44 43 43 40 27 31 34 37 37 34 32 34 40 37 31 29 32 31 31 32 29 28 32 30 34 31 31 29 27 26 26 32 36 36 38 40 42 45 50
50 49 46 44 49 48 48 44 41 33 26 31 34 32 32 32 31 34 34 37 36 31 29 29 32 33 33 34 33 34 33 30 30 30 27 23 24 27 32 35 37 39 41 43 45
49 49 45 43 42 49 46 40 33 30 29 31 31 31 28 28 29 30 29 27 27 29 29 27 25 28 34 32 32 32 31 29 26 29 22 26 25 22 26 30 36 38 39 41 44
48 47 47 46 47 49 43 35 30 30 29 31 32 31 26 27 28 29 27 24 28 25 27 24 24 26 29 31 31 31 30 28 22 19 18 27 22 26 27 30 31 32 34 36 39
48 48 48 48 50 49 37 33 31 31 28 30 30 25 26 27 28 28 23 22 26 26 23 21 19 25 29 32 32 33 32 32 29 22 19 19 22 21 24 26 29 29 30 33 31
43 44 45 51 49 44 36 32 31 30 31 31 20 25 18 25 24 24 20 28 28 30 29 25 24 26 27 30 33 31 34 29 32 22 15 15 16 19 23 25 25 26 28 30 33
45 40 46 50 48 38 34 32 31 32 33 29 23 21 20 22 23 20 21 29 29 31 30 27 25 24 24 26 25 27 29 30 32 31 26 17 18 24 27 29 28 26 30 32 37
44 36 47 49 37 38 34 32 35 33 33 32 28 26 23 25 23 22 22 26 31 33 26 30 26 24 17 25 29 28 27 30 26 28 27 26 24 27 29 28 27 30 32 33 36
40 39 48 47 35 35 33 32 34 31 32 30 27 29 28 25 20 24 26 28 31 32 29 28 28 23 20 27 28 25 25 25 31 32 29 24 26 27 28 29 31 31 32 32 32
40 35 40 42 40 36 30 29 30 34 32 31 28 28 25 23 24 22 24 27 29 30 31 30 33 26 17 22 24 23 22 20 27 28 24 26 28 28 30 30 30 31 31 31 32
38 36 38 35 37 36 32 31 29 27 32 31 28 26 23 19 21 20 23 24 24 25 25 24 25 22 20 20 21 20 21 20 27 26 27 24 25 29 29 30 32 30 32 33 33
37 37 35 38 36 33 33 31 29 27 29 29 27 28 26 19 16 14 19 20 17 21 24 27 27 26 23 22 22 18 17 18 22 24 25 26 26 29 32 33 34 33 32 34 35
41 40 37 37 36 32 31 30 28 29 26 25 28 26 25 23 23 22 22 23 26 26 23 24 27 26 20 22 27 25 24 26 28 28 30 27 28 33 33 33 34 35 35 35 35

GFSSW_sfc_dewp_114.txt.gz
Dewpoint
53 57 58 59 60 57 55 54 54 53 54 52 52 52 52 52 53 47 40 38 40 47 52 48 46 45 47 45 45 44 37 32 30 30 28 25 38 36 40 43 46 47 49 51 60
51 54 54 58 58 59 56 54 54 52 53 52 52 52 52 53 48 43 42 42 47 51 48 43 42 45 44 43 43 41 35 32 32 30 29 36 40 41 39 40 43 47 49 50 58
49 51 51 54 57 59 56 55 54 52 52 52 52 52 53 52 43 35 47 46 50 51 48 46 46 43 39 39 38 37 34 34 34 35 40 42 41 43 43 40 43 45 48 53 57
50 49 50 53 56 59 56 54 53 52 52 52 52 52 53 48 34 39 47 46 47 48 45 45 44 39 36 36 36 34 35 35 36 41 42 40 42 39 40 40 43 45 48 52 56
50 50 50 50 55 57 56 55 54 52 52 52 52 52 49 38 34 42 46 45 44 44 45 44 41 41 38 38 41 37 35 37 39 41 42 41 39 40 39 39 44 47 47 51 53
50 49 49 49 52 54 55 54 53 53 52 53 52 52 46 37 36 37 39 41 44 44 44 43 42 43 41 41 39 40 39 37 40 41 41 39 36 39 37 38 43 45 48 50 53
51 50 49 49 49 51 56 56 54 53 52 53 52 49 43 39 36 37 39 41 43 46 45 47 47 44 43 40 39 38 38 39 40 40 39 40 35 32 34 41 46 47 50 52 53
51 50 49 49 49 51 52 56 54 52 52 53 52 48 40 39 37 35 38 39 43 45 47 48 48 46 44 42 39 35 36 35 36 40 39 40 29 31 44 41 46 49 50 51 54
52 50 50 49 49 53 53 54 53 52 52 52 49 45 34 40 33 35 40 38 40 42 47 46 47 45 42 38 36 34 31 34 35 39 40 39 34 37 44 45 45 48 47 52 56
52 52 50 49 50 54 53 53 52 51 50 46 45 37 36 29 37 38 40 40 41 43 43 42 42 41 38 37 33 35 36 31 32 37 38 36 36 34 40 45 46 46 45 52 56
51 51 51 48 49 53 50 46 43 41 42 36 35 33 29 35 38 39 40 39 40 40 36 41 38 36 38 35 32 33 30 29 27 36 35 34 32 36 40 39 41 41 44 53 55
50 50 50 48 48 51 49 43 40 42 35 38 34 33 32 36 35 37 40 37 37 35 36 35 33 34 36 33 32 31 30 30 32 35 35 33 33 36 39 39 42 43 47 52 55
49 50 50 48 46 49 46 44 45 44 36 34 35 33 32 36 33 35 38 38 34 32 32 30 31 32 32 31 29 30 32 30 29 33 35 34 33 34 39 39 41 44 47 51 54
49 50 49 47 44 46 43 44 44 45 35 33 33 34 34 38 33 36 39 39 35 31 33 31 31 30 31 30 30 29 34 31 28 29 31 33 25 34 37 37 42 42 49 53 55
48 49 48 47 42 43 47 47 45 42 25 33 33 38 37 34 34 35 42 39 31 31 31 30 32 32 31 30 32 30 33 31 30 28 28 27 25 37 37 36 39 42 46 51 54
48 48 49 45 46 44 50 46 43 32 23 31 34 32 31 32 30 34 35 39 36 30 29 28 28 31 32 32 32 32 31 31 30 30 24 24 24 33 33 37 40 41 44 48 52
48 48 48 43 41 50 49 42 33 28 29 31 30 30 29 27 28 30 30 29 27 24 28 28 27 29 33 31 32 32 30 24 21 20 20 25 23 26 28 31 40 42 44 45 50
48 47 47 43 46 48 45 36 28 28 29 31 30 29 26 26 29 30 29 26 28 25 27 23 20 26 27 29 29 30 32 28 23 24 27 25 27 22 27 30 38 42 39 42 46
49 48 48 48 50 49 39 31 31 31 28 30 28 26 27 26 29 28 23 24 28 28 24 25 20 26 28 27 31 30 28 32 31 25 22 21 21 23 26 27 28 33 34 32 33
45 45 45 50 50 46 38 34 32 31 31 31 23 24 23 25 26 24 21 28 29 29 28 26 23 27 25 29 33 32 33 28 30 17 16 18 20 23 27 27 28 29 31 33 37
46 40 46 50 48 40 34 33 31 33 33 30 24 20 21 23 23 20 21 28 30 31 30 28 26 25 26 26 25 30 28 29 31 28 25 24 27 27 27 27 28 31 33 36 38
45 36 46 49 38 39 35 33 35 33 35 32 29 26 23 24 23 23 25 27 32 32 28 29 26 22 23 28 28 27 26 30 24 21 27 29 28 28 29 31 31 31 33 34 36
39 39 47 47 34 36 33 30 32 32 32 29 27 27 26 24 22 24 26 29 30 32 29 29 25 16 21 28 26 24 24 23 29 30 22 24 28 33 30 29 30 31 31 32 33
40 35 40 42 40 37 31 30 30 36 33 31 28 27 24 22 22 23 25 28 30 29 32 30 28 21 15 18 22 21 22 21 26 23 19 26 28 34 30 31 30 32 33 34 34
38 36 37 34 36 35 32 32 28 29 32 31 28 26 23 19 20 20 23 25 25 25 25 27 17 23 22 21 22 22 21 21 19 23 18 23 23 28 31 32 33 31 33 35 35
36 35 34 37 35 34 34 31 28 28 26 27 28 27 23 20 20 21 21 21 19 22 25 28 20 21 17 22 24 20 19 19 21 24 26 26 27 33 33 33 33 35 35 35 35
40 40 39 35 34 32 32 31 29 29 27 25 26 26 25 24 22 21 22 25 26 26 23 24 22 19 16 22 24 17 25 25 27 27 29 26 30 35 34 33 34 35 35 34 35

GFSSW_sfc_dewp_117.txt.gz
Dewpoint
51 51 52 52 55 58 59 57 55 54 53 53 52 52 52 53 53 50 46 48 47 49 54 51 49 47 48 45 45 45 38 32 31 32 32 32 31 33 39 39 38 42 45 48 52
49 52 52 50 53 56 57 58 55 55 52 52 52 52 52 53 50 48 50 48 48 50 50 49 44 45 45 44 44 41 37 33 34 34 32 32 35 39 41 39 40 40 42 47 51
50 49 51 50 51 55 56 59 56 54 53 52 52 52 52 52 47 40 49 49 50 50 51 48 47 45 42 42 41 39 34 35 34 35 36 38 38 42 42 41 41 40 40 45 51
50 50 49 50 50 52 55 58 54 55 52 52 51 52 53 51 32 41 50 50 49 50 49 45 45 44 37 37 39 35 37 36 35 36 36 37 40 41 41 40 40 43 44 46 50
52 51 50 50 50 50 53 57 55 54 52 52 52 52 51 45 40 45 50 49 44 49 46 46 45 42 39 38 40 39 39 37 37 38 38 42 41 40 37 38 40 41 43 48 50
53 52 51 50 50 49 51 54 56 54 53 51 52 51 49 40 39 42 44 42 45 46 46 46 44 45 42 41 40 41 41 41 39 38 41 40 41 40 39 39 39 40 42 49 50
52 53 51 50 50 49 52 52 56 53 52 51 51 49 47 41 40 41 40 41 45 45 45 47 47 43 44 40 41 40 38 38 39 39 40 41 39 39 38 36 37 37 44 49 51
51 52 53 51 50 49 53 53 53 54 52 51 51 49 41 44 43 39 36 39 46 47 47 48 49 47 44 42 40 37 36 34 36 40 41 39 33 35 39 44 42 46 48 50 52
50 51 52 52 50 50 54 54 53 53 52 51 49 47 40 43 34 33 36 40 44 45 46 46 47 44 44 40 36 36 30 32 34 36 40 38 35 37 38 43 43 46 48 50 53
50 50 51 51 49 50 53 52 53 51 49 49 46 39 37 33 38 40 41 41 42 44 45 44 42 38 40 36 29 34 34 35 35 36 39 38 38 38 38 41 45 46 47 49 55
49 50 50 49 48 49 51 45 43 42 44 38 39 36 34 37 40 40 41 41 43 40 36 39 38 34 36 37 38 36 32 33 35 38 38 37 36 36 35 40 40 43 45 49 54
48 49 50 48 49 47 49 42 41 41 35 41 38 37 36 37 36 39 41 38 38 36 37 37 33 35 36 37 37 31 30 35 39 37 36 34 34 34 36 39 40 41 43 52 55
49 48 49 47 49 47 47 44 48 44 37 36 38 35 35 37 35 39 40 39 34 32 32 31 30 32 32 32 30 29 31 33 31 31 35 35 31 34 36 39 40 40 49 52 53
48 48 47 48 44 45 44 47 46 45 34 33 34 36 37 40 36 39 42 40 36 31 32 31 34 33 32 31 32 29 33 31 31 30 27 34 26 33 38 38 39 42 51 52 53
49 48 48 48 42 42 47 49 44 41 21 34 35 40 39 36 35 37 42 40 33 33 30 27 30 30 30 32 31 31 33 30 32 30 28 27 29 35 40 39 41 44 50 52 54
48 49 49 46 46 46 50 49 42 30 20 31 35 34 34 34 32 36 36 38 36 32 29 29 30 30 32 31 33 33 31 31 30 30 21 27 29 29 28 38 42 42 45 52 54
49 48 46 45 43 48 48 42 32 21 27 30 31 33 33 29 31 32 32 29 24 19 21 26 26 28 30 29 32 31 29 18 19 16 19 26 25 24 27 40 42 42 42 49 53
50 48 49 45 47 46 44 37 24 27 28 33 31 31 27 28 29 30 28 26 29 27 23 19 16 25 28 28 29 30 31 27 21 23 24 28 21 25 27 31 44 45 43 43 48
49 47 46 49 49 48 40 30 30 28 30 31 30 26 27 27 28 28 26 26 29 29 24 22 20 27 27 29 32 28 27 32 30 31 26 24 26 26 28 28 33 41 43 41 40
44 44 44 49 49 45 38 31 30 33 33 32 24 22 24 25 25 22 26 28 30 32 30 26 20 26 27 29 29 31 32 23 25 18 22 25 25 27 28 29 31 34 37 38 42
43 40 44 48 47 40 33 31 33 34 34 29 26 22 22 22 22 21 26 28 32 32 30 27 25 22 26 27 26 28 26 28 24 27 25 21 27 30 28 30 31 32 33 36 39
39 36 44 46 34 35 30 33 36 34 34 31 28 27 24 23 23 24 25 26 29 32 27 28 26 17 26 27 27 27 25 26 19 19 29 24 29 35 35 30 31 31 32 33 35
40 39 44 43 33 30 32 32 34 34 32 31 27 27 25 22 23 25 27 29 29 30 27 28 22 7 16 18 21 23 23 26 27 26 18 24 29 35 33 33 31 32 34 34 33
36 32 36 38 38 33 31 31 30 34 32 31 28 27 23 22 22 22 26 28 29 28 32 31 24 15 11 15 21 20 21 23 22 13 23 22 22 30 31 32 34 35 35 35 35
37 35 36 27 32 33 32 31 29 27 29 30 28 25 23 17 17 20 24 25 24 24 26 26 13 22 21 22 22 22 20 21 15 21 17 22 29 32 33 32 34 34 35 34 34
34 31 33 34 35 32 32 29 30 29 26 26 28 25 23 21 21 20 22 22 21 23 25 26 17 17 15 23 25 20 19 20 20 23 25 26 30 35 35 34 35 36 35 35 35
38 38 35 33 31 30 31 30 29 28 27 25 24 25 23 23 21 21 24 26 26 23 22 23 18 16 15 23 20 13 22 24 28 27 27 23 30 34 33 35 36 37 36 36 35